<?xml version="1.0" encoding="UTF-8" standalone="no" ?>
<gpx xmlns="http://www.topografix.com/GPX/1/1" xmlns:xsi="http://www.w3.org/2001/XMLSchema-instance" xsi:schemaLocation="http://www.topografix.com/GPX/1/1 http://www.topografix.com/GPX/1/1/gpx.xsd" version="1.1" creator="VisuGPX - https://www.visugpx.com">
  <metadata>
    <name>GR 70 Stevenson E6 Pont de Montvert - Gare de Cassagnas</name>
    <desc><![CDATA[GR 70 Stevenson E6 Pont de Montvert - Gare de Cassagnas]]></desc>
  </metadata>
  <trk>
    <name><![CDATA[2013-06-04 09:49:28 Chronomètre]]></name>
    <trkseg>
      <trkpt lat="44.36228" lon="3.74732">
        <ele>892.24</ele>
        <time>2013-06-04T07:49:28Z</time>
      </trkpt>
      <trkpt lat="44.36227" lon="3.74732">
        <ele>890.8</ele>
        <time>2013-06-04T07:49:41Z</time>
      </trkpt>
      <trkpt lat="44.36226" lon="3.74732">
        <ele>892.24</ele>
        <time>2013-06-04T07:49:49Z</time>
      </trkpt>
      <trkpt lat="44.36226" lon="3.74731">
        <ele>891.76</ele>
        <time>2013-06-04T07:50:06Z</time>
      </trkpt>
      <trkpt lat="44.36225" lon="3.74732">
        <ele>892.72</ele>
        <time>2013-06-04T07:50:25Z</time>
      </trkpt>
      <trkpt lat="44.36226" lon="3.74735">
        <ele>892.72</ele>
        <time>2013-06-04T07:50:38Z</time>
      </trkpt>
      <trkpt lat="44.36223" lon="3.74737">
        <ele>893.2</ele>
        <time>2013-06-04T07:51:06Z</time>
      </trkpt>
      <trkpt lat="44.36227" lon="3.74733">
        <ele>893.2</ele>
        <time>2013-06-04T07:51:25Z</time>
      </trkpt>
      <trkpt lat="44.36227" lon="3.74731">
        <ele>891.76</ele>
        <time>2013-06-04T07:51:29Z</time>
      </trkpt>
      <trkpt lat="44.36206" lon="3.74718">
        <ele>891.76</ele>
        <time>2013-06-04T07:51:45Z</time>
      </trkpt>
      <trkpt lat="44.36194" lon="3.74727">
        <ele>893.68</ele>
        <time>2013-06-04T07:51:56Z</time>
      </trkpt>
      <trkpt lat="44.36192" lon="3.74719">
        <ele>893.68</ele>
        <time>2013-06-04T07:52:06Z</time>
      </trkpt>
      <trkpt lat="44.36193" lon="3.74703">
        <ele>892.72</ele>
        <time>2013-06-04T07:52:19Z</time>
      </trkpt>
      <trkpt lat="44.36195" lon="3.74682">
        <ele>891.28</ele>
        <time>2013-06-04T07:52:36Z</time>
      </trkpt>
      <trkpt lat="44.3618" lon="3.74689">
        <ele>891.28</ele>
        <time>2013-06-04T07:52:48Z</time>
      </trkpt>
      <trkpt lat="44.36182" lon="3.74663">
        <ele>890.8</ele>
        <time>2013-06-04T07:53:04Z</time>
      </trkpt>
      <trkpt lat="44.36182" lon="3.74651">
        <ele>889.84</ele>
        <time>2013-06-04T07:53:18Z</time>
      </trkpt>
      <trkpt lat="44.3618" lon="3.74644">
        <ele>889.84</ele>
        <time>2013-06-04T07:53:30Z</time>
      </trkpt>
      <trkpt lat="44.3618" lon="3.7462">
        <ele>889.36</ele>
        <time>2013-06-04T07:53:47Z</time>
      </trkpt>
      <trkpt lat="44.36184" lon="3.7459">
        <ele>887.91</ele>
        <time>2013-06-04T07:54:03Z</time>
      </trkpt>
      <trkpt lat="44.36188" lon="3.74557">
        <ele>886.95</ele>
        <time>2013-06-04T07:54:24Z</time>
      </trkpt>
      <trkpt lat="44.36198" lon="3.74534">
        <ele>885.03</ele>
        <time>2013-06-04T07:54:40Z</time>
      </trkpt>
      <trkpt lat="44.36199" lon="3.74531">
        <ele>885.03</ele>
        <time>2013-06-04T07:54:41Z</time>
      </trkpt>
      <trkpt lat="44.36209" lon="3.74512">
        <ele>883.59</ele>
        <time>2013-06-04T07:54:56Z</time>
      </trkpt>
      <trkpt lat="44.36215" lon="3.7448">
        <ele>881.67</ele>
        <time>2013-06-04T07:55:12Z</time>
      </trkpt>
      <trkpt lat="44.3622" lon="3.74466">
        <ele>881.67</ele>
        <time>2013-06-04T07:55:24Z</time>
      </trkpt>
      <trkpt lat="44.36228" lon="3.74458">
        <ele>881.67</ele>
        <time>2013-06-04T07:55:36Z</time>
      </trkpt>
      <trkpt lat="44.36237" lon="3.74455">
        <ele>881.19</ele>
        <time>2013-06-04T07:55:45Z</time>
      </trkpt>
      <trkpt lat="44.3624" lon="3.74456">
        <ele>881.19</ele>
        <time>2013-06-04T07:55:48Z</time>
      </trkpt>
      <trkpt lat="44.36247" lon="3.74456">
        <ele>880.22</ele>
        <time>2013-06-04T07:56:07Z</time>
      </trkpt>
      <trkpt lat="44.36258" lon="3.7444">
        <ele>880.71</ele>
        <time>2013-06-04T07:56:23Z</time>
      </trkpt>
      <trkpt lat="44.3626" lon="3.74441">
        <ele>880.71</ele>
        <time>2013-06-04T07:56:32Z</time>
      </trkpt>
      <trkpt lat="44.36262" lon="3.74434">
        <ele>881.19</ele>
        <time>2013-06-04T07:56:46Z</time>
      </trkpt>
      <trkpt lat="44.36267" lon="3.74409">
        <ele>881.19</ele>
        <time>2013-06-04T07:57:11Z</time>
      </trkpt>
      <trkpt lat="44.36267" lon="3.74405">
        <ele>881.19</ele>
        <time>2013-06-04T07:57:13Z</time>
      </trkpt>
      <trkpt lat="44.36268" lon="3.74401">
        <ele>881.19</ele>
        <time>2013-06-04T07:57:16Z</time>
      </trkpt>
      <trkpt lat="44.36271" lon="3.74391">
        <ele>881.19</ele>
        <time>2013-06-04T07:57:22Z</time>
      </trkpt>
      <trkpt lat="44.36278" lon="3.74369">
        <ele>880.71</ele>
        <time>2013-06-04T07:57:37Z</time>
      </trkpt>
      <trkpt lat="44.36275" lon="3.74365">
        <ele>882.15</ele>
        <time>2013-06-04T07:57:41Z</time>
      </trkpt>
      <trkpt lat="44.36268" lon="3.74352">
        <ele>884.07</ele>
        <time>2013-06-04T07:57:54Z</time>
      </trkpt>
      <trkpt lat="44.36265" lon="3.74331">
        <ele>886.95</ele>
        <time>2013-06-04T07:58:07Z</time>
      </trkpt>
      <trkpt lat="44.36264" lon="3.74331">
        <ele>886.95</ele>
        <time>2013-06-04T07:58:08Z</time>
      </trkpt>
      <trkpt lat="44.36247" lon="3.74339">
        <ele>889.36</ele>
        <time>2013-06-04T07:58:21Z</time>
      </trkpt>
      <trkpt lat="44.36239" lon="3.74341">
        <ele>892.72</ele>
        <time>2013-06-04T07:58:33Z</time>
      </trkpt>
      <trkpt lat="44.36237" lon="3.7434">
        <ele>893.68</ele>
        <time>2013-06-04T07:58:46Z</time>
      </trkpt>
      <trkpt lat="44.36239" lon="3.74334">
        <ele>895.12</ele>
        <time>2013-06-04T07:59:00Z</time>
      </trkpt>
      <trkpt lat="44.3624" lon="3.74323">
        <ele>897.05</ele>
        <time>2013-06-04T07:59:12Z</time>
      </trkpt>
      <trkpt lat="44.36243" lon="3.74315">
        <ele>898.49</ele>
        <time>2013-06-04T07:59:25Z</time>
      </trkpt>
      <trkpt lat="44.36246" lon="3.74305">
        <ele>901.37</ele>
        <time>2013-06-04T07:59:37Z</time>
      </trkpt>
      <trkpt lat="44.36241" lon="3.74284">
        <ele>902.82</ele>
        <time>2013-06-04T07:59:48Z</time>
      </trkpt>
      <trkpt lat="44.36231" lon="3.74285">
        <ele>904.74</ele>
        <time>2013-06-04T08:00:00Z</time>
      </trkpt>
      <trkpt lat="44.36219" lon="3.74296">
        <ele>907.14</ele>
        <time>2013-06-04T08:00:14Z</time>
      </trkpt>
      <trkpt lat="44.36207" lon="3.74308">
        <ele>909.54</ele>
        <time>2013-06-04T08:00:31Z</time>
      </trkpt>
      <trkpt lat="44.36204" lon="3.74314">
        <ele>909.54</ele>
        <time>2013-06-04T08:00:36Z</time>
      </trkpt>
      <trkpt lat="44.36196" lon="3.74325">
        <ele>910.51</ele>
        <time>2013-06-04T08:00:45Z</time>
      </trkpt>
      <trkpt lat="44.36186" lon="3.74341">
        <ele>911.95</ele>
        <time>2013-06-04T08:00:59Z</time>
      </trkpt>
      <trkpt lat="44.36186" lon="3.74351">
        <ele>912.43</ele>
        <time>2013-06-04T08:01:17Z</time>
      </trkpt>
      <trkpt lat="44.3619" lon="3.74354">
        <ele>912.43</ele>
        <time>2013-06-04T08:01:39Z</time>
      </trkpt>
      <trkpt lat="44.36191" lon="3.74352">
        <ele>912.43</ele>
        <time>2013-06-04T08:02:01Z</time>
      </trkpt>
      <trkpt lat="44.36191" lon="3.74351">
        <ele>912.43</ele>
        <time>2013-06-04T08:02:33Z</time>
      </trkpt>
      <trkpt lat="44.36191" lon="3.74354">
        <ele>912.43</ele>
        <time>2013-06-04T08:03:10Z</time>
      </trkpt>
      <trkpt lat="44.3619" lon="3.74352">
        <ele>912.43</ele>
        <time>2013-06-04T08:03:45Z</time>
      </trkpt>
      <trkpt lat="44.36186" lon="3.74352">
        <ele>912.91</ele>
        <time>2013-06-04T08:03:56Z</time>
      </trkpt>
      <trkpt lat="44.36187" lon="3.74355">
        <ele>912.43</ele>
        <time>2013-06-04T08:04:35Z</time>
      </trkpt>
      <trkpt lat="44.36188" lon="3.74357">
        <ele>912.43</ele>
        <time>2013-06-04T08:05:13Z</time>
      </trkpt>
      <trkpt lat="44.36187" lon="3.7435">
        <ele>912.43</ele>
        <time>2013-06-04T08:05:36Z</time>
      </trkpt>
      <trkpt lat="44.36185" lon="3.7435">
        <ele>912.43</ele>
        <time>2013-06-04T08:05:41Z</time>
      </trkpt>
      <trkpt lat="44.36175" lon="3.74357">
        <ele>914.83</ele>
        <time>2013-06-04T08:05:55Z</time>
      </trkpt>
      <trkpt lat="44.36168" lon="3.74364">
        <ele>915.79</ele>
        <time>2013-06-04T08:06:08Z</time>
      </trkpt>
      <trkpt lat="44.36165" lon="3.74366">
        <ele>916.75</ele>
        <time>2013-06-04T08:06:18Z</time>
      </trkpt>
      <trkpt lat="44.36157" lon="3.74367">
        <ele>919.16</ele>
        <time>2013-06-04T08:06:29Z</time>
      </trkpt>
      <trkpt lat="44.36147" lon="3.74373">
        <ele>921.08</ele>
        <time>2013-06-04T08:06:42Z</time>
      </trkpt>
      <trkpt lat="44.36139" lon="3.74373">
        <ele>922.52</ele>
        <time>2013-06-04T08:06:55Z</time>
      </trkpt>
      <trkpt lat="44.3613" lon="3.74372">
        <ele>924.45</ele>
        <time>2013-06-04T08:07:06Z</time>
      </trkpt>
      <trkpt lat="44.36115" lon="3.74373">
        <ele>927.33</ele>
        <time>2013-06-04T08:07:19Z</time>
      </trkpt>
      <trkpt lat="44.36106" lon="3.74374">
        <ele>928.77</ele>
        <time>2013-06-04T08:07:28Z</time>
      </trkpt>
      <trkpt lat="44.36102" lon="3.74375">
        <ele>930.21</ele>
        <time>2013-06-04T08:07:32Z</time>
      </trkpt>
      <trkpt lat="44.36089" lon="3.74374">
        <ele>930.69</ele>
        <time>2013-06-04T08:07:44Z</time>
      </trkpt>
      <trkpt lat="44.36087" lon="3.74373">
        <ele>931.17</ele>
        <time>2013-06-04T08:07:47Z</time>
      </trkpt>
      <trkpt lat="44.36082" lon="3.74369">
        <ele>931.17</ele>
        <time>2013-06-04T08:07:52Z</time>
      </trkpt>
      <trkpt lat="44.36076" lon="3.74361">
        <ele>933.1</ele>
        <time>2013-06-04T08:08:07Z</time>
      </trkpt>
      <trkpt lat="44.36081" lon="3.74366">
        <ele>934.06</ele>
        <time>2013-06-04T08:08:16Z</time>
      </trkpt>
      <trkpt lat="44.36084" lon="3.74367">
        <ele>934.54</ele>
        <time>2013-06-04T08:08:19Z</time>
      </trkpt>
      <trkpt lat="44.36093" lon="3.74368">
        <ele>935.98</ele>
        <time>2013-06-04T08:08:28Z</time>
      </trkpt>
      <trkpt lat="44.36101" lon="3.74354">
        <ele>937.42</ele>
        <time>2013-06-04T08:08:42Z</time>
      </trkpt>
      <trkpt lat="44.36104" lon="3.74339">
        <ele>939.83</ele>
        <time>2013-06-04T08:08:54Z</time>
      </trkpt>
      <trkpt lat="44.36097" lon="3.74322">
        <ele>942.23</ele>
        <time>2013-06-04T08:09:10Z</time>
      </trkpt>
      <trkpt lat="44.36096" lon="3.74318">
        <ele>943.19</ele>
        <time>2013-06-04T08:09:18Z</time>
      </trkpt>
      <trkpt lat="44.36105" lon="3.74314">
        <ele>946.07</ele>
        <time>2013-06-04T08:09:32Z</time>
      </trkpt>
      <trkpt lat="44.36109" lon="3.74301">
        <ele>948</ele>
        <time>2013-06-04T08:09:44Z</time>
      </trkpt>
      <trkpt lat="44.36108" lon="3.74296">
        <ele>948.96</ele>
        <time>2013-06-04T08:09:48Z</time>
      </trkpt>
      <trkpt lat="44.36096" lon="3.74291">
        <ele>951.36</ele>
        <time>2013-06-04T08:10:00Z</time>
      </trkpt>
      <trkpt lat="44.36094" lon="3.74292">
        <ele>953.28</ele>
        <time>2013-06-04T08:10:11Z</time>
      </trkpt>
      <trkpt lat="44.361" lon="3.74294">
        <ele>954.73</ele>
        <time>2013-06-04T08:10:23Z</time>
      </trkpt>
      <trkpt lat="44.36103" lon="3.74289">
        <ele>955.69</ele>
        <time>2013-06-04T08:10:28Z</time>
      </trkpt>
      <trkpt lat="44.36105" lon="3.74288">
        <ele>956.65</ele>
        <time>2013-06-04T08:10:33Z</time>
      </trkpt>
      <trkpt lat="44.36109" lon="3.74282">
        <ele>957.61</ele>
        <time>2013-06-04T08:10:39Z</time>
      </trkpt>
      <trkpt lat="44.36114" lon="3.7427">
        <ele>960.49</ele>
        <time>2013-06-04T08:10:52Z</time>
      </trkpt>
      <trkpt lat="44.36116" lon="3.74263">
        <ele>961.46</ele>
        <time>2013-06-04T08:10:57Z</time>
      </trkpt>
      <trkpt lat="44.3612" lon="3.7425">
        <ele>963.38</ele>
        <time>2013-06-04T08:11:10Z</time>
      </trkpt>
      <trkpt lat="44.36124" lon="3.74235">
        <ele>965.3</ele>
        <time>2013-06-04T08:11:21Z</time>
      </trkpt>
      <trkpt lat="44.3613" lon="3.74218">
        <ele>967.7</ele>
        <time>2013-06-04T08:11:35Z</time>
      </trkpt>
      <trkpt lat="44.36136" lon="3.74206">
        <ele>969.63</ele>
        <time>2013-06-04T08:11:48Z</time>
      </trkpt>
      <trkpt lat="44.36142" lon="3.74194">
        <ele>972.03</ele>
        <time>2013-06-04T08:12:01Z</time>
      </trkpt>
      <trkpt lat="44.36149" lon="3.74179">
        <ele>973.95</ele>
        <time>2013-06-04T08:12:15Z</time>
      </trkpt>
      <trkpt lat="44.36154" lon="3.74161">
        <ele>976.36</ele>
        <time>2013-06-04T08:12:29Z</time>
      </trkpt>
      <trkpt lat="44.36159" lon="3.74148">
        <ele>979.24</ele>
        <time>2013-06-04T08:12:41Z</time>
      </trkpt>
      <trkpt lat="44.36164" lon="3.74135">
        <ele>981.64</ele>
        <time>2013-06-04T08:12:55Z</time>
      </trkpt>
      <trkpt lat="44.3617" lon="3.74126">
        <ele>984.05</ele>
        <time>2013-06-04T08:13:07Z</time>
      </trkpt>
      <trkpt lat="44.36179" lon="3.74115">
        <ele>986.45</ele>
        <time>2013-06-04T08:13:20Z</time>
      </trkpt>
      <trkpt lat="44.36178" lon="3.74099">
        <ele>988.85</ele>
        <time>2013-06-04T08:13:33Z</time>
      </trkpt>
      <trkpt lat="44.36178" lon="3.74099">
        <ele>988.85</ele>
        <time>2013-06-04T08:13:34Z</time>
      </trkpt>
      <trkpt lat="44.36169" lon="3.74099">
        <ele>991.26</ele>
        <time>2013-06-04T08:13:47Z</time>
      </trkpt>
      <trkpt lat="44.36159" lon="3.74105">
        <ele>992.22</ele>
        <time>2013-06-04T08:14:00Z</time>
      </trkpt>
      <trkpt lat="44.3615" lon="3.74108">
        <ele>993.66</ele>
        <time>2013-06-04T08:14:14Z</time>
      </trkpt>
      <trkpt lat="44.36146" lon="3.74113">
        <ele>993.18</ele>
        <time>2013-06-04T08:14:33Z</time>
      </trkpt>
      <trkpt lat="44.36145" lon="3.74115">
        <ele>993.18</ele>
        <time>2013-06-04T08:14:53Z</time>
      </trkpt>
      <trkpt lat="44.36143" lon="3.74117">
        <ele>993.18</ele>
        <time>2013-06-04T08:15:17Z</time>
      </trkpt>
      <trkpt lat="44.36147" lon="3.74119">
        <ele>992.7</ele>
        <time>2013-06-04T08:15:53Z</time>
      </trkpt>
      <trkpt lat="44.36144" lon="3.74119">
        <ele>992.7</ele>
        <time>2013-06-04T08:16:30Z</time>
      </trkpt>
      <trkpt lat="44.36146" lon="3.74114">
        <ele>992.7</ele>
        <time>2013-06-04T08:17:09Z</time>
      </trkpt>
      <trkpt lat="44.36144" lon="3.74117">
        <ele>992.22</ele>
        <time>2013-06-04T08:17:48Z</time>
      </trkpt>
      <trkpt lat="44.36143" lon="3.7411">
        <ele>992.22</ele>
        <time>2013-06-04T08:17:59Z</time>
      </trkpt>
      <trkpt lat="44.36135" lon="3.74113">
        <ele>994.14</ele>
        <time>2013-06-04T08:18:12Z</time>
      </trkpt>
      <trkpt lat="44.36125" lon="3.74115">
        <ele>995.58</ele>
        <time>2013-06-04T08:18:22Z</time>
      </trkpt>
      <trkpt lat="44.36114" lon="3.74122">
        <ele>997.99</ele>
        <time>2013-06-04T08:18:35Z</time>
      </trkpt>
      <trkpt lat="44.36104" lon="3.74128">
        <ele>999.91</ele>
        <time>2013-06-04T08:18:47Z</time>
      </trkpt>
      <trkpt lat="44.36093" lon="3.74131">
        <ele>1001.83</ele>
        <time>2013-06-04T08:19:00Z</time>
      </trkpt>
      <trkpt lat="44.36084" lon="3.74135">
        <ele>1003.75</ele>
        <time>2013-06-04T08:19:11Z</time>
      </trkpt>
      <trkpt lat="44.3607" lon="3.74138">
        <ele>1006.16</ele>
        <time>2013-06-04T08:19:24Z</time>
      </trkpt>
      <trkpt lat="44.36065" lon="3.7414">
        <ele>1006.64</ele>
        <time>2013-06-04T08:19:29Z</time>
      </trkpt>
      <trkpt lat="44.36058" lon="3.74143">
        <ele>1008.08</ele>
        <time>2013-06-04T08:19:36Z</time>
      </trkpt>
      <trkpt lat="44.36054" lon="3.74144">
        <ele>1009.52</ele>
        <time>2013-06-04T08:19:40Z</time>
      </trkpt>
      <trkpt lat="44.36042" lon="3.74144">
        <ele>1010.96</ele>
        <time>2013-06-04T08:19:55Z</time>
      </trkpt>
      <trkpt lat="44.3603" lon="3.74143">
        <ele>1012.89</ele>
        <time>2013-06-04T08:20:08Z</time>
      </trkpt>
      <trkpt lat="44.36015" lon="3.74139">
        <ele>1014.33</ele>
        <time>2013-06-04T08:20:23Z</time>
      </trkpt>
      <trkpt lat="44.36001" lon="3.74133">
        <ele>1015.77</ele>
        <time>2013-06-04T08:20:37Z</time>
      </trkpt>
      <trkpt lat="44.35986" lon="3.74128">
        <ele>1017.21</ele>
        <time>2013-06-04T08:20:51Z</time>
      </trkpt>
      <trkpt lat="44.35974" lon="3.74126">
        <ele>1019.62</ele>
        <time>2013-06-04T08:21:05Z</time>
      </trkpt>
      <trkpt lat="44.35972" lon="3.74126">
        <ele>1020.58</ele>
        <time>2013-06-04T08:21:07Z</time>
      </trkpt>
      <trkpt lat="44.35959" lon="3.74126">
        <ele>1022.5</ele>
        <time>2013-06-04T08:21:20Z</time>
      </trkpt>
      <trkpt lat="44.35949" lon="3.74121">
        <ele>1024.42</ele>
        <time>2013-06-04T08:21:34Z</time>
      </trkpt>
      <trkpt lat="44.35941" lon="3.74114">
        <ele>1026.83</ele>
        <time>2013-06-04T08:21:47Z</time>
      </trkpt>
      <trkpt lat="44.35933" lon="3.74106">
        <ele>1028.27</ele>
        <time>2013-06-04T08:22:00Z</time>
      </trkpt>
      <trkpt lat="44.35933" lon="3.74102">
        <ele>1028.75</ele>
        <time>2013-06-04T08:22:20Z</time>
      </trkpt>
      <trkpt lat="44.35931" lon="3.74101">
        <ele>1028.75</ele>
        <time>2013-06-04T08:22:49Z</time>
      </trkpt>
      <trkpt lat="44.35929" lon="3.74099">
        <ele>1028.75</ele>
        <time>2013-06-04T08:23:17Z</time>
      </trkpt>
      <trkpt lat="44.3593" lon="3.741">
        <ele>1028.27</ele>
        <time>2013-06-04T08:23:51Z</time>
      </trkpt>
      <trkpt lat="44.35931" lon="3.74102">
        <ele>1028.27</ele>
        <time>2013-06-04T08:24:22Z</time>
      </trkpt>
      <trkpt lat="44.35924" lon="3.74097">
        <ele>1028.75</ele>
        <time>2013-06-04T08:24:35Z</time>
      </trkpt>
      <trkpt lat="44.35919" lon="3.74094">
        <ele>1030.67</ele>
        <time>2013-06-04T08:24:47Z</time>
      </trkpt>
      <trkpt lat="44.35908" lon="3.74086">
        <ele>1032.59</ele>
        <time>2013-06-04T08:25:01Z</time>
      </trkpt>
      <trkpt lat="44.35905" lon="3.74085">
        <ele>1033.07</ele>
        <time>2013-06-04T08:25:04Z</time>
      </trkpt>
      <trkpt lat="44.35891" lon="3.7408">
        <ele>1035.48</ele>
        <time>2013-06-04T08:25:20Z</time>
      </trkpt>
      <trkpt lat="44.35885" lon="3.74076">
        <ele>1036.92</ele>
        <time>2013-06-04T08:25:26Z</time>
      </trkpt>
      <trkpt lat="44.35883" lon="3.74072">
        <ele>1036.92</ele>
        <time>2013-06-04T08:25:29Z</time>
      </trkpt>
      <trkpt lat="44.35879" lon="3.7407">
        <ele>1037.4</ele>
        <time>2013-06-04T08:25:33Z</time>
      </trkpt>
      <trkpt lat="44.35869" lon="3.74065">
        <ele>1038.84</ele>
        <time>2013-06-04T08:25:45Z</time>
      </trkpt>
      <trkpt lat="44.35859" lon="3.7406">
        <ele>1040.76</ele>
        <time>2013-06-04T08:25:57Z</time>
      </trkpt>
      <trkpt lat="44.35848" lon="3.74052">
        <ele>1042.69</ele>
        <time>2013-06-04T08:26:10Z</time>
      </trkpt>
      <trkpt lat="44.35844" lon="3.74047">
        <ele>1044.13</ele>
        <time>2013-06-04T08:26:17Z</time>
      </trkpt>
      <trkpt lat="44.35835" lon="3.74036">
        <ele>1045.57</ele>
        <time>2013-06-04T08:26:29Z</time>
      </trkpt>
      <trkpt lat="44.35826" lon="3.74031">
        <ele>1047.01</ele>
        <time>2013-06-04T08:26:38Z</time>
      </trkpt>
      <trkpt lat="44.35821" lon="3.74029">
        <ele>1048.45</ele>
        <time>2013-06-04T08:26:43Z</time>
      </trkpt>
      <trkpt lat="44.35817" lon="3.74025">
        <ele>1048.94</ele>
        <time>2013-06-04T08:26:48Z</time>
      </trkpt>
      <trkpt lat="44.35813" lon="3.74025">
        <ele>1049.42</ele>
        <time>2013-06-04T08:26:51Z</time>
      </trkpt>
      <trkpt lat="44.35805" lon="3.74022">
        <ele>1049.9</ele>
        <time>2013-06-04T08:26:58Z</time>
      </trkpt>
      <trkpt lat="44.358" lon="3.74022">
        <ele>1050.38</ele>
        <time>2013-06-04T08:27:02Z</time>
      </trkpt>
      <trkpt lat="44.35784" lon="3.74025">
        <ele>1051.82</ele>
        <time>2013-06-04T08:27:16Z</time>
      </trkpt>
      <trkpt lat="44.35782" lon="3.74025">
        <ele>1052.3</ele>
        <time>2013-06-04T08:27:18Z</time>
      </trkpt>
      <trkpt lat="44.35763" lon="3.74029">
        <ele>1054.7</ele>
        <time>2013-06-04T08:27:33Z</time>
      </trkpt>
      <trkpt lat="44.35753" lon="3.7403">
        <ele>1057.11</ele>
        <time>2013-06-04T08:27:44Z</time>
      </trkpt>
      <trkpt lat="44.3574" lon="3.74036">
        <ele>1059.03</ele>
        <time>2013-06-04T08:27:57Z</time>
      </trkpt>
      <trkpt lat="44.3573" lon="3.74041">
        <ele>1061.91</ele>
        <time>2013-06-04T08:28:11Z</time>
      </trkpt>
      <trkpt lat="44.35718" lon="3.74045">
        <ele>1064.32</ele>
        <time>2013-06-04T08:28:24Z</time>
      </trkpt>
      <trkpt lat="44.35704" lon="3.74049">
        <ele>1067.2</ele>
        <time>2013-06-04T08:28:39Z</time>
      </trkpt>
      <trkpt lat="44.35695" lon="3.7405">
        <ele>1070.08</ele>
        <time>2013-06-04T08:28:53Z</time>
      </trkpt>
      <trkpt lat="44.35693" lon="3.74053">
        <ele>1071.53</ele>
        <time>2013-06-04T08:29:05Z</time>
      </trkpt>
      <trkpt lat="44.35696" lon="3.74055">
        <ele>1072.49</ele>
        <time>2013-06-04T08:29:13Z</time>
      </trkpt>
      <trkpt lat="44.35708" lon="3.74049">
        <ele>1074.89</ele>
        <time>2013-06-04T08:29:27Z</time>
      </trkpt>
      <trkpt lat="44.3571" lon="3.74046">
        <ele>1075.37</ele>
        <time>2013-06-04T08:29:42Z</time>
      </trkpt>
      <trkpt lat="44.35708" lon="3.74049">
        <ele>1075.37</ele>
        <time>2013-06-04T08:30:14Z</time>
      </trkpt>
      <trkpt lat="44.35709" lon="3.74048">
        <ele>1075.37</ele>
        <time>2013-06-04T08:30:41Z</time>
      </trkpt>
      <trkpt lat="44.35708" lon="3.74049">
        <ele>1075.85</ele>
        <time>2013-06-04T08:31:03Z</time>
      </trkpt>
      <trkpt lat="44.35709" lon="3.74038">
        <ele>1075.85</ele>
        <time>2013-06-04T08:31:23Z</time>
      </trkpt>
      <trkpt lat="44.35707" lon="3.74034">
        <ele>1075.85</ele>
        <time>2013-06-04T08:31:27Z</time>
      </trkpt>
      <trkpt lat="44.35698" lon="3.74031">
        <ele>1076.81</ele>
        <time>2013-06-04T08:31:36Z</time>
      </trkpt>
      <trkpt lat="44.35685" lon="3.74031">
        <ele>1077.29</ele>
        <time>2013-06-04T08:31:49Z</time>
      </trkpt>
      <trkpt lat="44.35684" lon="3.74031">
        <ele>1078.26</ele>
        <time>2013-06-04T08:31:50Z</time>
      </trkpt>
      <trkpt lat="44.3567" lon="3.74033">
        <ele>1079.7</ele>
        <time>2013-06-04T08:32:02Z</time>
      </trkpt>
      <trkpt lat="44.35661" lon="3.74034">
        <ele>1081.62</ele>
        <time>2013-06-04T08:32:12Z</time>
      </trkpt>
      <trkpt lat="44.35647" lon="3.74038">
        <ele>1083.54</ele>
        <time>2013-06-04T08:32:25Z</time>
      </trkpt>
      <trkpt lat="44.35637" lon="3.74039">
        <ele>1086.43</ele>
        <time>2013-06-04T08:32:37Z</time>
      </trkpt>
      <trkpt lat="44.35635" lon="3.74039">
        <ele>1086.43</ele>
        <time>2013-06-04T08:32:39Z</time>
      </trkpt>
      <trkpt lat="44.3562" lon="3.74041">
        <ele>1088.83</ele>
        <time>2013-06-04T08:32:54Z</time>
      </trkpt>
      <trkpt lat="44.35617" lon="3.74041">
        <ele>1089.31</ele>
        <time>2013-06-04T08:32:57Z</time>
      </trkpt>
      <trkpt lat="44.35604" lon="3.74042">
        <ele>1091.71</ele>
        <time>2013-06-04T08:33:10Z</time>
      </trkpt>
      <trkpt lat="44.35601" lon="3.74042">
        <ele>1091.71</ele>
        <time>2013-06-04T08:33:12Z</time>
      </trkpt>
      <trkpt lat="44.35596" lon="3.74044">
        <ele>1092.2</ele>
        <time>2013-06-04T08:33:16Z</time>
      </trkpt>
      <trkpt lat="44.35581" lon="3.74048">
        <ele>1094.6</ele>
        <time>2013-06-04T08:33:29Z</time>
      </trkpt>
      <trkpt lat="44.35567" lon="3.74049">
        <ele>1097</ele>
        <time>2013-06-04T08:33:43Z</time>
      </trkpt>
      <trkpt lat="44.35566" lon="3.7405">
        <ele>1097</ele>
        <time>2013-06-04T08:33:45Z</time>
      </trkpt>
      <trkpt lat="44.35555" lon="3.7405">
        <ele>1099.4</ele>
        <time>2013-06-04T08:33:58Z</time>
      </trkpt>
      <trkpt lat="44.35551" lon="3.7405">
        <ele>1099.89</ele>
        <time>2013-06-04T08:34:01Z</time>
      </trkpt>
      <trkpt lat="44.35542" lon="3.74051">
        <ele>1100.37</ele>
        <time>2013-06-04T08:34:08Z</time>
      </trkpt>
      <trkpt lat="44.35538" lon="3.74053">
        <ele>1100.37</ele>
        <time>2013-06-04T08:34:11Z</time>
      </trkpt>
      <trkpt lat="44.35524" lon="3.74054">
        <ele>1101.81</ele>
        <time>2013-06-04T08:34:22Z</time>
      </trkpt>
      <trkpt lat="44.3551" lon="3.74048">
        <ele>1102.77</ele>
        <time>2013-06-04T08:34:36Z</time>
      </trkpt>
      <trkpt lat="44.35492" lon="3.74041">
        <ele>1105.17</ele>
        <time>2013-06-04T08:34:52Z</time>
      </trkpt>
      <trkpt lat="44.3547" lon="3.74041">
        <ele>1105.65</ele>
        <time>2013-06-04T08:35:08Z</time>
      </trkpt>
      <trkpt lat="44.35457" lon="3.74044">
        <ele>1106.13</ele>
        <time>2013-06-04T08:35:18Z</time>
      </trkpt>
      <trkpt lat="44.35431" lon="3.74042">
        <ele>1106.61</ele>
        <time>2013-06-04T08:35:40Z</time>
      </trkpt>
      <trkpt lat="44.35406" lon="3.7404">
        <ele>1107.58</ele>
        <time>2013-06-04T08:36:01Z</time>
      </trkpt>
      <trkpt lat="44.35393" lon="3.74035">
        <ele>1108.06</ele>
        <time>2013-06-04T08:36:12Z</time>
      </trkpt>
      <trkpt lat="44.35386" lon="3.74029">
        <ele>1108.06</ele>
        <time>2013-06-04T08:36:19Z</time>
      </trkpt>
      <trkpt lat="44.35368" lon="3.74018">
        <ele>1106.61</ele>
        <time>2013-06-04T08:36:35Z</time>
      </trkpt>
      <trkpt lat="44.35339" lon="3.74002">
        <ele>1106.13</ele>
        <time>2013-06-04T08:36:58Z</time>
      </trkpt>
      <trkpt lat="44.35338" lon="3.74002">
        <ele>1106.13</ele>
        <time>2013-06-04T08:36:59Z</time>
      </trkpt>
      <trkpt lat="44.35314" lon="3.73992">
        <ele>1105.65</ele>
        <time>2013-06-04T08:37:18Z</time>
      </trkpt>
      <trkpt lat="44.35303" lon="3.73987">
        <ele>1105.65</ele>
        <time>2013-06-04T08:37:27Z</time>
      </trkpt>
      <trkpt lat="44.35298" lon="3.7398">
        <ele>1104.69</ele>
        <time>2013-06-04T08:37:34Z</time>
      </trkpt>
      <trkpt lat="44.35294" lon="3.73978">
        <ele>1104.21</ele>
        <time>2013-06-04T08:37:37Z</time>
      </trkpt>
      <trkpt lat="44.35287" lon="3.73969">
        <ele>1104.21</ele>
        <time>2013-06-04T08:37:44Z</time>
      </trkpt>
      <trkpt lat="44.35281" lon="3.73965">
        <ele>1104.21</ele>
        <time>2013-06-04T08:37:49Z</time>
      </trkpt>
      <trkpt lat="44.35258" lon="3.73949">
        <ele>1103.73</ele>
        <time>2013-06-04T08:38:08Z</time>
      </trkpt>
      <trkpt lat="44.35252" lon="3.73944">
        <ele>1103.73</ele>
        <time>2013-06-04T08:38:13Z</time>
      </trkpt>
      <trkpt lat="44.35241" lon="3.73935">
        <ele>1106.13</ele>
        <time>2013-06-04T08:38:25Z</time>
      </trkpt>
      <trkpt lat="44.35238" lon="3.73932">
        <ele>1106.13</ele>
        <time>2013-06-04T08:38:29Z</time>
      </trkpt>
      <trkpt lat="44.35226" lon="3.73933">
        <ele>1107.1</ele>
        <time>2013-06-04T08:38:38Z</time>
      </trkpt>
      <trkpt lat="44.35224" lon="3.73932">
        <ele>1107.1</ele>
        <time>2013-06-04T08:38:40Z</time>
      </trkpt>
      <trkpt lat="44.35216" lon="3.73929">
        <ele>1108.06</ele>
        <time>2013-06-04T08:38:46Z</time>
      </trkpt>
      <trkpt lat="44.35214" lon="3.73924">
        <ele>1109.02</ele>
        <time>2013-06-04T08:38:50Z</time>
      </trkpt>
      <trkpt lat="44.35209" lon="3.73922">
        <ele>1109.02</ele>
        <time>2013-06-04T08:38:54Z</time>
      </trkpt>
      <trkpt lat="44.35198" lon="3.73912">
        <ele>1110.94</ele>
        <time>2013-06-04T08:39:05Z</time>
      </trkpt>
      <trkpt lat="44.35193" lon="3.73911">
        <ele>1111.42</ele>
        <time>2013-06-04T08:39:09Z</time>
      </trkpt>
      <trkpt lat="44.35185" lon="3.73904">
        <ele>1112.38</ele>
        <time>2013-06-04T08:39:18Z</time>
      </trkpt>
      <trkpt lat="44.35182" lon="3.73904">
        <ele>1112.86</ele>
        <time>2013-06-04T08:39:21Z</time>
      </trkpt>
      <trkpt lat="44.35177" lon="3.73903">
        <ele>1113.82</ele>
        <time>2013-06-04T08:39:38Z</time>
      </trkpt>
      <trkpt lat="44.35178" lon="3.73903">
        <ele>1113.82</ele>
        <time>2013-06-04T08:39:53Z</time>
      </trkpt>
      <trkpt lat="44.35178" lon="3.73904">
        <ele>1113.82</ele>
        <time>2013-06-04T08:40:15Z</time>
      </trkpt>
      <trkpt lat="44.35177" lon="3.73903">
        <ele>1113.82</ele>
        <time>2013-06-04T08:40:26Z</time>
      </trkpt>
      <trkpt lat="44.35176" lon="3.73904">
        <ele>1113.82</ele>
        <time>2013-06-04T08:40:39Z</time>
      </trkpt>
      <trkpt lat="44.35176" lon="3.73904">
        <ele>1113.82</ele>
        <time>2013-06-04T08:40:55Z</time>
      </trkpt>
      <trkpt lat="44.35175" lon="3.73902">
        <ele>1113.82</ele>
        <time>2013-06-04T08:41:09Z</time>
      </trkpt>
      <trkpt lat="44.35176" lon="3.73902">
        <ele>1113.82</ele>
        <time>2013-06-04T08:41:34Z</time>
      </trkpt>
      <trkpt lat="44.35178" lon="3.73911">
        <ele>1113.82</ele>
        <time>2013-06-04T08:41:51Z</time>
      </trkpt>
      <trkpt lat="44.35179" lon="3.73912">
        <ele>1113.82</ele>
        <time>2013-06-04T08:41:53Z</time>
      </trkpt>
      <trkpt lat="44.35178" lon="3.73913">
        <ele>1113.82</ele>
        <time>2013-06-04T08:42:13Z</time>
      </trkpt>
      <trkpt lat="44.35176" lon="3.73905">
        <ele>1113.82</ele>
        <time>2013-06-04T08:42:26Z</time>
      </trkpt>
      <trkpt lat="44.35175" lon="3.73899">
        <ele>1113.82</ele>
        <time>2013-06-04T08:42:41Z</time>
      </trkpt>
      <trkpt lat="44.35175" lon="3.73897">
        <ele>1113.82</ele>
        <time>2013-06-04T08:43:17Z</time>
      </trkpt>
      <trkpt lat="44.35175" lon="3.73902">
        <ele>1113.82</ele>
        <time>2013-06-04T08:43:44Z</time>
      </trkpt>
      <trkpt lat="44.35177" lon="3.73905">
        <ele>1112.38</ele>
        <time>2013-06-04T08:43:57Z</time>
      </trkpt>
      <trkpt lat="44.35177" lon="3.73905">
        <ele>1112.38</ele>
        <time>2013-06-04T08:44:02Z</time>
      </trkpt>
      <trkpt lat="44.35169" lon="3.73895">
        <ele>1112.38</ele>
        <time>2013-06-04T08:44:12Z</time>
      </trkpt>
      <trkpt lat="44.35155" lon="3.73877">
        <ele>1111.42</ele>
        <time>2013-06-04T08:44:26Z</time>
      </trkpt>
      <trkpt lat="44.35146" lon="3.73874">
        <ele>1110.94</ele>
        <time>2013-06-04T08:44:32Z</time>
      </trkpt>
      <trkpt lat="44.35131" lon="3.73857">
        <ele>1109.98</ele>
        <time>2013-06-04T08:44:47Z</time>
      </trkpt>
      <trkpt lat="44.35113" lon="3.73837">
        <ele>1109.98</ele>
        <time>2013-06-04T08:45:04Z</time>
      </trkpt>
      <trkpt lat="44.35108" lon="3.73831">
        <ele>1109.98</ele>
        <time>2013-06-04T08:45:09Z</time>
      </trkpt>
      <trkpt lat="44.35086" lon="3.73811">
        <ele>1109.98</ele>
        <time>2013-06-04T08:45:27Z</time>
      </trkpt>
      <trkpt lat="44.35062" lon="3.73793">
        <ele>1109.02</ele>
        <time>2013-06-04T08:45:47Z</time>
      </trkpt>
      <trkpt lat="44.35043" lon="3.73777">
        <ele>1107.1</ele>
        <time>2013-06-04T08:46:03Z</time>
      </trkpt>
      <trkpt lat="44.35022" lon="3.73764">
        <ele>1106.61</ele>
        <time>2013-06-04T08:46:20Z</time>
      </trkpt>
      <trkpt lat="44.35008" lon="3.7376">
        <ele>1105.65</ele>
        <time>2013-06-04T08:46:31Z</time>
      </trkpt>
      <trkpt lat="44.35002" lon="3.73757">
        <ele>1105.17</ele>
        <time>2013-06-04T08:46:36Z</time>
      </trkpt>
      <trkpt lat="44.3499" lon="3.73747">
        <ele>1105.17</ele>
        <time>2013-06-04T08:46:52Z</time>
      </trkpt>
      <trkpt lat="44.34966" lon="3.73732">
        <ele>1104.69</ele>
        <time>2013-06-04T08:47:12Z</time>
      </trkpt>
      <trkpt lat="44.34935" lon="3.73723">
        <ele>1103.73</ele>
        <time>2013-06-04T08:47:34Z</time>
      </trkpt>
      <trkpt lat="44.34906" lon="3.73709">
        <ele>1103.73</ele>
        <time>2013-06-04T08:47:56Z</time>
      </trkpt>
      <trkpt lat="44.34881" lon="3.73696">
        <ele>1103.73</ele>
        <time>2013-06-04T08:48:16Z</time>
      </trkpt>
      <trkpt lat="44.3486" lon="3.73681">
        <ele>1103.25</ele>
        <time>2013-06-04T08:48:34Z</time>
      </trkpt>
      <trkpt lat="44.3484" lon="3.73682">
        <ele>1105.17</ele>
        <time>2013-06-04T08:48:48Z</time>
      </trkpt>
      <trkpt lat="44.34822" lon="3.73682">
        <ele>1105.17</ele>
        <time>2013-06-04T08:49:01Z</time>
      </trkpt>
      <trkpt lat="44.34817" lon="3.73685">
        <ele>1105.17</ele>
        <time>2013-06-04T08:49:05Z</time>
      </trkpt>
      <trkpt lat="44.3479" lon="3.73684">
        <ele>1105.17</ele>
        <time>2013-06-04T08:49:24Z</time>
      </trkpt>
      <trkpt lat="44.34768" lon="3.73679">
        <ele>1104.69</ele>
        <time>2013-06-04T08:49:40Z</time>
      </trkpt>
      <trkpt lat="44.34746" lon="3.73681">
        <ele>1104.69</ele>
        <time>2013-06-04T08:49:55Z</time>
      </trkpt>
      <trkpt lat="44.34723" lon="3.73678">
        <ele>1104.69</ele>
        <time>2013-06-04T08:50:13Z</time>
      </trkpt>
      <trkpt lat="44.34701" lon="3.73695">
        <ele>1105.17</ele>
        <time>2013-06-04T08:50:31Z</time>
      </trkpt>
      <trkpt lat="44.34682" lon="3.73716">
        <ele>1105.17</ele>
        <time>2013-06-04T08:50:49Z</time>
      </trkpt>
      <trkpt lat="44.34661" lon="3.73741">
        <ele>1105.17</ele>
        <time>2013-06-04T08:51:10Z</time>
      </trkpt>
      <trkpt lat="44.34637" lon="3.73758">
        <ele>1102.77</ele>
        <time>2013-06-04T08:51:30Z</time>
      </trkpt>
      <trkpt lat="44.34614" lon="3.73773">
        <ele>1102.29</ele>
        <time>2013-06-04T08:51:49Z</time>
      </trkpt>
      <trkpt lat="44.34585" lon="3.73768">
        <ele>1101.33</ele>
        <time>2013-06-04T08:52:12Z</time>
      </trkpt>
      <trkpt lat="44.34563" lon="3.73754">
        <ele>1101.33</ele>
        <time>2013-06-04T08:52:30Z</time>
      </trkpt>
      <trkpt lat="44.34552" lon="3.73751">
        <ele>1102.29</ele>
        <time>2013-06-04T08:52:38Z</time>
      </trkpt>
      <trkpt lat="44.3453" lon="3.73747">
        <ele>1105.65</ele>
        <time>2013-06-04T08:52:56Z</time>
      </trkpt>
      <trkpt lat="44.34505" lon="3.73747">
        <ele>1107.1</ele>
        <time>2013-06-04T08:53:15Z</time>
      </trkpt>
      <trkpt lat="44.34479" lon="3.73753">
        <ele>1109.02</ele>
        <time>2013-06-04T08:53:35Z</time>
      </trkpt>
      <trkpt lat="44.34468" lon="3.7376">
        <ele>1109.5</ele>
        <time>2013-06-04T08:53:49Z</time>
      </trkpt>
      <trkpt lat="44.34467" lon="3.7376">
        <ele>1109.02</ele>
        <time>2013-06-04T08:53:50Z</time>
      </trkpt>
      <trkpt lat="44.34464" lon="3.73762">
        <ele>1109.02</ele>
        <time>2013-06-04T08:53:54Z</time>
      </trkpt>
      <trkpt lat="44.34441" lon="3.73776">
        <ele>1109.02</ele>
        <time>2013-06-04T08:54:13Z</time>
      </trkpt>
      <trkpt lat="44.34415" lon="3.73785">
        <ele>1109.02</ele>
        <time>2013-06-04T08:54:33Z</time>
      </trkpt>
      <trkpt lat="44.34389" lon="3.73784">
        <ele>1108.06</ele>
        <time>2013-06-04T08:54:53Z</time>
      </trkpt>
      <trkpt lat="44.34375" lon="3.73783">
        <ele>1107.1</ele>
        <time>2013-06-04T08:55:03Z</time>
      </trkpt>
      <trkpt lat="44.34353" lon="3.73787">
        <ele>1105.65</ele>
        <time>2013-06-04T08:55:20Z</time>
      </trkpt>
      <trkpt lat="44.34328" lon="3.73786">
        <ele>1104.21</ele>
        <time>2013-06-04T08:55:38Z</time>
      </trkpt>
      <trkpt lat="44.34303" lon="3.73779">
        <ele>1102.29</ele>
        <time>2013-06-04T08:55:57Z</time>
      </trkpt>
      <trkpt lat="44.34275" lon="3.73778">
        <ele>1100.37</ele>
        <time>2013-06-04T08:56:17Z</time>
      </trkpt>
      <trkpt lat="44.34263" lon="3.73762">
        <ele>1098.44</ele>
        <time>2013-06-04T08:56:32Z</time>
      </trkpt>
      <trkpt lat="44.34262" lon="3.7376">
        <ele>1097.96</ele>
        <time>2013-06-04T08:56:33Z</time>
      </trkpt>
      <trkpt lat="44.34258" lon="3.73755">
        <ele>1097</ele>
        <time>2013-06-04T08:56:37Z</time>
      </trkpt>
      <trkpt lat="44.34245" lon="3.73744">
        <ele>1096.04</ele>
        <time>2013-06-04T08:56:48Z</time>
      </trkpt>
      <trkpt lat="44.34242" lon="3.73743">
        <ele>1097</ele>
        <time>2013-06-04T08:56:50Z</time>
      </trkpt>
      <trkpt lat="44.34236" lon="3.73746">
        <ele>1097</ele>
        <time>2013-06-04T08:57:02Z</time>
      </trkpt>
      <trkpt lat="44.34236" lon="3.73746">
        <ele>1097</ele>
        <time>2013-06-04T08:57:03Z</time>
      </trkpt>
      <trkpt lat="44.34237" lon="3.73743">
        <ele>1097</ele>
        <time>2013-06-04T08:57:09Z</time>
      </trkpt>
      <trkpt lat="44.3422" lon="3.73758">
        <ele>1097</ele>
        <time>2013-06-04T08:57:26Z</time>
      </trkpt>
      <trkpt lat="44.34202" lon="3.73778">
        <ele>1095.56</ele>
        <time>2013-06-04T08:57:43Z</time>
      </trkpt>
      <trkpt lat="44.34198" lon="3.73805">
        <ele>1093.16</ele>
        <time>2013-06-04T08:57:59Z</time>
      </trkpt>
      <trkpt lat="44.34198" lon="3.73814">
        <ele>1092.68</ele>
        <time>2013-06-04T08:58:04Z</time>
      </trkpt>
      <trkpt lat="44.34196" lon="3.73839">
        <ele>1090.27</ele>
        <time>2013-06-04T08:58:20Z</time>
      </trkpt>
      <trkpt lat="44.34194" lon="3.73846">
        <ele>1089.79</ele>
        <time>2013-06-04T08:58:24Z</time>
      </trkpt>
      <trkpt lat="44.34193" lon="3.73854">
        <ele>1088.83</ele>
        <time>2013-06-04T08:58:28Z</time>
      </trkpt>
      <trkpt lat="44.34186" lon="3.73885">
        <ele>1087.39</ele>
        <time>2013-06-04T08:58:44Z</time>
      </trkpt>
      <trkpt lat="44.34171" lon="3.73915">
        <ele>1085.95</ele>
        <time>2013-06-04T08:59:03Z</time>
      </trkpt>
      <trkpt lat="44.34159" lon="3.73946">
        <ele>1083.54</ele>
        <time>2013-06-04T08:59:21Z</time>
      </trkpt>
      <trkpt lat="44.34142" lon="3.73977">
        <ele>1081.62</ele>
        <time>2013-06-04T08:59:41Z</time>
      </trkpt>
      <trkpt lat="44.34126" lon="3.73999">
        <ele>1078.74</ele>
        <time>2013-06-04T08:59:57Z</time>
      </trkpt>
      <trkpt lat="44.34125" lon="3.74">
        <ele>1078.74</ele>
        <time>2013-06-04T08:59:58Z</time>
      </trkpt>
      <trkpt lat="44.34117" lon="3.74006">
        <ele>1077.78</ele>
        <time>2013-06-04T09:00:04Z</time>
      </trkpt>
      <trkpt lat="44.34108" lon="3.74015">
        <ele>1076.81</ele>
        <time>2013-06-04T09:00:12Z</time>
      </trkpt>
      <trkpt lat="44.34099" lon="3.74027">
        <ele>1075.85</ele>
        <time>2013-06-04T09:00:21Z</time>
      </trkpt>
      <trkpt lat="44.34095" lon="3.74035">
        <ele>1074.89</ele>
        <time>2013-06-04T09:00:27Z</time>
      </trkpt>
      <trkpt lat="44.34092" lon="3.74039">
        <ele>1074.41</ele>
        <time>2013-06-04T09:00:30Z</time>
      </trkpt>
      <trkpt lat="44.34084" lon="3.74057">
        <ele>1072.49</ele>
        <time>2013-06-04T09:00:42Z</time>
      </trkpt>
      <trkpt lat="44.34079" lon="3.74064">
        <ele>1072.49</ele>
        <time>2013-06-04T09:00:52Z</time>
      </trkpt>
      <trkpt lat="44.34068" lon="3.74089">
        <ele>1071.05</ele>
        <time>2013-06-04T09:01:07Z</time>
      </trkpt>
      <trkpt lat="44.34058" lon="3.7411">
        <ele>1069.12</ele>
        <time>2013-06-04T09:01:21Z</time>
      </trkpt>
      <trkpt lat="44.34054" lon="3.74114">
        <ele>1068.64</ele>
        <time>2013-06-04T09:01:33Z</time>
      </trkpt>
      <trkpt lat="44.34054" lon="3.74122">
        <ele>1068.16</ele>
        <time>2013-06-04T09:01:45Z</time>
      </trkpt>
      <trkpt lat="44.34045" lon="3.74136">
        <ele>1065.76</ele>
        <time>2013-06-04T09:01:59Z</time>
      </trkpt>
      <trkpt lat="44.3404" lon="3.74159">
        <ele>1064.32</ele>
        <time>2013-06-04T09:02:11Z</time>
      </trkpt>
      <trkpt lat="44.34039" lon="3.74161">
        <ele>1064.32</ele>
        <time>2013-06-04T09:02:12Z</time>
      </trkpt>
      <trkpt lat="44.34038" lon="3.74179">
        <ele>1063.84</ele>
        <time>2013-06-04T09:02:21Z</time>
      </trkpt>
      <trkpt lat="44.34036" lon="3.74205">
        <ele>1061.43</ele>
        <time>2013-06-04T09:02:37Z</time>
      </trkpt>
      <trkpt lat="44.34037" lon="3.74226">
        <ele>1059.51</ele>
        <time>2013-06-04T09:02:50Z</time>
      </trkpt>
      <trkpt lat="44.34039" lon="3.74212">
        <ele>1056.63</ele>
        <time>2013-06-04T09:03:03Z</time>
      </trkpt>
      <trkpt lat="44.34034" lon="3.74195">
        <ele>1054.7</ele>
        <time>2013-06-04T09:03:14Z</time>
      </trkpt>
      <trkpt lat="44.3403" lon="3.74188">
        <ele>1053.74</ele>
        <time>2013-06-04T09:03:18Z</time>
      </trkpt>
      <trkpt lat="44.34028" lon="3.74186">
        <ele>1053.74</ele>
        <time>2013-06-04T09:03:20Z</time>
      </trkpt>
      <trkpt lat="44.34019" lon="3.74176">
        <ele>1052.3</ele>
        <time>2013-06-04T09:03:28Z</time>
      </trkpt>
      <trkpt lat="44.34" lon="3.74175">
        <ele>1049.9</ele>
        <time>2013-06-04T09:03:42Z</time>
      </trkpt>
      <trkpt lat="44.33991" lon="3.74165">
        <ele>1046.53</ele>
        <time>2013-06-04T09:03:55Z</time>
      </trkpt>
      <trkpt lat="44.33977" lon="3.7415">
        <ele>1044.13</ele>
        <time>2013-06-04T09:04:08Z</time>
      </trkpt>
      <trkpt lat="44.3397" lon="3.74136">
        <ele>1041.73</ele>
        <time>2013-06-04T09:04:17Z</time>
      </trkpt>
      <trkpt lat="44.33955" lon="3.7414">
        <ele>1039.32</ele>
        <time>2013-06-04T09:04:31Z</time>
      </trkpt>
      <trkpt lat="44.33951" lon="3.74146">
        <ele>1037.88</ele>
        <time>2013-06-04T09:04:38Z</time>
      </trkpt>
      <trkpt lat="44.33939" lon="3.7416">
        <ele>1036.92</ele>
        <time>2013-06-04T09:04:53Z</time>
      </trkpt>
      <trkpt lat="44.33936" lon="3.74168">
        <ele>1035.96</ele>
        <time>2013-06-04T09:04:59Z</time>
      </trkpt>
      <trkpt lat="44.33932" lon="3.74183">
        <ele>1034.04</ele>
        <time>2013-06-04T09:05:12Z</time>
      </trkpt>
      <trkpt lat="44.33924" lon="3.74212">
        <ele>1032.59</ele>
        <time>2013-06-04T09:05:27Z</time>
      </trkpt>
      <trkpt lat="44.33922" lon="3.74234">
        <ele>1030.67</ele>
        <time>2013-06-04T09:05:39Z</time>
      </trkpt>
      <trkpt lat="44.33917" lon="3.74257">
        <ele>1028.75</ele>
        <time>2013-06-04T09:05:51Z</time>
      </trkpt>
      <trkpt lat="44.33912" lon="3.74266">
        <ele>1027.79</ele>
        <time>2013-06-04T09:05:59Z</time>
      </trkpt>
      <trkpt lat="44.33898" lon="3.74288">
        <ele>1026.34</ele>
        <time>2013-06-04T09:06:13Z</time>
      </trkpt>
      <trkpt lat="44.33887" lon="3.74304">
        <ele>1025.86</ele>
        <time>2013-06-04T09:06:25Z</time>
      </trkpt>
      <trkpt lat="44.33883" lon="3.74303">
        <ele>1025.38</ele>
        <time>2013-06-04T09:06:29Z</time>
      </trkpt>
      <trkpt lat="44.33866" lon="3.74302">
        <ele>1023.94</ele>
        <time>2013-06-04T09:06:43Z</time>
      </trkpt>
      <trkpt lat="44.33848" lon="3.74313">
        <ele>1021.06</ele>
        <time>2013-06-04T09:06:56Z</time>
      </trkpt>
      <trkpt lat="44.33837" lon="3.74322">
        <ele>1019.62</ele>
        <time>2013-06-04T09:07:05Z</time>
      </trkpt>
      <trkpt lat="44.33834" lon="3.74323">
        <ele>1018.65</ele>
        <time>2013-06-04T09:07:07Z</time>
      </trkpt>
      <trkpt lat="44.33822" lon="3.74316">
        <ele>1016.25</ele>
        <time>2013-06-04T09:07:19Z</time>
      </trkpt>
      <trkpt lat="44.3382" lon="3.74317">
        <ele>1015.77</ele>
        <time>2013-06-04T09:07:21Z</time>
      </trkpt>
      <trkpt lat="44.3381" lon="3.74335">
        <ele>1015.29</ele>
        <time>2013-06-04T09:07:34Z</time>
      </trkpt>
      <trkpt lat="44.33806" lon="3.74357">
        <ele>1013.85</ele>
        <time>2013-06-04T09:07:47Z</time>
      </trkpt>
      <trkpt lat="44.338" lon="3.74382">
        <ele>1011.93</ele>
        <time>2013-06-04T09:07:59Z</time>
      </trkpt>
      <trkpt lat="44.33792" lon="3.74405">
        <ele>1009.04</ele>
        <time>2013-06-04T09:08:13Z</time>
      </trkpt>
      <trkpt lat="44.33789" lon="3.74417">
        <ele>1007.6</ele>
        <time>2013-06-04T09:08:28Z</time>
      </trkpt>
      <trkpt lat="44.33791" lon="3.74421">
        <ele>1007.6</ele>
        <time>2013-06-04T09:08:47Z</time>
      </trkpt>
      <trkpt lat="44.33792" lon="3.74421">
        <ele>1007.6</ele>
        <time>2013-06-04T09:09:09Z</time>
      </trkpt>
      <trkpt lat="44.33795" lon="3.74425">
        <ele>1007.6</ele>
        <time>2013-06-04T09:09:31Z</time>
      </trkpt>
      <trkpt lat="44.33794" lon="3.74422">
        <ele>1007.6</ele>
        <time>2013-06-04T09:09:58Z</time>
      </trkpt>
      <trkpt lat="44.33785" lon="3.74429">
        <ele>1006.16</ele>
        <time>2013-06-04T09:10:16Z</time>
      </trkpt>
      <trkpt lat="44.33773" lon="3.74449">
        <ele>1005.68</ele>
        <time>2013-06-04T09:10:31Z</time>
      </trkpt>
      <trkpt lat="44.33771" lon="3.74454">
        <ele>1005.68</ele>
        <time>2013-06-04T09:10:35Z</time>
      </trkpt>
      <trkpt lat="44.33776" lon="3.74456">
        <ele>1005.68</ele>
        <time>2013-06-04T09:10:39Z</time>
      </trkpt>
      <trkpt lat="44.33798" lon="3.74462">
        <ele>1004.23</ele>
        <time>2013-06-04T09:10:56Z</time>
      </trkpt>
      <trkpt lat="44.33816" lon="3.74452">
        <ele>1002.79</ele>
        <time>2013-06-04T09:11:13Z</time>
      </trkpt>
      <trkpt lat="44.3382" lon="3.74448">
        <ele>1002.79</ele>
        <time>2013-06-04T09:11:18Z</time>
      </trkpt>
      <trkpt lat="44.33839" lon="3.74446">
        <ele>1001.83</ele>
        <time>2013-06-04T09:11:35Z</time>
      </trkpt>
      <trkpt lat="44.33851" lon="3.74447">
        <ele>1001.35</ele>
        <time>2013-06-04T09:11:45Z</time>
      </trkpt>
      <trkpt lat="44.33865" lon="3.74453">
        <ele>1000.87</ele>
        <time>2013-06-04T09:12:01Z</time>
      </trkpt>
      <trkpt lat="44.33871" lon="3.7445">
        <ele>1000.87</ele>
        <time>2013-06-04T09:12:11Z</time>
      </trkpt>
      <trkpt lat="44.33889" lon="3.74444">
        <ele>1000.87</ele>
        <time>2013-06-04T09:12:26Z</time>
      </trkpt>
      <trkpt lat="44.33904" lon="3.74431">
        <ele>1001.35</ele>
        <time>2013-06-04T09:12:40Z</time>
      </trkpt>
      <trkpt lat="44.33908" lon="3.74429">
        <ele>1001.35</ele>
        <time>2013-06-04T09:12:44Z</time>
      </trkpt>
      <trkpt lat="44.33915" lon="3.7443">
        <ele>1001.35</ele>
        <time>2013-06-04T09:12:48Z</time>
      </trkpt>
      <trkpt lat="44.33926" lon="3.74433">
        <ele>1000.87</ele>
        <time>2013-06-04T09:13:02Z</time>
      </trkpt>
      <trkpt lat="44.33942" lon="3.74438">
        <ele>1000.87</ele>
        <time>2013-06-04T09:13:18Z</time>
      </trkpt>
      <trkpt lat="44.33949" lon="3.74453">
        <ele>1000.87</ele>
        <time>2013-06-04T09:13:34Z</time>
      </trkpt>
      <trkpt lat="44.3395" lon="3.74476">
        <ele>1000.87</ele>
        <time>2013-06-04T09:13:49Z</time>
      </trkpt>
      <trkpt lat="44.3395" lon="3.74479">
        <ele>1000.87</ele>
        <time>2013-06-04T09:13:51Z</time>
      </trkpt>
      <trkpt lat="44.33952" lon="3.74503">
        <ele>1000.87</ele>
        <time>2013-06-04T09:14:05Z</time>
      </trkpt>
      <trkpt lat="44.33953" lon="3.74532">
        <ele>1000.87</ele>
        <time>2013-06-04T09:14:20Z</time>
      </trkpt>
      <trkpt lat="44.3395" lon="3.74556">
        <ele>998.47</ele>
        <time>2013-06-04T09:14:34Z</time>
      </trkpt>
      <trkpt lat="44.3395" lon="3.74557">
        <ele>1001.83</ele>
        <time>2013-06-04T09:14:35Z</time>
      </trkpt>
      <trkpt lat="44.33946" lon="3.74601">
        <ele>999.43</ele>
        <time>2013-06-04T09:14:49Z</time>
      </trkpt>
      <trkpt lat="44.33939" lon="3.74626">
        <ele>999.43</ele>
        <time>2013-06-04T09:15:05Z</time>
      </trkpt>
      <trkpt lat="44.33935" lon="3.74644">
        <ele>999.43</ele>
        <time>2013-06-04T09:15:16Z</time>
      </trkpt>
      <trkpt lat="44.3393" lon="3.74657">
        <ele>998.95</ele>
        <time>2013-06-04T09:15:26Z</time>
      </trkpt>
      <trkpt lat="44.3393" lon="3.74677">
        <ele>998.95</ele>
        <time>2013-06-04T09:15:40Z</time>
      </trkpt>
      <trkpt lat="44.33931" lon="3.74682">
        <ele>998.95</ele>
        <time>2013-06-04T09:15:42Z</time>
      </trkpt>
      <trkpt lat="44.33934" lon="3.74709">
        <ele>998.47</ele>
        <time>2013-06-04T09:15:57Z</time>
      </trkpt>
      <trkpt lat="44.33934" lon="3.74712">
        <ele>997.99</ele>
        <time>2013-06-04T09:15:59Z</time>
      </trkpt>
      <trkpt lat="44.33935" lon="3.74724">
        <ele>997.99</ele>
        <time>2013-06-04T09:16:03Z</time>
      </trkpt>
      <trkpt lat="44.3393" lon="3.74755">
        <ele>997.02</ele>
        <time>2013-06-04T09:16:20Z</time>
      </trkpt>
      <trkpt lat="44.33926" lon="3.74781">
        <ele>997.02</ele>
        <time>2013-06-04T09:16:33Z</time>
      </trkpt>
      <trkpt lat="44.33924" lon="3.74792">
        <ele>997.02</ele>
        <time>2013-06-04T09:16:40Z</time>
      </trkpt>
      <trkpt lat="44.33924" lon="3.74805">
        <ele>997.99</ele>
        <time>2013-06-04T09:16:47Z</time>
      </trkpt>
      <trkpt lat="44.33923" lon="3.74816">
        <ele>998.95</ele>
        <time>2013-06-04T09:16:54Z</time>
      </trkpt>
      <trkpt lat="44.33919" lon="3.74835">
        <ele>1001.35</ele>
        <time>2013-06-04T09:17:11Z</time>
      </trkpt>
      <trkpt lat="44.33916" lon="3.74854">
        <ele>1004.23</ele>
        <time>2013-06-04T09:17:26Z</time>
      </trkpt>
      <trkpt lat="44.33916" lon="3.74875">
        <ele>1006.16</ele>
        <time>2013-06-04T09:17:39Z</time>
      </trkpt>
      <trkpt lat="44.33914" lon="3.74894">
        <ele>1007.12</ele>
        <time>2013-06-04T09:17:51Z</time>
      </trkpt>
      <trkpt lat="44.3391" lon="3.74912">
        <ele>1009.04</ele>
        <time>2013-06-04T09:18:03Z</time>
      </trkpt>
      <trkpt lat="44.33891" lon="3.74936">
        <ele>1011.44</ele>
        <time>2013-06-04T09:18:23Z</time>
      </trkpt>
      <trkpt lat="44.3388" lon="3.74942">
        <ele>1012.89</ele>
        <time>2013-06-04T09:18:31Z</time>
      </trkpt>
      <trkpt lat="44.33863" lon="3.74954">
        <ele>1016.25</ele>
        <time>2013-06-04T09:18:47Z</time>
      </trkpt>
      <trkpt lat="44.33849" lon="3.74959">
        <ele>1017.69</ele>
        <time>2013-06-04T09:18:58Z</time>
      </trkpt>
      <trkpt lat="44.33831" lon="3.74959">
        <ele>1019.62</ele>
        <time>2013-06-04T09:19:13Z</time>
      </trkpt>
      <trkpt lat="44.33827" lon="3.74957">
        <ele>1020.1</ele>
        <time>2013-06-04T09:19:17Z</time>
      </trkpt>
      <trkpt lat="44.33825" lon="3.74956">
        <ele>1020.58</ele>
        <time>2013-06-04T09:19:19Z</time>
      </trkpt>
      <trkpt lat="44.3381" lon="3.74949">
        <ele>1022.02</ele>
        <time>2013-06-04T09:19:33Z</time>
      </trkpt>
      <trkpt lat="44.33804" lon="3.7495">
        <ele>1022.5</ele>
        <time>2013-06-04T09:19:39Z</time>
      </trkpt>
      <trkpt lat="44.33788" lon="3.7496">
        <ele>1025.38</ele>
        <time>2013-06-04T09:19:55Z</time>
      </trkpt>
      <trkpt lat="44.33774" lon="3.74966">
        <ele>1027.31</ele>
        <time>2013-06-04T09:20:08Z</time>
      </trkpt>
      <trkpt lat="44.33766" lon="3.74969">
        <ele>1028.27</ele>
        <time>2013-06-04T09:20:14Z</time>
      </trkpt>
      <trkpt lat="44.33744" lon="3.74977">
        <ele>1031.15</ele>
        <time>2013-06-04T09:20:30Z</time>
      </trkpt>
      <trkpt lat="44.33725" lon="3.74985">
        <ele>1033.07</ele>
        <time>2013-06-04T09:20:43Z</time>
      </trkpt>
      <trkpt lat="44.33706" lon="3.74988">
        <ele>1035.96</ele>
        <time>2013-06-04T09:20:58Z</time>
      </trkpt>
      <trkpt lat="44.33692" lon="3.74991">
        <ele>1037.4</ele>
        <time>2013-06-04T09:21:11Z</time>
      </trkpt>
      <trkpt lat="44.33673" lon="3.75001">
        <ele>1039.8</ele>
        <time>2013-06-04T09:21:25Z</time>
      </trkpt>
      <trkpt lat="44.3366" lon="3.75009">
        <ele>1042.21</ele>
        <time>2013-06-04T09:21:37Z</time>
      </trkpt>
      <trkpt lat="44.33643" lon="3.7502">
        <ele>1045.09</ele>
        <time>2013-06-04T09:21:52Z</time>
      </trkpt>
      <trkpt lat="44.33627" lon="3.75035">
        <ele>1048.45</ele>
        <time>2013-06-04T09:22:08Z</time>
      </trkpt>
      <trkpt lat="44.33609" lon="3.75048">
        <ele>1051.34</ele>
        <time>2013-06-04T09:22:26Z</time>
      </trkpt>
      <trkpt lat="44.33592" lon="3.7506">
        <ele>1053.26</ele>
        <time>2013-06-04T09:22:41Z</time>
      </trkpt>
      <trkpt lat="44.33575" lon="3.7507">
        <ele>1056.15</ele>
        <time>2013-06-04T09:22:54Z</time>
      </trkpt>
      <trkpt lat="44.33568" lon="3.75076">
        <ele>1056.63</ele>
        <time>2013-06-04T09:23:01Z</time>
      </trkpt>
      <trkpt lat="44.33555" lon="3.75089">
        <ele>1059.99</ele>
        <time>2013-06-04T09:23:17Z</time>
      </trkpt>
      <trkpt lat="44.33534" lon="3.75101">
        <ele>1062.39</ele>
        <time>2013-06-04T09:23:35Z</time>
      </trkpt>
      <trkpt lat="44.33519" lon="3.75109">
        <ele>1064.32</ele>
        <time>2013-06-04T09:23:50Z</time>
      </trkpt>
      <trkpt lat="44.33505" lon="3.75118">
        <ele>1067.2</ele>
        <time>2013-06-04T09:24:04Z</time>
      </trkpt>
      <trkpt lat="44.33486" lon="3.75132">
        <ele>1070.08</ele>
        <time>2013-06-04T09:24:19Z</time>
      </trkpt>
      <trkpt lat="44.33469" lon="3.75146">
        <ele>1072.49</ele>
        <time>2013-06-04T09:24:33Z</time>
      </trkpt>
      <trkpt lat="44.33446" lon="3.75167">
        <ele>1074.89</ele>
        <time>2013-06-04T09:24:47Z</time>
      </trkpt>
      <trkpt lat="44.33434" lon="3.75173">
        <ele>1076.33</ele>
        <time>2013-06-04T09:25:01Z</time>
      </trkpt>
      <trkpt lat="44.33432" lon="3.75175">
        <ele>1076.33</ele>
        <time>2013-06-04T09:25:03Z</time>
      </trkpt>
      <trkpt lat="44.33417" lon="3.75188">
        <ele>1078.74</ele>
        <time>2013-06-04T09:25:17Z</time>
      </trkpt>
      <trkpt lat="44.3341" lon="3.75192">
        <ele>1079.22</ele>
        <time>2013-06-04T09:25:22Z</time>
      </trkpt>
      <trkpt lat="44.33408" lon="3.75195">
        <ele>1079.22</ele>
        <time>2013-06-04T09:25:24Z</time>
      </trkpt>
      <trkpt lat="44.33394" lon="3.75214">
        <ele>1081.62</ele>
        <time>2013-06-04T09:25:40Z</time>
      </trkpt>
      <trkpt lat="44.33374" lon="3.75233">
        <ele>1083.06</ele>
        <time>2013-06-04T09:25:57Z</time>
      </trkpt>
      <trkpt lat="44.33361" lon="3.75254">
        <ele>1084.02</ele>
        <time>2013-06-04T09:26:12Z</time>
      </trkpt>
      <trkpt lat="44.33349" lon="3.75267">
        <ele>1084.5</ele>
        <time>2013-06-04T09:26:25Z</time>
      </trkpt>
      <trkpt lat="44.33339" lon="3.75281">
        <ele>1084.99</ele>
        <time>2013-06-04T09:26:33Z</time>
      </trkpt>
      <trkpt lat="44.33332" lon="3.753">
        <ele>1085.47</ele>
        <time>2013-06-04T09:26:44Z</time>
      </trkpt>
      <trkpt lat="44.33316" lon="3.75316">
        <ele>1085.47</ele>
        <time>2013-06-04T09:27:01Z</time>
      </trkpt>
      <trkpt lat="44.33303" lon="3.75328">
        <ele>1085.47</ele>
        <time>2013-06-04T09:27:17Z</time>
      </trkpt>
      <trkpt lat="44.33286" lon="3.75339">
        <ele>1085.95</ele>
        <time>2013-06-04T09:27:32Z</time>
      </trkpt>
      <trkpt lat="44.33263" lon="3.75345">
        <ele>1087.87</ele>
        <time>2013-06-04T09:27:48Z</time>
      </trkpt>
      <trkpt lat="44.33227" lon="3.75352">
        <ele>1089.31</ele>
        <time>2013-06-04T09:28:10Z</time>
      </trkpt>
      <trkpt lat="44.33203" lon="3.75367">
        <ele>1090.27</ele>
        <time>2013-06-04T09:28:29Z</time>
      </trkpt>
      <trkpt lat="44.33183" lon="3.75371">
        <ele>1091.23</ele>
        <time>2013-06-04T09:28:43Z</time>
      </trkpt>
      <trkpt lat="44.3318" lon="3.75372">
        <ele>1092.2</ele>
        <time>2013-06-04T09:28:45Z</time>
      </trkpt>
      <trkpt lat="44.33159" lon="3.75382">
        <ele>1094.12</ele>
        <time>2013-06-04T09:29:02Z</time>
      </trkpt>
      <trkpt lat="44.3315" lon="3.75392">
        <ele>1096.04</ele>
        <time>2013-06-04T09:29:13Z</time>
      </trkpt>
      <trkpt lat="44.3315" lon="3.75392">
        <ele>1096.04</ele>
        <time>2013-06-04T09:29:27Z</time>
      </trkpt>
      <trkpt lat="44.33152" lon="3.7539">
        <ele>1096.04</ele>
        <time>2013-06-04T09:29:51Z</time>
      </trkpt>
      <trkpt lat="44.33143" lon="3.75401">
        <ele>1096.04</ele>
        <time>2013-06-04T09:30:09Z</time>
      </trkpt>
      <trkpt lat="44.33139" lon="3.75403">
        <ele>1096.04</ele>
        <time>2013-06-04T09:30:25Z</time>
      </trkpt>
      <trkpt lat="44.33137" lon="3.75407">
        <ele>1095.56</ele>
        <time>2013-06-04T09:30:47Z</time>
      </trkpt>
      <trkpt lat="44.33136" lon="3.75406">
        <ele>1096.04</ele>
        <time>2013-06-04T09:31:17Z</time>
      </trkpt>
      <trkpt lat="44.33134" lon="3.75405">
        <ele>1096.04</ele>
        <time>2013-06-04T09:31:50Z</time>
      </trkpt>
      <trkpt lat="44.33136" lon="3.75404">
        <ele>1095.56</ele>
        <time>2013-06-04T09:32:16Z</time>
      </trkpt>
      <trkpt lat="44.33139" lon="3.75405">
        <ele>1095.56</ele>
        <time>2013-06-04T09:32:51Z</time>
      </trkpt>
      <trkpt lat="44.33135" lon="3.75404">
        <ele>1095.56</ele>
        <time>2013-06-04T09:33:26Z</time>
      </trkpt>
      <trkpt lat="44.33134" lon="3.75407">
        <ele>1095.56</ele>
        <time>2013-06-04T09:33:45Z</time>
      </trkpt>
      <trkpt lat="44.33137" lon="3.75405">
        <ele>1095.56</ele>
        <time>2013-06-04T09:34:09Z</time>
      </trkpt>
      <trkpt lat="44.33132" lon="3.75406">
        <ele>1095.08</ele>
        <time>2013-06-04T09:34:26Z</time>
      </trkpt>
      <trkpt lat="44.33131" lon="3.75409">
        <ele>1095.56</ele>
        <time>2013-06-04T09:34:45Z</time>
      </trkpt>
      <trkpt lat="44.33128" lon="3.7541">
        <ele>1095.56</ele>
        <time>2013-06-04T09:35:11Z</time>
      </trkpt>
      <trkpt lat="44.33115" lon="3.75419">
        <ele>1097.96</ele>
        <time>2013-06-04T09:35:25Z</time>
      </trkpt>
      <trkpt lat="44.33114" lon="3.7542">
        <ele>1097.96</ele>
        <time>2013-06-04T09:35:26Z</time>
      </trkpt>
      <trkpt lat="44.33098" lon="3.75432">
        <ele>1101.81</ele>
        <time>2013-06-04T09:35:43Z</time>
      </trkpt>
      <trkpt lat="44.33085" lon="3.75434">
        <ele>1102.77</ele>
        <time>2013-06-04T09:35:53Z</time>
      </trkpt>
      <trkpt lat="44.33067" lon="3.75432">
        <ele>1105.65</ele>
        <time>2013-06-04T09:36:11Z</time>
      </trkpt>
      <trkpt lat="44.33051" lon="3.7543">
        <ele>1109.02</ele>
        <time>2013-06-04T09:36:26Z</time>
      </trkpt>
      <trkpt lat="44.33045" lon="3.75429">
        <ele>1110.46</ele>
        <time>2013-06-04T09:36:32Z</time>
      </trkpt>
      <trkpt lat="44.33032" lon="3.75429">
        <ele>1111.9</ele>
        <time>2013-06-04T09:36:46Z</time>
      </trkpt>
      <trkpt lat="44.33018" lon="3.75426">
        <ele>1115.27</ele>
        <time>2013-06-04T09:36:59Z</time>
      </trkpt>
      <trkpt lat="44.33007" lon="3.75419">
        <ele>1118.15</ele>
        <time>2013-06-04T09:37:13Z</time>
      </trkpt>
      <trkpt lat="44.32992" lon="3.7541">
        <ele>1121.03</ele>
        <time>2013-06-04T09:37:27Z</time>
      </trkpt>
      <trkpt lat="44.3298" lon="3.75402">
        <ele>1123.92</ele>
        <time>2013-06-04T09:37:40Z</time>
      </trkpt>
      <trkpt lat="44.32967" lon="3.75395">
        <ele>1126.8</ele>
        <time>2013-06-04T09:37:55Z</time>
      </trkpt>
      <trkpt lat="44.32959" lon="3.75383">
        <ele>1129.69</ele>
        <time>2013-06-04T09:38:09Z</time>
      </trkpt>
      <trkpt lat="44.32955" lon="3.75374">
        <ele>1131.13</ele>
        <time>2013-06-04T09:38:16Z</time>
      </trkpt>
      <trkpt lat="44.32951" lon="3.75368">
        <ele>1132.09</ele>
        <time>2013-06-04T09:38:21Z</time>
      </trkpt>
      <trkpt lat="44.32948" lon="3.75357">
        <ele>1133.53</ele>
        <time>2013-06-04T09:38:29Z</time>
      </trkpt>
      <trkpt lat="44.32944" lon="3.75335">
        <ele>1135.45</ele>
        <time>2013-06-04T09:38:44Z</time>
      </trkpt>
      <trkpt lat="44.32933" lon="3.75306">
        <ele>1136.42</ele>
        <time>2013-06-04T09:39:02Z</time>
      </trkpt>
      <trkpt lat="44.32922" lon="3.75285">
        <ele>1138.34</ele>
        <time>2013-06-04T09:39:17Z</time>
      </trkpt>
      <trkpt lat="44.3291" lon="3.75268">
        <ele>1139.3</ele>
        <time>2013-06-04T09:39:28Z</time>
      </trkpt>
      <trkpt lat="44.32881" lon="3.75249">
        <ele>1139.78</ele>
        <time>2013-06-04T09:39:44Z</time>
      </trkpt>
      <trkpt lat="44.32864" lon="3.75239">
        <ele>1139.78</ele>
        <time>2013-06-04T09:39:57Z</time>
      </trkpt>
      <trkpt lat="44.3284" lon="3.7523">
        <ele>1139.78</ele>
        <time>2013-06-04T09:40:11Z</time>
      </trkpt>
      <trkpt lat="44.32823" lon="3.75226">
        <ele>1139.78</ele>
        <time>2013-06-04T09:40:26Z</time>
      </trkpt>
      <trkpt lat="44.32809" lon="3.75224">
        <ele>1139.78</ele>
        <time>2013-06-04T09:40:38Z</time>
      </trkpt>
      <trkpt lat="44.32788" lon="3.75224">
        <ele>1139.78</ele>
        <time>2013-06-04T09:40:52Z</time>
      </trkpt>
      <trkpt lat="44.32764" lon="3.75218">
        <ele>1139.78</ele>
        <time>2013-06-04T09:41:08Z</time>
      </trkpt>
      <trkpt lat="44.32749" lon="3.7521">
        <ele>1140.74</ele>
        <time>2013-06-04T09:41:24Z</time>
      </trkpt>
      <trkpt lat="44.32739" lon="3.75201">
        <ele>1141.22</ele>
        <time>2013-06-04T09:41:38Z</time>
      </trkpt>
      <trkpt lat="44.32731" lon="3.75185">
        <ele>1142.66</ele>
        <time>2013-06-04T09:41:49Z</time>
      </trkpt>
      <trkpt lat="44.32727" lon="3.75173">
        <ele>1142.66</ele>
        <time>2013-06-04T09:41:56Z</time>
      </trkpt>
      <trkpt lat="44.32727" lon="3.75168">
        <ele>1142.66</ele>
        <time>2013-06-04T09:41:59Z</time>
      </trkpt>
      <trkpt lat="44.32721" lon="3.75153">
        <ele>1143.14</ele>
        <time>2013-06-04T09:42:08Z</time>
      </trkpt>
      <trkpt lat="44.32705" lon="3.75124">
        <ele>1145.07</ele>
        <time>2013-06-04T09:42:23Z</time>
      </trkpt>
      <trkpt lat="44.32691" lon="3.75102">
        <ele>1146.51</ele>
        <time>2013-06-04T09:42:38Z</time>
      </trkpt>
      <trkpt lat="44.3268" lon="3.75081">
        <ele>1148.43</ele>
        <time>2013-06-04T09:42:53Z</time>
      </trkpt>
      <trkpt lat="44.32665" lon="3.7506">
        <ele>1150.35</ele>
        <time>2013-06-04T09:43:08Z</time>
      </trkpt>
      <trkpt lat="44.32651" lon="3.75041">
        <ele>1151.8</ele>
        <time>2013-06-04T09:43:24Z</time>
      </trkpt>
      <trkpt lat="44.3263" lon="3.75018">
        <ele>1153.24</ele>
        <time>2013-06-04T09:43:42Z</time>
      </trkpt>
      <trkpt lat="44.32622" lon="3.75006">
        <ele>1154.68</ele>
        <time>2013-06-04T09:43:56Z</time>
      </trkpt>
      <trkpt lat="44.32598" lon="3.74985">
        <ele>1156.6</ele>
        <time>2013-06-04T09:44:12Z</time>
      </trkpt>
      <trkpt lat="44.32583" lon="3.74967">
        <ele>1158.53</ele>
        <time>2013-06-04T09:44:28Z</time>
      </trkpt>
      <trkpt lat="44.32575" lon="3.7495">
        <ele>1159.97</ele>
        <time>2013-06-04T09:44:41Z</time>
      </trkpt>
      <trkpt lat="44.32552" lon="3.74926">
        <ele>1161.89</ele>
        <time>2013-06-04T09:44:58Z</time>
      </trkpt>
      <trkpt lat="44.32539" lon="3.74907">
        <ele>1163.81</ele>
        <time>2013-06-04T09:45:14Z</time>
      </trkpt>
      <trkpt lat="44.32525" lon="3.74893">
        <ele>1165.26</ele>
        <time>2013-06-04T09:45:32Z</time>
      </trkpt>
      <trkpt lat="44.32506" lon="3.74881">
        <ele>1167.18</ele>
        <time>2013-06-04T09:45:47Z</time>
      </trkpt>
      <trkpt lat="44.32493" lon="3.74867">
        <ele>1169.58</ele>
        <time>2013-06-04T09:46:04Z</time>
      </trkpt>
      <trkpt lat="44.32475" lon="3.7485">
        <ele>1171.98</ele>
        <time>2013-06-04T09:46:21Z</time>
      </trkpt>
      <trkpt lat="44.32459" lon="3.74832">
        <ele>1173.91</ele>
        <time>2013-06-04T09:46:36Z</time>
      </trkpt>
      <trkpt lat="44.32448" lon="3.74812">
        <ele>1176.79</ele>
        <time>2013-06-04T09:46:54Z</time>
      </trkpt>
      <trkpt lat="44.32426" lon="3.74791">
        <ele>1179.19</ele>
        <time>2013-06-04T09:47:11Z</time>
      </trkpt>
      <trkpt lat="44.32406" lon="3.74774">
        <ele>1182.56</ele>
        <time>2013-06-04T09:47:28Z</time>
      </trkpt>
      <trkpt lat="44.32383" lon="3.74757">
        <ele>1185.92</ele>
        <time>2013-06-04T09:47:46Z</time>
      </trkpt>
      <trkpt lat="44.32361" lon="3.74742">
        <ele>1189.29</ele>
        <time>2013-06-04T09:48:04Z</time>
      </trkpt>
      <trkpt lat="44.32341" lon="3.74731">
        <ele>1192.17</ele>
        <time>2013-06-04T09:48:20Z</time>
      </trkpt>
      <trkpt lat="44.32324" lon="3.74723">
        <ele>1194.09</ele>
        <time>2013-06-04T09:48:36Z</time>
      </trkpt>
      <trkpt lat="44.323" lon="3.74722">
        <ele>1196.98</ele>
        <time>2013-06-04T09:48:53Z</time>
      </trkpt>
      <trkpt lat="44.32279" lon="3.74729">
        <ele>1199.38</ele>
        <time>2013-06-04T09:49:09Z</time>
      </trkpt>
      <trkpt lat="44.32264" lon="3.7473">
        <ele>1200.82</ele>
        <time>2013-06-04T09:49:22Z</time>
      </trkpt>
      <trkpt lat="44.32241" lon="3.74732">
        <ele>1203.23</ele>
        <time>2013-06-04T09:49:38Z</time>
      </trkpt>
      <trkpt lat="44.32222" lon="3.74739">
        <ele>1205.15</ele>
        <time>2013-06-04T09:49:53Z</time>
      </trkpt>
      <trkpt lat="44.32207" lon="3.74752">
        <ele>1206.59</ele>
        <time>2013-06-04T09:50:06Z</time>
      </trkpt>
      <trkpt lat="44.32189" lon="3.7476">
        <ele>1209.48</ele>
        <time>2013-06-04T09:50:21Z</time>
      </trkpt>
      <trkpt lat="44.32171" lon="3.74774">
        <ele>1212.36</ele>
        <time>2013-06-04T09:50:37Z</time>
      </trkpt>
      <trkpt lat="44.32151" lon="3.74799">
        <ele>1213.8</ele>
        <time>2013-06-04T09:50:53Z</time>
      </trkpt>
      <trkpt lat="44.32149" lon="3.74804">
        <ele>1214.28</ele>
        <time>2013-06-04T09:50:56Z</time>
      </trkpt>
      <trkpt lat="44.32148" lon="3.74807">
        <ele>1214.76</ele>
        <time>2013-06-04T09:50:58Z</time>
      </trkpt>
      <trkpt lat="44.32137" lon="3.74821">
        <ele>1216.21</ele>
        <time>2013-06-04T09:51:10Z</time>
      </trkpt>
      <trkpt lat="44.32126" lon="3.74833">
        <ele>1218.13</ele>
        <time>2013-06-04T09:51:22Z</time>
      </trkpt>
      <trkpt lat="44.32116" lon="3.74848">
        <ele>1221.01</ele>
        <time>2013-06-04T09:51:35Z</time>
      </trkpt>
      <trkpt lat="44.32103" lon="3.74863">
        <ele>1223.42</ele>
        <time>2013-06-04T09:51:49Z</time>
      </trkpt>
      <trkpt lat="44.32092" lon="3.74876">
        <ele>1226.3</ele>
        <time>2013-06-04T09:52:04Z</time>
      </trkpt>
      <trkpt lat="44.32081" lon="3.74882">
        <ele>1229.18</ele>
        <time>2013-06-04T09:52:18Z</time>
      </trkpt>
      <trkpt lat="44.32068" lon="3.74897">
        <ele>1232.07</ele>
        <time>2013-06-04T09:52:33Z</time>
      </trkpt>
      <trkpt lat="44.32058" lon="3.7491">
        <ele>1235.43</ele>
        <time>2013-06-04T09:52:48Z</time>
      </trkpt>
      <trkpt lat="44.32052" lon="3.74919">
        <ele>1236.87</ele>
        <time>2013-06-04T09:52:57Z</time>
      </trkpt>
      <trkpt lat="44.32035" lon="3.74929">
        <ele>1239.76</ele>
        <time>2013-06-04T09:53:12Z</time>
      </trkpt>
      <trkpt lat="44.32025" lon="3.74926">
        <ele>1242.64</ele>
        <time>2013-06-04T09:53:24Z</time>
      </trkpt>
      <trkpt lat="44.32008" lon="3.74921">
        <ele>1245.53</ele>
        <time>2013-06-04T09:53:38Z</time>
      </trkpt>
      <trkpt lat="44.31997" lon="3.74915">
        <ele>1247.93</ele>
        <time>2013-06-04T09:53:52Z</time>
      </trkpt>
      <trkpt lat="44.31983" lon="3.749">
        <ele>1250.33</ele>
        <time>2013-06-04T09:54:09Z</time>
      </trkpt>
      <trkpt lat="44.31983" lon="3.74899">
        <ele>1250.33</ele>
        <time>2013-06-04T09:54:10Z</time>
      </trkpt>
      <trkpt lat="44.31976" lon="3.74886">
        <ele>1250.81</ele>
        <time>2013-06-04T09:54:19Z</time>
      </trkpt>
      <trkpt lat="44.31954" lon="3.7487">
        <ele>1251.29</ele>
        <time>2013-06-04T09:54:34Z</time>
      </trkpt>
      <trkpt lat="44.31939" lon="3.74856">
        <ele>1251.29</ele>
        <time>2013-06-04T09:54:50Z</time>
      </trkpt>
      <trkpt lat="44.31922" lon="3.74842">
        <ele>1252.74</ele>
        <time>2013-06-04T09:55:06Z</time>
      </trkpt>
      <trkpt lat="44.3191" lon="3.74818">
        <ele>1254.18</ele>
        <time>2013-06-04T09:55:20Z</time>
      </trkpt>
      <trkpt lat="44.31904" lon="3.74804">
        <ele>1257.06</ele>
        <time>2013-06-04T09:55:33Z</time>
      </trkpt>
      <trkpt lat="44.31886" lon="3.74785">
        <ele>1259.94</ele>
        <time>2013-06-04T09:55:49Z</time>
      </trkpt>
      <trkpt lat="44.31874" lon="3.74767">
        <ele>1262.83</ele>
        <time>2013-06-04T09:56:04Z</time>
      </trkpt>
      <trkpt lat="44.31859" lon="3.7475">
        <ele>1264.75</ele>
        <time>2013-06-04T09:56:19Z</time>
      </trkpt>
      <trkpt lat="44.31846" lon="3.74738">
        <ele>1267.16</ele>
        <time>2013-06-04T09:56:31Z</time>
      </trkpt>
      <trkpt lat="44.31834" lon="3.74721">
        <ele>1270.52</ele>
        <time>2013-06-04T09:56:47Z</time>
      </trkpt>
      <trkpt lat="44.31823" lon="3.74706">
        <ele>1273.4</ele>
        <time>2013-06-04T09:57:02Z</time>
      </trkpt>
      <trkpt lat="44.31807" lon="3.74695">
        <ele>1276.77</ele>
        <time>2013-06-04T09:57:15Z</time>
      </trkpt>
      <trkpt lat="44.31793" lon="3.7469">
        <ele>1279.17</ele>
        <time>2013-06-04T09:57:28Z</time>
      </trkpt>
      <trkpt lat="44.31784" lon="3.74685">
        <ele>1282.06</ele>
        <time>2013-06-04T09:57:38Z</time>
      </trkpt>
      <trkpt lat="44.31772" lon="3.74678">
        <ele>1285.42</ele>
        <time>2013-06-04T09:57:51Z</time>
      </trkpt>
      <trkpt lat="44.31761" lon="3.74667">
        <ele>1287.82</ele>
        <time>2013-06-04T09:58:05Z</time>
      </trkpt>
      <trkpt lat="44.3175" lon="3.74657">
        <ele>1290.71</ele>
        <time>2013-06-04T09:58:17Z</time>
      </trkpt>
      <trkpt lat="44.31736" lon="3.74637">
        <ele>1292.63</ele>
        <time>2013-06-04T09:58:34Z</time>
      </trkpt>
      <trkpt lat="44.31715" lon="3.74617">
        <ele>1294.55</ele>
        <time>2013-06-04T09:58:51Z</time>
      </trkpt>
      <trkpt lat="44.31696" lon="3.74602">
        <ele>1295.99</ele>
        <time>2013-06-04T09:59:05Z</time>
      </trkpt>
      <trkpt lat="44.31692" lon="3.74599">
        <ele>1296.48</ele>
        <time>2013-06-04T09:59:09Z</time>
      </trkpt>
      <trkpt lat="44.31684" lon="3.74594">
        <ele>1296.48</ele>
        <time>2013-06-04T09:59:23Z</time>
      </trkpt>
      <trkpt lat="44.31688" lon="3.74601">
        <ele>1296.48</ele>
        <time>2013-06-04T09:59:39Z</time>
      </trkpt>
      <trkpt lat="44.31688" lon="3.74598">
        <ele>1296.48</ele>
        <time>2013-06-04T09:59:46Z</time>
      </trkpt>
      <trkpt lat="44.31684" lon="3.74595">
        <ele>1296.48</ele>
        <time>2013-06-04T10:00:03Z</time>
      </trkpt>
      <trkpt lat="44.31685" lon="3.7459">
        <ele>1296.48</ele>
        <time>2013-06-04T10:00:20Z</time>
      </trkpt>
      <trkpt lat="44.31687" lon="3.74589">
        <ele>1296.48</ele>
        <time>2013-06-04T10:00:26Z</time>
      </trkpt>
      <trkpt lat="44.31687" lon="3.74586">
        <ele>1296.48</ele>
        <time>2013-06-04T10:00:28Z</time>
      </trkpt>
      <trkpt lat="44.31686" lon="3.74563">
        <ele>1297.92</ele>
        <time>2013-06-04T10:00:44Z</time>
      </trkpt>
      <trkpt lat="44.3168" lon="3.74534">
        <ele>1299.84</ele>
        <time>2013-06-04T10:01:00Z</time>
      </trkpt>
      <trkpt lat="44.31675" lon="3.74506">
        <ele>1300.32</ele>
        <time>2013-06-04T10:01:17Z</time>
      </trkpt>
      <trkpt lat="44.31666" lon="3.74482">
        <ele>1301.28</ele>
        <time>2013-06-04T10:01:31Z</time>
      </trkpt>
      <trkpt lat="44.31663" lon="3.74477">
        <ele>1301.28</ele>
        <time>2013-06-04T10:01:45Z</time>
      </trkpt>
      <trkpt lat="44.31663" lon="3.74476">
        <ele>1299.84</ele>
        <time>2013-06-04T10:02:01Z</time>
      </trkpt>
      <trkpt lat="44.31659" lon="3.74473">
        <ele>1299.84</ele>
        <time>2013-06-04T10:02:36Z</time>
      </trkpt>
      <trkpt lat="44.3166" lon="3.74468">
        <ele>1300.32</ele>
        <time>2013-06-04T10:03:16Z</time>
      </trkpt>
      <trkpt lat="44.31663" lon="3.74472">
        <ele>1300.32</ele>
        <time>2013-06-04T10:03:42Z</time>
      </trkpt>
      <trkpt lat="44.31655" lon="3.7448">
        <ele>1300.8</ele>
        <time>2013-06-04T10:04:18Z</time>
      </trkpt>
      <trkpt lat="44.31655" lon="3.74479">
        <ele>1300.8</ele>
        <time>2013-06-04T10:04:45Z</time>
      </trkpt>
      <trkpt lat="44.31654" lon="3.74482">
        <ele>1301.28</ele>
        <time>2013-06-04T10:05:18Z</time>
      </trkpt>
      <trkpt lat="44.3165" lon="3.74484">
        <ele>1301.76</ele>
        <time>2013-06-04T10:05:43Z</time>
      </trkpt>
      <trkpt lat="44.31655" lon="3.74491">
        <ele>1301.28</ele>
        <time>2013-06-04T10:06:13Z</time>
      </trkpt>
      <trkpt lat="44.31655" lon="3.74487">
        <ele>1300.32</ele>
        <time>2013-06-04T10:06:36Z</time>
      </trkpt>
      <trkpt lat="44.31656" lon="3.74486">
        <ele>1301.76</ele>
        <time>2013-06-04T10:06:38Z</time>
      </trkpt>
      <trkpt lat="44.31663" lon="3.74475">
        <ele>1301.76</ele>
        <time>2013-06-04T10:07:06Z</time>
      </trkpt>
      <trkpt lat="44.3167" lon="3.74472">
        <ele>1301.76</ele>
        <time>2013-06-04T10:07:39Z</time>
      </trkpt>
      <trkpt lat="44.31668" lon="3.74483">
        <ele>1302.24</ele>
        <time>2013-06-04T10:08:20Z</time>
      </trkpt>
      <trkpt lat="44.31666" lon="3.74476">
        <ele>1302.24</ele>
        <time>2013-06-04T10:08:45Z</time>
      </trkpt>
      <trkpt lat="44.31664" lon="3.74472">
        <ele>1303.69</ele>
        <time>2013-06-04T10:09:06Z</time>
      </trkpt>
      <trkpt lat="44.31666" lon="3.74472">
        <ele>1304.17</ele>
        <time>2013-06-04T10:09:38Z</time>
      </trkpt>
      <trkpt lat="44.31664" lon="3.7447">
        <ele>1304.65</ele>
        <time>2013-06-04T10:10:08Z</time>
      </trkpt>
      <trkpt lat="44.31669" lon="3.7447">
        <ele>1304.65</ele>
        <time>2013-06-04T10:10:36Z</time>
      </trkpt>
      <trkpt lat="44.31672" lon="3.74469">
        <ele>1305.13</ele>
        <time>2013-06-04T10:11:03Z</time>
      </trkpt>
      <trkpt lat="44.31667" lon="3.74471">
        <ele>1306.09</ele>
        <time>2013-06-04T10:11:27Z</time>
      </trkpt>
      <trkpt lat="44.31663" lon="3.74472">
        <ele>1306.09</ele>
        <time>2013-06-04T10:12:02Z</time>
      </trkpt>
      <trkpt lat="44.31664" lon="3.74469">
        <ele>1306.57</ele>
        <time>2013-06-04T10:12:34Z</time>
      </trkpt>
      <trkpt lat="44.31664" lon="3.74475">
        <ele>1306.57</ele>
        <time>2013-06-04T10:13:05Z</time>
      </trkpt>
      <trkpt lat="44.31662" lon="3.74474">
        <ele>1306.57</ele>
        <time>2013-06-04T10:13:23Z</time>
      </trkpt>
      <trkpt lat="44.31661" lon="3.74474">
        <ele>1306.57</ele>
        <time>2013-06-04T10:13:59Z</time>
      </trkpt>
      <trkpt lat="44.31658" lon="3.74474">
        <ele>1307.05</ele>
        <time>2013-06-04T10:14:33Z</time>
      </trkpt>
      <trkpt lat="44.31653" lon="3.7447">
        <ele>1307.05</ele>
        <time>2013-06-04T10:15:09Z</time>
      </trkpt>
      <trkpt lat="44.31658" lon="3.74473">
        <ele>1307.05</ele>
        <time>2013-06-04T10:15:49Z</time>
      </trkpt>
      <trkpt lat="44.31658" lon="3.74475">
        <ele>1307.05</ele>
        <time>2013-06-04T10:16:30Z</time>
      </trkpt>
      <trkpt lat="44.3166" lon="3.74474">
        <ele>1307.05</ele>
        <time>2013-06-04T10:17:03Z</time>
      </trkpt>
      <trkpt lat="44.31658" lon="3.74474">
        <ele>1307.53</ele>
        <time>2013-06-04T10:17:40Z</time>
      </trkpt>
      <trkpt lat="44.31652" lon="3.74472">
        <ele>1307.53</ele>
        <time>2013-06-04T10:18:13Z</time>
      </trkpt>
      <trkpt lat="44.31653" lon="3.74472">
        <ele>1307.53</ele>
        <time>2013-06-04T10:18:47Z</time>
      </trkpt>
      <trkpt lat="44.31659" lon="3.74476">
        <ele>1308.49</ele>
        <time>2013-06-04T10:19:06Z</time>
      </trkpt>
      <trkpt lat="44.3166" lon="3.74473">
        <ele>1308.49</ele>
        <time>2013-06-04T10:19:25Z</time>
      </trkpt>
      <trkpt lat="44.31661" lon="3.74472">
        <ele>1308.49</ele>
        <time>2013-06-04T10:19:52Z</time>
      </trkpt>
      <trkpt lat="44.31662" lon="3.74472">
        <ele>1308.49</ele>
        <time>2013-06-04T10:20:12Z</time>
      </trkpt>
      <trkpt lat="44.31658" lon="3.74474">
        <ele>1308.49</ele>
        <time>2013-06-04T10:20:16Z</time>
      </trkpt>
      <trkpt lat="44.31654" lon="3.74475">
        <ele>1308.49</ele>
        <time>2013-06-04T10:20:21Z</time>
      </trkpt>
      <trkpt lat="44.31648" lon="3.74455">
        <ele>1308.97</ele>
        <time>2013-06-04T10:20:36Z</time>
      </trkpt>
      <trkpt lat="44.31639" lon="3.74427">
        <ele>1309.93</ele>
        <time>2013-06-04T10:20:54Z</time>
      </trkpt>
      <trkpt lat="44.31633" lon="3.74406">
        <ele>1312.34</ele>
        <time>2013-06-04T10:21:07Z</time>
      </trkpt>
      <trkpt lat="44.31633" lon="3.744">
        <ele>1312.34</ele>
        <time>2013-06-04T10:21:11Z</time>
      </trkpt>
      <trkpt lat="44.3163" lon="3.7439">
        <ele>1313.3</ele>
        <time>2013-06-04T10:21:17Z</time>
      </trkpt>
      <trkpt lat="44.31627" lon="3.74367">
        <ele>1315.22</ele>
        <time>2013-06-04T10:21:31Z</time>
      </trkpt>
      <trkpt lat="44.31624" lon="3.74356">
        <ele>1315.22</ele>
        <time>2013-06-04T10:21:38Z</time>
      </trkpt>
      <trkpt lat="44.31614" lon="3.74326">
        <ele>1317.14</ele>
        <time>2013-06-04T10:21:55Z</time>
      </trkpt>
      <trkpt lat="44.31612" lon="3.74302">
        <ele>1318.1</ele>
        <time>2013-06-04T10:22:08Z</time>
      </trkpt>
      <trkpt lat="44.3161" lon="3.74293">
        <ele>1318.59</ele>
        <time>2013-06-04T10:22:13Z</time>
      </trkpt>
      <trkpt lat="44.31605" lon="3.74266">
        <ele>1320.51</ele>
        <time>2013-06-04T10:22:28Z</time>
      </trkpt>
      <trkpt lat="44.31602" lon="3.74239">
        <ele>1322.43</ele>
        <time>2013-06-04T10:22:42Z</time>
      </trkpt>
      <trkpt lat="44.316" lon="3.74234">
        <ele>1322.91</ele>
        <time>2013-06-04T10:22:45Z</time>
      </trkpt>
      <trkpt lat="44.31598" lon="3.74228">
        <ele>1322.91</ele>
        <time>2013-06-04T10:22:49Z</time>
      </trkpt>
      <trkpt lat="44.31594" lon="3.7421">
        <ele>1323.87</ele>
        <time>2013-06-04T10:23:00Z</time>
      </trkpt>
      <trkpt lat="44.31592" lon="3.74202">
        <ele>1324.35</ele>
        <time>2013-06-04T10:23:04Z</time>
      </trkpt>
      <trkpt lat="44.3159" lon="3.74192">
        <ele>1324.83</ele>
        <time>2013-06-04T10:23:09Z</time>
      </trkpt>
      <trkpt lat="44.31575" lon="3.74169">
        <ele>1325.8</ele>
        <time>2013-06-04T10:23:22Z</time>
      </trkpt>
      <trkpt lat="44.31574" lon="3.74168">
        <ele>1325.8</ele>
        <time>2013-06-04T10:23:23Z</time>
      </trkpt>
      <trkpt lat="44.31557" lon="3.74149">
        <ele>1327.24</ele>
        <time>2013-06-04T10:23:38Z</time>
      </trkpt>
      <trkpt lat="44.31557" lon="3.74148">
        <ele>1327.72</ele>
        <time>2013-06-04T10:23:39Z</time>
      </trkpt>
      <trkpt lat="44.31551" lon="3.74139">
        <ele>1328.68</ele>
        <time>2013-06-04T10:23:46Z</time>
      </trkpt>
      <trkpt lat="44.31553" lon="3.74121">
        <ele>1330.6</ele>
        <time>2013-06-04T10:24:00Z</time>
      </trkpt>
      <trkpt lat="44.31554" lon="3.74118">
        <ele>1330.6</ele>
        <time>2013-06-04T10:24:02Z</time>
      </trkpt>
      <trkpt lat="44.31559" lon="3.741">
        <ele>1333.97</ele>
        <time>2013-06-04T10:24:17Z</time>
      </trkpt>
      <trkpt lat="44.31559" lon="3.74094">
        <ele>1334.45</ele>
        <time>2013-06-04T10:24:20Z</time>
      </trkpt>
      <trkpt lat="44.31558" lon="3.74076">
        <ele>1337.33</ele>
        <time>2013-06-04T10:24:33Z</time>
      </trkpt>
      <trkpt lat="44.31558" lon="3.74066">
        <ele>1338.77</ele>
        <time>2013-06-04T10:24:40Z</time>
      </trkpt>
      <trkpt lat="44.31556" lon="3.74048">
        <ele>1342.14</ele>
        <time>2013-06-04T10:24:54Z</time>
      </trkpt>
      <trkpt lat="44.31553" lon="3.74035">
        <ele>1345.02</ele>
        <time>2013-06-04T10:25:07Z</time>
      </trkpt>
      <trkpt lat="44.31553" lon="3.74024">
        <ele>1347.91</ele>
        <time>2013-06-04T10:25:17Z</time>
      </trkpt>
      <trkpt lat="44.31552" lon="3.74008">
        <ele>1350.79</ele>
        <time>2013-06-04T10:25:30Z</time>
      </trkpt>
      <trkpt lat="44.31549" lon="3.73995">
        <ele>1353.67</ele>
        <time>2013-06-04T10:25:42Z</time>
      </trkpt>
      <trkpt lat="44.31545" lon="3.73981">
        <ele>1356.56</ele>
        <time>2013-06-04T10:25:54Z</time>
      </trkpt>
      <trkpt lat="44.31544" lon="3.73965">
        <ele>1358.96</ele>
        <time>2013-06-04T10:26:06Z</time>
      </trkpt>
      <trkpt lat="44.31544" lon="3.73959">
        <ele>1359.44</ele>
        <time>2013-06-04T10:26:10Z</time>
      </trkpt>
      <trkpt lat="44.31542" lon="3.73943">
        <ele>1363.29</ele>
        <time>2013-06-04T10:26:24Z</time>
      </trkpt>
      <trkpt lat="44.31539" lon="3.73928">
        <ele>1364.73</ele>
        <time>2013-06-04T10:26:34Z</time>
      </trkpt>
      <trkpt lat="44.31537" lon="3.73912">
        <ele>1367.61</ele>
        <time>2013-06-04T10:26:46Z</time>
      </trkpt>
      <trkpt lat="44.31535" lon="3.73901">
        <ele>1369.05</ele>
        <time>2013-06-04T10:26:53Z</time>
      </trkpt>
      <trkpt lat="44.31529" lon="3.73881">
        <ele>1371.94</ele>
        <time>2013-06-04T10:27:08Z</time>
      </trkpt>
      <trkpt lat="44.31529" lon="3.73864">
        <ele>1373.86</ele>
        <time>2013-06-04T10:27:20Z</time>
      </trkpt>
      <trkpt lat="44.31526" lon="3.73846">
        <ele>1376.75</ele>
        <time>2013-06-04T10:27:32Z</time>
      </trkpt>
      <trkpt lat="44.31524" lon="3.7384">
        <ele>1377.23</ele>
        <time>2013-06-04T10:27:36Z</time>
      </trkpt>
      <trkpt lat="44.31522" lon="3.73829">
        <ele>1379.15</ele>
        <time>2013-06-04T10:27:43Z</time>
      </trkpt>
      <trkpt lat="44.31521" lon="3.73818">
        <ele>1380.11</ele>
        <time>2013-06-04T10:27:50Z</time>
      </trkpt>
      <trkpt lat="44.31521" lon="3.73814">
        <ele>1380.59</ele>
        <time>2013-06-04T10:27:53Z</time>
      </trkpt>
      <trkpt lat="44.31522" lon="3.73807">
        <ele>1381.55</ele>
        <time>2013-06-04T10:27:57Z</time>
      </trkpt>
      <trkpt lat="44.31515" lon="3.7379">
        <ele>1383.96</ele>
        <time>2013-06-04T10:28:10Z</time>
      </trkpt>
      <trkpt lat="44.31513" lon="3.73772">
        <ele>1386.36</ele>
        <time>2013-06-04T10:28:21Z</time>
      </trkpt>
      <trkpt lat="44.3151" lon="3.73752">
        <ele>1389.24</ele>
        <time>2013-06-04T10:28:35Z</time>
      </trkpt>
      <trkpt lat="44.31509" lon="3.73739">
        <ele>1390.2</ele>
        <time>2013-06-04T10:28:44Z</time>
      </trkpt>
      <trkpt lat="44.31504" lon="3.73715">
        <ele>1392.61</ele>
        <time>2013-06-04T10:28:59Z</time>
      </trkpt>
      <trkpt lat="44.31503" lon="3.73713">
        <ele>1393.57</ele>
        <time>2013-06-04T10:29:00Z</time>
      </trkpt>
      <trkpt lat="44.31503" lon="3.73708">
        <ele>1393.57</ele>
        <time>2013-06-04T10:29:03Z</time>
      </trkpt>
      <trkpt lat="44.31498" lon="3.7369">
        <ele>1396.45</ele>
        <time>2013-06-04T10:29:16Z</time>
      </trkpt>
      <trkpt lat="44.31498" lon="3.73684">
        <ele>1396.93</ele>
        <time>2013-06-04T10:29:20Z</time>
      </trkpt>
      <trkpt lat="44.31499" lon="3.73673">
        <ele>1397.41</ele>
        <time>2013-06-04T10:29:30Z</time>
      </trkpt>
      <trkpt lat="44.315" lon="3.73672">
        <ele>1397.41</ele>
        <time>2013-06-04T10:29:32Z</time>
      </trkpt>
      <trkpt lat="44.31514" lon="3.73655">
        <ele>1396.45</ele>
        <time>2013-06-04T10:29:49Z</time>
      </trkpt>
      <trkpt lat="44.31529" lon="3.73636">
        <ele>1395.01</ele>
        <time>2013-06-04T10:30:03Z</time>
      </trkpt>
      <trkpt lat="44.3154" lon="3.73622">
        <ele>1393.57</ele>
        <time>2013-06-04T10:30:15Z</time>
      </trkpt>
      <trkpt lat="44.31548" lon="3.73616">
        <ele>1393.09</ele>
        <time>2013-06-04T10:30:21Z</time>
      </trkpt>
      <trkpt lat="44.31558" lon="3.73597">
        <ele>1390.2</ele>
        <time>2013-06-04T10:30:36Z</time>
      </trkpt>
      <trkpt lat="44.31564" lon="3.73589">
        <ele>1388.28</ele>
        <time>2013-06-04T10:30:43Z</time>
      </trkpt>
      <trkpt lat="44.31572" lon="3.73579">
        <ele>1386.84</ele>
        <time>2013-06-04T10:30:51Z</time>
      </trkpt>
      <trkpt lat="44.31577" lon="3.73571">
        <ele>1385.4</ele>
        <time>2013-06-04T10:30:59Z</time>
      </trkpt>
      <trkpt lat="44.31593" lon="3.73556">
        <ele>1381.55</ele>
        <time>2013-06-04T10:31:14Z</time>
      </trkpt>
      <trkpt lat="44.31605" lon="3.73537">
        <ele>1378.19</ele>
        <time>2013-06-04T10:31:28Z</time>
      </trkpt>
      <trkpt lat="44.31606" lon="3.73535">
        <ele>1378.19</ele>
        <time>2013-06-04T10:31:29Z</time>
      </trkpt>
      <trkpt lat="44.3161" lon="3.73531">
        <ele>1377.71</ele>
        <time>2013-06-04T10:31:33Z</time>
      </trkpt>
      <trkpt lat="44.31613" lon="3.73527">
        <ele>1377.23</ele>
        <time>2013-06-04T10:31:36Z</time>
      </trkpt>
      <trkpt lat="44.31626" lon="3.73507">
        <ele>1375.78</ele>
        <time>2013-06-04T10:31:50Z</time>
      </trkpt>
      <trkpt lat="44.31637" lon="3.73484">
        <ele>1373.86</ele>
        <time>2013-06-04T10:32:04Z</time>
      </trkpt>
      <trkpt lat="44.31642" lon="3.73449">
        <ele>1373.38</ele>
        <time>2013-06-04T10:32:20Z</time>
      </trkpt>
      <trkpt lat="44.3165" lon="3.73413">
        <ele>1372.9</ele>
        <time>2013-06-04T10:32:38Z</time>
      </trkpt>
      <trkpt lat="44.31657" lon="3.7337">
        <ele>1371.94</ele>
        <time>2013-06-04T10:32:58Z</time>
      </trkpt>
      <trkpt lat="44.31664" lon="3.73335">
        <ele>1370.5</ele>
        <time>2013-06-04T10:33:15Z</time>
      </trkpt>
      <trkpt lat="44.31669" lon="3.73295">
        <ele>1370.5</ele>
        <time>2013-06-04T10:33:35Z</time>
      </trkpt>
      <trkpt lat="44.31669" lon="3.73289">
        <ele>1370.5</ele>
        <time>2013-06-04T10:33:38Z</time>
      </trkpt>
      <trkpt lat="44.31672" lon="3.73276">
        <ele>1371.94</ele>
        <time>2013-06-04T10:33:45Z</time>
      </trkpt>
      <trkpt lat="44.31674" lon="3.73266">
        <ele>1371.94</ele>
        <time>2013-06-04T10:33:50Z</time>
      </trkpt>
      <trkpt lat="44.31675" lon="3.73254">
        <ele>1371.94</ele>
        <time>2013-06-04T10:33:56Z</time>
      </trkpt>
      <trkpt lat="44.31681" lon="3.73221">
        <ele>1372.9</ele>
        <time>2013-06-04T10:34:13Z</time>
      </trkpt>
      <trkpt lat="44.31683" lon="3.73198">
        <ele>1373.86</ele>
        <time>2013-06-04T10:34:25Z</time>
      </trkpt>
      <trkpt lat="44.31689" lon="3.73155">
        <ele>1375.3</ele>
        <time>2013-06-04T10:34:46Z</time>
      </trkpt>
      <trkpt lat="44.31695" lon="3.73112">
        <ele>1375.78</ele>
        <time>2013-06-04T10:35:08Z</time>
      </trkpt>
      <trkpt lat="44.31697" lon="3.73081">
        <ele>1377.23</ele>
        <time>2013-06-04T10:35:24Z</time>
      </trkpt>
      <trkpt lat="44.31699" lon="3.73051">
        <ele>1380.59</ele>
        <time>2013-06-04T10:35:41Z</time>
      </trkpt>
      <trkpt lat="44.31703" lon="3.7303">
        <ele>1383.47</ele>
        <time>2013-06-04T10:35:55Z</time>
      </trkpt>
      <trkpt lat="44.31704" lon="3.73017">
        <ele>1386.36</ele>
        <time>2013-06-04T10:36:06Z</time>
      </trkpt>
      <trkpt lat="44.31706" lon="3.73004">
        <ele>1389.24</ele>
        <time>2013-06-04T10:36:18Z</time>
      </trkpt>
      <trkpt lat="44.31708" lon="3.72986">
        <ele>1392.61</ele>
        <time>2013-06-04T10:36:33Z</time>
      </trkpt>
      <trkpt lat="44.31711" lon="3.72971">
        <ele>1394.53</ele>
        <time>2013-06-04T10:36:45Z</time>
      </trkpt>
      <trkpt lat="44.31713" lon="3.72957">
        <ele>1395.97</ele>
        <time>2013-06-04T10:36:54Z</time>
      </trkpt>
      <trkpt lat="44.31718" lon="3.72935">
        <ele>1398.86</ele>
        <time>2013-06-04T10:37:09Z</time>
      </trkpt>
      <trkpt lat="44.31725" lon="3.72911">
        <ele>1401.26</ele>
        <time>2013-06-04T10:37:25Z</time>
      </trkpt>
      <trkpt lat="44.31732" lon="3.72887">
        <ele>1403.66</ele>
        <time>2013-06-04T10:37:40Z</time>
      </trkpt>
      <trkpt lat="44.31744" lon="3.72859">
        <ele>1406.07</ele>
        <time>2013-06-04T10:37:58Z</time>
      </trkpt>
      <trkpt lat="44.31752" lon="3.72834">
        <ele>1408.47</ele>
        <time>2013-06-04T10:38:13Z</time>
      </trkpt>
      <trkpt lat="44.31759" lon="3.72808">
        <ele>1409.91</ele>
        <time>2013-06-04T10:38:29Z</time>
      </trkpt>
      <trkpt lat="44.31764" lon="3.72775">
        <ele>1411.83</ele>
        <time>2013-06-04T10:38:46Z</time>
      </trkpt>
      <trkpt lat="44.31764" lon="3.72761">
        <ele>1413.28</ele>
        <time>2013-06-04T10:38:54Z</time>
      </trkpt>
      <trkpt lat="44.31764" lon="3.72756">
        <ele>1413.28</ele>
        <time>2013-06-04T10:38:57Z</time>
      </trkpt>
      <trkpt lat="44.31764" lon="3.72749">
        <ele>1414.24</ele>
        <time>2013-06-04T10:39:01Z</time>
      </trkpt>
      <trkpt lat="44.31758" lon="3.72716">
        <ele>1416.64</ele>
        <time>2013-06-04T10:39:18Z</time>
      </trkpt>
      <trkpt lat="44.31753" lon="3.72683">
        <ele>1418.08</ele>
        <time>2013-06-04T10:39:36Z</time>
      </trkpt>
      <trkpt lat="44.31748" lon="3.72638">
        <ele>1419.04</ele>
        <time>2013-06-04T10:39:59Z</time>
      </trkpt>
      <trkpt lat="44.31739" lon="3.72599">
        <ele>1420.97</ele>
        <time>2013-06-04T10:40:22Z</time>
      </trkpt>
      <trkpt lat="44.31732" lon="3.72593">
        <ele>1421.45</ele>
        <time>2013-06-04T10:40:36Z</time>
      </trkpt>
      <trkpt lat="44.3173" lon="3.72595">
        <ele>1421.45</ele>
        <time>2013-06-04T10:40:56Z</time>
      </trkpt>
      <trkpt lat="44.3173" lon="3.72596">
        <ele>1421.45</ele>
        <time>2013-06-04T10:41:16Z</time>
      </trkpt>
      <trkpt lat="44.31731" lon="3.72598">
        <ele>1421.45</ele>
        <time>2013-06-04T10:41:34Z</time>
      </trkpt>
      <trkpt lat="44.31731" lon="3.72589">
        <ele>1421.45</ele>
        <time>2013-06-04T10:41:48Z</time>
      </trkpt>
      <trkpt lat="44.31729" lon="3.7259">
        <ele>1420.97</ele>
        <time>2013-06-04T10:42:25Z</time>
      </trkpt>
      <trkpt lat="44.3173" lon="3.7259">
        <ele>1420.97</ele>
        <time>2013-06-04T10:42:58Z</time>
      </trkpt>
      <trkpt lat="44.31731" lon="3.7259">
        <ele>1420</ele>
        <time>2013-06-04T10:43:23Z</time>
      </trkpt>
      <trkpt lat="44.31731" lon="3.7259">
        <ele>1420</ele>
        <time>2013-06-04T10:43:45Z</time>
      </trkpt>
      <trkpt lat="44.31732" lon="3.72589">
        <ele>1419.52</ele>
        <time>2013-06-04T10:44:17Z</time>
      </trkpt>
      <trkpt lat="44.31732" lon="3.7259">
        <ele>1419.04</ele>
        <time>2013-06-04T10:44:40Z</time>
      </trkpt>
      <trkpt lat="44.31729" lon="3.72591">
        <ele>1419.04</ele>
        <time>2013-06-04T10:45:12Z</time>
      </trkpt>
      <trkpt lat="44.31728" lon="3.7259">
        <ele>1419.04</ele>
        <time>2013-06-04T10:45:40Z</time>
      </trkpt>
      <trkpt lat="44.31727" lon="3.72591">
        <ele>1419.04</ele>
        <time>2013-06-04T10:46:08Z</time>
      </trkpt>
      <trkpt lat="44.31729" lon="3.72588">
        <ele>1419.04</ele>
        <time>2013-06-04T10:46:31Z</time>
      </trkpt>
      <trkpt lat="44.3173" lon="3.72589">
        <ele>1419.04</ele>
        <time>2013-06-04T10:46:56Z</time>
      </trkpt>
      <trkpt lat="44.31729" lon="3.72588">
        <ele>1419.04</ele>
        <time>2013-06-04T10:47:25Z</time>
      </trkpt>
      <trkpt lat="44.31734" lon="3.72592">
        <ele>1419.04</ele>
        <time>2013-06-04T10:47:40Z</time>
      </trkpt>
      <trkpt lat="44.31735" lon="3.7259">
        <ele>1419.04</ele>
        <time>2013-06-04T10:48:02Z</time>
      </trkpt>
      <trkpt lat="44.31736" lon="3.7259">
        <ele>1419.04</ele>
        <time>2013-06-04T10:48:24Z</time>
      </trkpt>
      <trkpt lat="44.31736" lon="3.7259">
        <ele>1419.04</ele>
        <time>2013-06-04T10:48:53Z</time>
      </trkpt>
      <trkpt lat="44.31735" lon="3.72591">
        <ele>1419.04</ele>
        <time>2013-06-04T10:49:17Z</time>
      </trkpt>
      <trkpt lat="44.31736" lon="3.72591">
        <ele>1419.04</ele>
        <time>2013-06-04T10:49:44Z</time>
      </trkpt>
      <trkpt lat="44.31736" lon="3.72592">
        <ele>1419.04</ele>
        <time>2013-06-04T10:50:14Z</time>
      </trkpt>
      <trkpt lat="44.31736" lon="3.72592">
        <ele>1418.56</ele>
        <time>2013-06-04T10:50:44Z</time>
      </trkpt>
      <trkpt lat="44.31735" lon="3.72592">
        <ele>1418.56</ele>
        <time>2013-06-04T10:51:22Z</time>
      </trkpt>
      <trkpt lat="44.31738" lon="3.72592">
        <ele>1418.56</ele>
        <time>2013-06-04T10:51:52Z</time>
      </trkpt>
      <trkpt lat="44.31737" lon="3.72591">
        <ele>1418.56</ele>
        <time>2013-06-04T10:52:22Z</time>
      </trkpt>
      <trkpt lat="44.31736" lon="3.72593">
        <ele>1418.56</ele>
        <time>2013-06-04T10:52:46Z</time>
      </trkpt>
      <trkpt lat="44.31735" lon="3.72593">
        <ele>1418.56</ele>
        <time>2013-06-04T10:53:16Z</time>
      </trkpt>
      <trkpt lat="44.31736" lon="3.7259">
        <ele>1418.56</ele>
        <time>2013-06-04T10:53:43Z</time>
      </trkpt>
      <trkpt lat="44.31737" lon="3.72593">
        <ele>1418.08</ele>
        <time>2013-06-04T10:54:08Z</time>
      </trkpt>
      <trkpt lat="44.31738" lon="3.72596">
        <ele>1418.08</ele>
        <time>2013-06-04T10:54:23Z</time>
      </trkpt>
      <trkpt lat="44.31745" lon="3.72626">
        <ele>1416.64</ele>
        <time>2013-06-04T10:54:42Z</time>
      </trkpt>
      <trkpt lat="44.31752" lon="3.72666">
        <ele>1415.68</ele>
        <time>2013-06-04T10:55:03Z</time>
      </trkpt>
      <trkpt lat="44.31756" lon="3.72706">
        <ele>1414.72</ele>
        <time>2013-06-04T10:55:25Z</time>
      </trkpt>
      <trkpt lat="44.31761" lon="3.72739">
        <ele>1412.31</ele>
        <time>2013-06-04T10:55:43Z</time>
      </trkpt>
      <trkpt lat="44.31763" lon="3.72773">
        <ele>1409.43</ele>
        <time>2013-06-04T10:56:00Z</time>
      </trkpt>
      <trkpt lat="44.31761" lon="3.72805">
        <ele>1407.51</ele>
        <time>2013-06-04T10:56:17Z</time>
      </trkpt>
      <trkpt lat="44.31752" lon="3.72834">
        <ele>1405.58</ele>
        <time>2013-06-04T10:56:34Z</time>
      </trkpt>
      <trkpt lat="44.31741" lon="3.72864">
        <ele>1403.18</ele>
        <time>2013-06-04T10:56:51Z</time>
      </trkpt>
      <trkpt lat="44.3173" lon="3.72889">
        <ele>1400.3</ele>
        <time>2013-06-04T10:57:05Z</time>
      </trkpt>
      <trkpt lat="44.31722" lon="3.72913">
        <ele>1398.37</ele>
        <time>2013-06-04T10:57:19Z</time>
      </trkpt>
      <trkpt lat="44.31713" lon="3.72938">
        <ele>1395.49</ele>
        <time>2013-06-04T10:57:34Z</time>
      </trkpt>
      <trkpt lat="44.31708" lon="3.72948">
        <ele>1394.53</ele>
        <time>2013-06-04T10:57:41Z</time>
      </trkpt>
      <trkpt lat="44.31705" lon="3.72955">
        <ele>1393.09</ele>
        <time>2013-06-04T10:57:45Z</time>
      </trkpt>
      <trkpt lat="44.31705" lon="3.72962">
        <ele>1392.61</ele>
        <time>2013-06-04T10:57:49Z</time>
      </trkpt>
      <trkpt lat="44.31702" lon="3.72979">
        <ele>1390.2</ele>
        <time>2013-06-04T10:57:58Z</time>
      </trkpt>
      <trkpt lat="44.317" lon="3.72986">
        <ele>1389.24</ele>
        <time>2013-06-04T10:58:02Z</time>
      </trkpt>
      <trkpt lat="44.31697" lon="3.73">
        <ele>1386.36</ele>
        <time>2013-06-04T10:58:11Z</time>
      </trkpt>
      <trkpt lat="44.31695" lon="3.73016">
        <ele>1382.99</ele>
        <time>2013-06-04T10:58:21Z</time>
      </trkpt>
      <trkpt lat="44.31693" lon="3.73035">
        <ele>1379.63</ele>
        <time>2013-06-04T10:58:31Z</time>
      </trkpt>
      <trkpt lat="44.31688" lon="3.73068">
        <ele>1376.26</ele>
        <time>2013-06-04T10:58:48Z</time>
      </trkpt>
      <trkpt lat="44.31691" lon="3.731">
        <ele>1373.86</ele>
        <time>2013-06-04T10:59:04Z</time>
      </trkpt>
      <trkpt lat="44.31691" lon="3.73109">
        <ele>1373.38</ele>
        <time>2013-06-04T10:59:09Z</time>
      </trkpt>
      <trkpt lat="44.31686" lon="3.73154">
        <ele>1372.9</ele>
        <time>2013-06-04T10:59:30Z</time>
      </trkpt>
      <trkpt lat="44.31681" lon="3.73189">
        <ele>1370.98</ele>
        <time>2013-06-04T10:59:49Z</time>
      </trkpt>
      <trkpt lat="44.31676" lon="3.73228">
        <ele>1370.02</ele>
        <time>2013-06-04T11:00:08Z</time>
      </trkpt>
      <trkpt lat="44.31669" lon="3.73264">
        <ele>1369.54</ele>
        <time>2013-06-04T11:00:26Z</time>
      </trkpt>
      <trkpt lat="44.31664" lon="3.73297">
        <ele>1368.09</ele>
        <time>2013-06-04T11:00:43Z</time>
      </trkpt>
      <trkpt lat="44.31658" lon="3.7334">
        <ele>1367.13</ele>
        <time>2013-06-04T11:01:04Z</time>
      </trkpt>
      <trkpt lat="44.31654" lon="3.73368">
        <ele>1368.57</ele>
        <time>2013-06-04T11:01:18Z</time>
      </trkpt>
      <trkpt lat="44.31648" lon="3.734">
        <ele>1369.54</ele>
        <time>2013-06-04T11:01:35Z</time>
      </trkpt>
      <trkpt lat="44.31641" lon="3.7344">
        <ele>1370.5</ele>
        <time>2013-06-04T11:01:56Z</time>
      </trkpt>
      <trkpt lat="44.31635" lon="3.73476">
        <ele>1370.98</ele>
        <time>2013-06-04T11:02:15Z</time>
      </trkpt>
      <trkpt lat="44.31627" lon="3.73494">
        <ele>1372.42</ele>
        <time>2013-06-04T11:02:30Z</time>
      </trkpt>
      <trkpt lat="44.31626" lon="3.73495">
        <ele>1372.42</ele>
        <time>2013-06-04T11:02:31Z</time>
      </trkpt>
      <trkpt lat="44.31622" lon="3.73502">
        <ele>1372.9</ele>
        <time>2013-06-04T11:02:36Z</time>
      </trkpt>
      <trkpt lat="44.31613" lon="3.73513">
        <ele>1374.82</ele>
        <time>2013-06-04T11:02:48Z</time>
      </trkpt>
      <trkpt lat="44.31608" lon="3.7353">
        <ele>1376.75</ele>
        <time>2013-06-04T11:03:00Z</time>
      </trkpt>
      <trkpt lat="44.31597" lon="3.73541">
        <ele>1379.15</ele>
        <time>2013-06-04T11:03:13Z</time>
      </trkpt>
      <trkpt lat="44.31584" lon="3.73562">
        <ele>1382.51</ele>
        <time>2013-06-04T11:03:28Z</time>
      </trkpt>
      <trkpt lat="44.31571" lon="3.73579">
        <ele>1384.92</ele>
        <time>2013-06-04T11:03:42Z</time>
      </trkpt>
      <trkpt lat="44.3156" lon="3.73592">
        <ele>1388.28</ele>
        <time>2013-06-04T11:03:55Z</time>
      </trkpt>
      <trkpt lat="44.31554" lon="3.73605">
        <ele>1389.72</ele>
        <time>2013-06-04T11:04:04Z</time>
      </trkpt>
      <trkpt lat="44.31538" lon="3.73621">
        <ele>1391.65</ele>
        <time>2013-06-04T11:04:20Z</time>
      </trkpt>
      <trkpt lat="44.31519" lon="3.73641">
        <ele>1393.57</ele>
        <time>2013-06-04T11:04:37Z</time>
      </trkpt>
      <trkpt lat="44.31496" lon="3.73664">
        <ele>1395.01</ele>
        <time>2013-06-04T11:04:55Z</time>
      </trkpt>
      <trkpt lat="44.31488" lon="3.73677">
        <ele>1395.01</ele>
        <time>2013-06-04T11:05:04Z</time>
      </trkpt>
      <trkpt lat="44.31491" lon="3.737">
        <ele>1391.65</ele>
        <time>2013-06-04T11:05:16Z</time>
      </trkpt>
      <trkpt lat="44.31492" lon="3.73709">
        <ele>1391.17</ele>
        <time>2013-06-04T11:05:20Z</time>
      </trkpt>
      <trkpt lat="44.31492" lon="3.73725">
        <ele>1389.24</ele>
        <time>2013-06-04T11:05:29Z</time>
      </trkpt>
      <trkpt lat="44.3149" lon="3.73731">
        <ele>1388.76</ele>
        <time>2013-06-04T11:05:33Z</time>
      </trkpt>
      <trkpt lat="44.31494" lon="3.73756">
        <ele>1384.92</ele>
        <time>2013-06-04T11:05:48Z</time>
      </trkpt>
      <trkpt lat="44.31495" lon="3.73769">
        <ele>1383.47</ele>
        <time>2013-06-04T11:05:56Z</time>
      </trkpt>
      <trkpt lat="44.315" lon="3.73787">
        <ele>1381.55</ele>
        <time>2013-06-04T11:06:04Z</time>
      </trkpt>
      <trkpt lat="44.31503" lon="3.73805">
        <ele>1378.67</ele>
        <time>2013-06-04T11:06:15Z</time>
      </trkpt>
      <trkpt lat="44.31506" lon="3.73814">
        <ele>1377.23</ele>
        <time>2013-06-04T11:06:20Z</time>
      </trkpt>
      <trkpt lat="44.31506" lon="3.73826">
        <ele>1375.3</ele>
        <time>2013-06-04T11:06:27Z</time>
      </trkpt>
      <trkpt lat="44.31511" lon="3.73844">
        <ele>1373.38</ele>
        <time>2013-06-04T11:06:35Z</time>
      </trkpt>
      <trkpt lat="44.3151" lon="3.73852">
        <ele>1372.42</ele>
        <time>2013-06-04T11:06:40Z</time>
      </trkpt>
      <trkpt lat="44.3151" lon="3.73863">
        <ele>1370.02</ele>
        <time>2013-06-04T11:06:48Z</time>
      </trkpt>
      <trkpt lat="44.31511" lon="3.73871">
        <ele>1369.05</ele>
        <time>2013-06-04T11:06:52Z</time>
      </trkpt>
      <trkpt lat="44.31516" lon="3.73886">
        <ele>1367.61</ele>
        <time>2013-06-04T11:06:58Z</time>
      </trkpt>
      <trkpt lat="44.31518" lon="3.73893">
        <ele>1366.65</ele>
        <time>2013-06-04T11:07:01Z</time>
      </trkpt>
      <trkpt lat="44.31519" lon="3.73897">
        <ele>1366.65</ele>
        <time>2013-06-04T11:07:03Z</time>
      </trkpt>
      <trkpt lat="44.31521" lon="3.7391">
        <ele>1364.25</ele>
        <time>2013-06-04T11:07:10Z</time>
      </trkpt>
      <trkpt lat="44.31524" lon="3.73927">
        <ele>1361.84</ele>
        <time>2013-06-04T11:07:18Z</time>
      </trkpt>
      <trkpt lat="44.31528" lon="3.73947">
        <ele>1359.44</ele>
        <time>2013-06-04T11:07:34Z</time>
      </trkpt>
      <trkpt lat="44.31528" lon="3.73951">
        <ele>1359.44</ele>
        <time>2013-06-04T11:07:54Z</time>
      </trkpt>
      <trkpt lat="44.3153" lon="3.73955">
        <ele>1358.48</ele>
        <time>2013-06-04T11:07:58Z</time>
      </trkpt>
      <trkpt lat="44.3153" lon="3.73958">
        <ele>1358</ele>
        <time>2013-06-04T11:08:01Z</time>
      </trkpt>
      <trkpt lat="44.31532" lon="3.73965">
        <ele>1356.08</ele>
        <time>2013-06-04T11:08:05Z</time>
      </trkpt>
      <trkpt lat="44.31535" lon="3.73986">
        <ele>1352.71</ele>
        <time>2013-06-04T11:08:18Z</time>
      </trkpt>
      <trkpt lat="44.31538" lon="3.74004">
        <ele>1348.87</ele>
        <time>2013-06-04T11:08:29Z</time>
      </trkpt>
      <trkpt lat="44.31538" lon="3.74007">
        <ele>1347.91</ele>
        <time>2013-06-04T11:08:31Z</time>
      </trkpt>
      <trkpt lat="44.31538" lon="3.74011">
        <ele>1347.43</ele>
        <time>2013-06-04T11:08:33Z</time>
      </trkpt>
      <trkpt lat="44.31541" lon="3.74025">
        <ele>1343.58</ele>
        <time>2013-06-04T11:08:42Z</time>
      </trkpt>
      <trkpt lat="44.31543" lon="3.74034">
        <ele>1341.66</ele>
        <time>2013-06-04T11:08:47Z</time>
      </trkpt>
      <trkpt lat="44.31543" lon="3.74053">
        <ele>1337.81</ele>
        <time>2013-06-04T11:08:58Z</time>
      </trkpt>
      <trkpt lat="44.31543" lon="3.74054">
        <ele>1337.81</ele>
        <time>2013-06-04T11:08:59Z</time>
      </trkpt>
      <trkpt lat="44.31543" lon="3.74062">
        <ele>1336.85</ele>
        <time>2013-06-04T11:09:03Z</time>
      </trkpt>
      <trkpt lat="44.31544" lon="3.74073">
        <ele>1334.45</ele>
        <time>2013-06-04T11:09:10Z</time>
      </trkpt>
      <trkpt lat="44.31548" lon="3.74088">
        <ele>1332.52</ele>
        <time>2013-06-04T11:09:18Z</time>
      </trkpt>
      <trkpt lat="44.31548" lon="3.74094">
        <ele>1331.08</ele>
        <time>2013-06-04T11:09:22Z</time>
      </trkpt>
      <trkpt lat="44.31541" lon="3.74113">
        <ele>1327.72</ele>
        <time>2013-06-04T11:09:35Z</time>
      </trkpt>
      <trkpt lat="44.31536" lon="3.74124">
        <ele>1326.76</ele>
        <time>2013-06-04T11:09:42Z</time>
      </trkpt>
      <trkpt lat="44.31534" lon="3.74131">
        <ele>1325.8</ele>
        <time>2013-06-04T11:09:46Z</time>
      </trkpt>
      <trkpt lat="44.31553" lon="3.74156">
        <ele>1324.35</ele>
        <time>2013-06-04T11:10:02Z</time>
      </trkpt>
      <trkpt lat="44.3157" lon="3.74172">
        <ele>1322.91</ele>
        <time>2013-06-04T11:10:14Z</time>
      </trkpt>
      <trkpt lat="44.31572" lon="3.74177">
        <ele>1322.43</ele>
        <time>2013-06-04T11:10:18Z</time>
      </trkpt>
      <trkpt lat="44.31571" lon="3.74181">
        <ele>1321.95</ele>
        <time>2013-06-04T11:10:21Z</time>
      </trkpt>
      <trkpt lat="44.31575" lon="3.74191">
        <ele>1321.47</ele>
        <time>2013-06-04T11:10:26Z</time>
      </trkpt>
      <trkpt lat="44.3158" lon="3.74201">
        <ele>1321.47</ele>
        <time>2013-06-04T11:10:31Z</time>
      </trkpt>
      <trkpt lat="44.31583" lon="3.74212">
        <ele>1321.47</ele>
        <time>2013-06-04T11:10:37Z</time>
      </trkpt>
      <trkpt lat="44.31585" lon="3.74216">
        <ele>1320.51</ele>
        <time>2013-06-04T11:10:40Z</time>
      </trkpt>
      <trkpt lat="44.31587" lon="3.74243">
        <ele>1318.59</ele>
        <time>2013-06-04T11:10:56Z</time>
      </trkpt>
      <trkpt lat="44.31587" lon="3.74248">
        <ele>1318.59</ele>
        <time>2013-06-04T11:10:59Z</time>
      </trkpt>
      <trkpt lat="44.3159" lon="3.74255">
        <ele>1317.62</ele>
        <time>2013-06-04T11:11:03Z</time>
      </trkpt>
      <trkpt lat="44.31588" lon="3.7426">
        <ele>1317.62</ele>
        <time>2013-06-04T11:11:06Z</time>
      </trkpt>
      <trkpt lat="44.31589" lon="3.74264">
        <ele>1317.14</ele>
        <time>2013-06-04T11:11:08Z</time>
      </trkpt>
      <trkpt lat="44.3159" lon="3.74268">
        <ele>1317.14</ele>
        <time>2013-06-04T11:11:10Z</time>
      </trkpt>
      <trkpt lat="44.31591" lon="3.74293">
        <ele>1315.7</ele>
        <time>2013-06-04T11:11:25Z</time>
      </trkpt>
      <trkpt lat="44.31598" lon="3.74323">
        <ele>1314.74</ele>
        <time>2013-06-04T11:11:37Z</time>
      </trkpt>
      <trkpt lat="44.31602" lon="3.74349">
        <ele>1312.82</ele>
        <time>2013-06-04T11:11:51Z</time>
      </trkpt>
      <trkpt lat="44.31612" lon="3.74377">
        <ele>1311.86</ele>
        <time>2013-06-04T11:12:05Z</time>
      </trkpt>
      <trkpt lat="44.31621" lon="3.74403">
        <ele>1309.45</ele>
        <time>2013-06-04T11:12:18Z</time>
      </trkpt>
      <trkpt lat="44.31624" lon="3.74408">
        <ele>1308.97</ele>
        <time>2013-06-04T11:12:20Z</time>
      </trkpt>
      <trkpt lat="44.31631" lon="3.74436">
        <ele>1307.53</ele>
        <time>2013-06-04T11:12:34Z</time>
      </trkpt>
      <trkpt lat="44.31644" lon="3.74467">
        <ele>1306.09</ele>
        <time>2013-06-04T11:12:50Z</time>
      </trkpt>
      <trkpt lat="44.31655" lon="3.7449">
        <ele>1305.61</ele>
        <time>2013-06-04T11:13:06Z</time>
      </trkpt>
      <trkpt lat="44.3166" lon="3.74503">
        <ele>1304.65</ele>
        <time>2013-06-04T11:13:13Z</time>
      </trkpt>
      <trkpt lat="44.31667" lon="3.74522">
        <ele>1304.65</ele>
        <time>2013-06-04T11:13:23Z</time>
      </trkpt>
      <trkpt lat="44.3167" lon="3.7455">
        <ele>1303.69</ele>
        <time>2013-06-04T11:13:41Z</time>
      </trkpt>
      <trkpt lat="44.31668" lon="3.74557">
        <ele>1302.72</ele>
        <time>2013-06-04T11:13:45Z</time>
      </trkpt>
      <trkpt lat="44.31668" lon="3.74561">
        <ele>1302.72</ele>
        <time>2013-06-04T11:13:47Z</time>
      </trkpt>
      <trkpt lat="44.31678" lon="3.74577">
        <ele>1301.28</ele>
        <time>2013-06-04T11:14:02Z</time>
      </trkpt>
      <trkpt lat="44.31681" lon="3.74578">
        <ele>1300.8</ele>
        <time>2013-06-04T11:14:23Z</time>
      </trkpt>
      <trkpt lat="44.31679" lon="3.74577">
        <ele>1300.8</ele>
        <time>2013-06-04T11:14:42Z</time>
      </trkpt>
      <trkpt lat="44.31682" lon="3.74586">
        <ele>1300.8</ele>
        <time>2013-06-04T11:14:59Z</time>
      </trkpt>
      <trkpt lat="44.31682" lon="3.7459">
        <ele>1300.8</ele>
        <time>2013-06-04T11:15:02Z</time>
      </trkpt>
      <trkpt lat="44.31681" lon="3.74596">
        <ele>1300.32</ele>
        <time>2013-06-04T11:15:16Z</time>
      </trkpt>
      <trkpt lat="44.31681" lon="3.74595">
        <ele>1300.32</ele>
        <time>2013-06-04T11:15:48Z</time>
      </trkpt>
      <trkpt lat="44.31681" lon="3.7459">
        <ele>1300.32</ele>
        <time>2013-06-04T11:16:03Z</time>
      </trkpt>
      <trkpt lat="44.31681" lon="3.74592">
        <ele>1300.32</ele>
        <time>2013-06-04T11:16:19Z</time>
      </trkpt>
      <trkpt lat="44.3168" lon="3.74591">
        <ele>1301.28</ele>
        <time>2013-06-04T11:16:33Z</time>
      </trkpt>
      <trkpt lat="44.3168" lon="3.74591">
        <ele>1301.76</ele>
        <time>2013-06-04T11:16:46Z</time>
      </trkpt>
      <trkpt lat="44.31681" lon="3.74592">
        <ele>1301.76</ele>
        <time>2013-06-04T11:17:01Z</time>
      </trkpt>
      <trkpt lat="44.31682" lon="3.74594">
        <ele>1301.76</ele>
        <time>2013-06-04T11:17:07Z</time>
      </trkpt>
      <trkpt lat="44.31686" lon="3.74611">
        <ele>1301.76</ele>
        <time>2013-06-04T11:17:18Z</time>
      </trkpt>
      <trkpt lat="44.31685" lon="3.74619">
        <ele>1300.32</ele>
        <time>2013-06-04T11:17:24Z</time>
      </trkpt>
      <trkpt lat="44.31685" lon="3.74622">
        <ele>1300.32</ele>
        <time>2013-06-04T11:17:26Z</time>
      </trkpt>
      <trkpt lat="44.31687" lon="3.74645">
        <ele>1299.84</ele>
        <time>2013-06-04T11:17:42Z</time>
      </trkpt>
      <trkpt lat="44.3169" lon="3.74672">
        <ele>1299.36</ele>
        <time>2013-06-04T11:17:55Z</time>
      </trkpt>
      <trkpt lat="44.31693" lon="3.74688">
        <ele>1298.4</ele>
        <time>2013-06-04T11:18:05Z</time>
      </trkpt>
      <trkpt lat="44.31705" lon="3.74716">
        <ele>1297.92</ele>
        <time>2013-06-04T11:18:19Z</time>
      </trkpt>
      <trkpt lat="44.31714" lon="3.74736">
        <ele>1297.92</ele>
        <time>2013-06-04T11:18:34Z</time>
      </trkpt>
      <trkpt lat="44.31719" lon="3.74749">
        <ele>1299.36</ele>
        <time>2013-06-04T11:18:42Z</time>
      </trkpt>
      <trkpt lat="44.31734" lon="3.7478">
        <ele>1299.84</ele>
        <time>2013-06-04T11:18:59Z</time>
      </trkpt>
      <trkpt lat="44.3175" lon="3.74806">
        <ele>1297.92</ele>
        <time>2013-06-04T11:19:18Z</time>
      </trkpt>
      <trkpt lat="44.31761" lon="3.74828">
        <ele>1295.99</ele>
        <time>2013-06-04T11:19:32Z</time>
      </trkpt>
      <trkpt lat="44.31771" lon="3.74851">
        <ele>1294.55</ele>
        <time>2013-06-04T11:19:46Z</time>
      </trkpt>
      <trkpt lat="44.31778" lon="3.7488">
        <ele>1292.15</ele>
        <time>2013-06-04T11:20:02Z</time>
      </trkpt>
      <trkpt lat="44.31779" lon="3.74882">
        <ele>1292.15</ele>
        <time>2013-06-04T11:20:03Z</time>
      </trkpt>
      <trkpt lat="44.31789" lon="3.74909">
        <ele>1290.23</ele>
        <time>2013-06-04T11:20:19Z</time>
      </trkpt>
      <trkpt lat="44.31792" lon="3.74923">
        <ele>1288.78</ele>
        <time>2013-06-04T11:20:30Z</time>
      </trkpt>
      <trkpt lat="44.31794" lon="3.7494">
        <ele>1288.3</ele>
        <time>2013-06-04T11:20:45Z</time>
      </trkpt>
      <trkpt lat="44.31794" lon="3.7494">
        <ele>1288.3</ele>
        <time>2013-06-04T11:20:46Z</time>
      </trkpt>
      <trkpt lat="44.31789" lon="3.74933">
        <ele>1288.3</ele>
        <time>2013-06-04T11:20:53Z</time>
      </trkpt>
      <trkpt lat="44.31786" lon="3.7493">
        <ele>1287.82</ele>
        <time>2013-06-04T11:20:57Z</time>
      </trkpt>
      <trkpt lat="44.31775" lon="3.74922">
        <ele>1286.86</ele>
        <time>2013-06-04T11:21:07Z</time>
      </trkpt>
      <trkpt lat="44.3177" lon="3.74918">
        <ele>1286.86</ele>
        <time>2013-06-04T11:21:11Z</time>
      </trkpt>
      <trkpt lat="44.31759" lon="3.7491">
        <ele>1285.9</ele>
        <time>2013-06-04T11:21:21Z</time>
      </trkpt>
      <trkpt lat="44.31756" lon="3.74908">
        <ele>1286.38</ele>
        <time>2013-06-04T11:21:24Z</time>
      </trkpt>
      <trkpt lat="44.31753" lon="3.74905">
        <ele>1286.38</ele>
        <time>2013-06-04T11:21:27Z</time>
      </trkpt>
      <trkpt lat="44.31737" lon="3.74888">
        <ele>1284.46</ele>
        <time>2013-06-04T11:21:43Z</time>
      </trkpt>
      <trkpt lat="44.31734" lon="3.74886">
        <ele>1284.46</ele>
        <time>2013-06-04T11:21:46Z</time>
      </trkpt>
      <trkpt lat="44.31717" lon="3.74864">
        <ele>1282.54</ele>
        <time>2013-06-04T11:22:04Z</time>
      </trkpt>
      <trkpt lat="44.31704" lon="3.74855">
        <ele>1281.09</ele>
        <time>2013-06-04T11:22:17Z</time>
      </trkpt>
      <trkpt lat="44.3169" lon="3.74844">
        <ele>1280.61</ele>
        <time>2013-06-04T11:22:31Z</time>
      </trkpt>
      <trkpt lat="44.3168" lon="3.74837">
        <ele>1280.61</ele>
        <time>2013-06-04T11:22:40Z</time>
      </trkpt>
      <trkpt lat="44.31673" lon="3.7483">
        <ele>1280.61</ele>
        <time>2013-06-04T11:22:47Z</time>
      </trkpt>
      <trkpt lat="44.31665" lon="3.74824">
        <ele>1280.13</ele>
        <time>2013-06-04T11:22:53Z</time>
      </trkpt>
      <trkpt lat="44.31648" lon="3.74809">
        <ele>1280.61</ele>
        <time>2013-06-04T11:23:08Z</time>
      </trkpt>
      <trkpt lat="44.31632" lon="3.74794">
        <ele>1280.13</ele>
        <time>2013-06-04T11:23:22Z</time>
      </trkpt>
      <trkpt lat="44.3163" lon="3.74794">
        <ele>1280.13</ele>
        <time>2013-06-04T11:23:23Z</time>
      </trkpt>
      <trkpt lat="44.31613" lon="3.74777">
        <ele>1279.17</ele>
        <time>2013-06-04T11:23:39Z</time>
      </trkpt>
      <trkpt lat="44.31608" lon="3.74773">
        <ele>1278.69</ele>
        <time>2013-06-04T11:23:44Z</time>
      </trkpt>
      <trkpt lat="44.31595" lon="3.74756">
        <ele>1277.73</ele>
        <time>2013-06-04T11:23:57Z</time>
      </trkpt>
      <trkpt lat="44.31578" lon="3.74732">
        <ele>1277.25</ele>
        <time>2013-06-04T11:24:14Z</time>
      </trkpt>
      <trkpt lat="44.31573" lon="3.74726">
        <ele>1276.29</ele>
        <time>2013-06-04T11:24:19Z</time>
      </trkpt>
      <trkpt lat="44.31562" lon="3.74713">
        <ele>1276.29</ele>
        <time>2013-06-04T11:24:28Z</time>
      </trkpt>
      <trkpt lat="44.31547" lon="3.7469">
        <ele>1274.85</ele>
        <time>2013-06-04T11:24:44Z</time>
      </trkpt>
      <trkpt lat="44.3154" lon="3.74679">
        <ele>1274.85</ele>
        <time>2013-06-04T11:24:51Z</time>
      </trkpt>
      <trkpt lat="44.31523" lon="3.74657">
        <ele>1274.36</ele>
        <time>2013-06-04T11:25:07Z</time>
      </trkpt>
      <trkpt lat="44.31517" lon="3.74644">
        <ele>1274.85</ele>
        <time>2013-06-04T11:25:20Z</time>
      </trkpt>
      <trkpt lat="44.31515" lon="3.74639">
        <ele>1274.85</ele>
        <time>2013-06-04T11:25:41Z</time>
      </trkpt>
      <trkpt lat="44.31511" lon="3.74639">
        <ele>1274.36</ele>
        <time>2013-06-04T11:25:57Z</time>
      </trkpt>
      <trkpt lat="44.3151" lon="3.74638">
        <ele>1274.85</ele>
        <time>2013-06-04T11:26:32Z</time>
      </trkpt>
      <trkpt lat="44.31507" lon="3.74638">
        <ele>1274.85</ele>
        <time>2013-06-04T11:27:09Z</time>
      </trkpt>
      <trkpt lat="44.31508" lon="3.74634">
        <ele>1274.85</ele>
        <time>2013-06-04T11:27:44Z</time>
      </trkpt>
      <trkpt lat="44.31508" lon="3.74635">
        <ele>1274.36</ele>
        <time>2013-06-04T11:28:18Z</time>
      </trkpt>
      <trkpt lat="44.31505" lon="3.74633">
        <ele>1274.36</ele>
        <time>2013-06-04T11:28:59Z</time>
      </trkpt>
      <trkpt lat="44.31506" lon="3.74628">
        <ele>1273.88</ele>
        <time>2013-06-04T11:29:31Z</time>
      </trkpt>
      <trkpt lat="44.31505" lon="3.7463">
        <ele>1273.88</ele>
        <time>2013-06-04T11:30:05Z</time>
      </trkpt>
      <trkpt lat="44.31506" lon="3.7463">
        <ele>1273.88</ele>
        <time>2013-06-04T11:30:43Z</time>
      </trkpt>
      <trkpt lat="44.31502" lon="3.74634">
        <ele>1273.4</ele>
        <time>2013-06-04T11:31:18Z</time>
      </trkpt>
      <trkpt lat="44.31499" lon="3.74637">
        <ele>1273.4</ele>
        <time>2013-06-04T11:32:07Z</time>
      </trkpt>
      <trkpt lat="44.315" lon="3.74632">
        <ele>1273.4</ele>
        <time>2013-06-04T11:32:46Z</time>
      </trkpt>
      <trkpt lat="44.315" lon="3.7463">
        <ele>1272.92</ele>
        <time>2013-06-04T11:33:26Z</time>
      </trkpt>
      <trkpt lat="44.31498" lon="3.74635">
        <ele>1272.92</ele>
        <time>2013-06-04T11:34:06Z</time>
      </trkpt>
      <trkpt lat="44.31504" lon="3.7463">
        <ele>1272.92</ele>
        <time>2013-06-04T11:34:46Z</time>
      </trkpt>
      <trkpt lat="44.31501" lon="3.74632">
        <ele>1272.92</ele>
        <time>2013-06-04T11:35:29Z</time>
      </trkpt>
      <trkpt lat="44.31502" lon="3.7463">
        <ele>1272.92</ele>
        <time>2013-06-04T11:36:14Z</time>
      </trkpt>
      <trkpt lat="44.31499" lon="3.74634">
        <ele>1272.44</ele>
        <time>2013-06-04T11:37:04Z</time>
      </trkpt>
      <trkpt lat="44.31503" lon="3.74636">
        <ele>1272.44</ele>
        <time>2013-06-04T11:37:56Z</time>
      </trkpt>
      <trkpt lat="44.31498" lon="3.74638">
        <ele>1271.96</ele>
        <time>2013-06-04T11:38:31Z</time>
      </trkpt>
      <trkpt lat="44.31503" lon="3.74634">
        <ele>1271.48</ele>
        <time>2013-06-04T11:39:24Z</time>
      </trkpt>
      <trkpt lat="44.31502" lon="3.74639">
        <ele>1271</ele>
        <time>2013-06-04T11:40:15Z</time>
      </trkpt>
      <trkpt lat="44.31502" lon="3.74634">
        <ele>1271</ele>
        <time>2013-06-04T11:41:08Z</time>
      </trkpt>
      <trkpt lat="44.31504" lon="3.74629">
        <ele>1270.52</ele>
        <time>2013-06-04T11:41:50Z</time>
      </trkpt>
      <trkpt lat="44.31503" lon="3.74629">
        <ele>1270.52</ele>
        <time>2013-06-04T11:42:36Z</time>
      </trkpt>
      <trkpt lat="44.31508" lon="3.74627">
        <ele>1270.04</ele>
        <time>2013-06-04T11:43:24Z</time>
      </trkpt>
      <trkpt lat="44.31503" lon="3.74631">
        <ele>1269.56</ele>
        <time>2013-06-04T11:44:07Z</time>
      </trkpt>
      <trkpt lat="44.315" lon="3.74634">
        <ele>1269.56</ele>
        <time>2013-06-04T11:44:53Z</time>
      </trkpt>
      <trkpt lat="44.315" lon="3.74638">
        <ele>1269.08</ele>
        <time>2013-06-04T11:45:28Z</time>
      </trkpt>
      <trkpt lat="44.31504" lon="3.74631">
        <ele>1269.08</ele>
        <time>2013-06-04T11:46:08Z</time>
      </trkpt>
      <trkpt lat="44.31502" lon="3.74631">
        <ele>1269.08</ele>
        <time>2013-06-04T11:46:43Z</time>
      </trkpt>
      <trkpt lat="44.31503" lon="3.74628">
        <ele>1269.08</ele>
        <time>2013-06-04T11:47:24Z</time>
      </trkpt>
      <trkpt lat="44.31503" lon="3.74634">
        <ele>1269.08</ele>
        <time>2013-06-04T11:48:02Z</time>
      </trkpt>
      <trkpt lat="44.315" lon="3.74646">
        <ele>1269.08</ele>
        <time>2013-06-04T11:48:44Z</time>
      </trkpt>
      <trkpt lat="44.31499" lon="3.74636">
        <ele>1269.08</ele>
        <time>2013-06-04T11:49:18Z</time>
      </trkpt>
      <trkpt lat="44.31495" lon="3.74641">
        <ele>1269.08</ele>
        <time>2013-06-04T11:49:59Z</time>
      </trkpt>
      <trkpt lat="44.31501" lon="3.74638">
        <ele>1269.08</ele>
        <time>2013-06-04T11:50:31Z</time>
      </trkpt>
      <trkpt lat="44.31501" lon="3.74638">
        <ele>1270.52</ele>
        <time>2013-06-04T11:50:35Z</time>
      </trkpt>
      <trkpt lat="44.31493" lon="3.74636">
        <ele>1270.52</ele>
        <time>2013-06-04T11:51:09Z</time>
      </trkpt>
      <trkpt lat="44.31495" lon="3.74632">
        <ele>1271.48</ele>
        <time>2013-06-04T11:51:40Z</time>
      </trkpt>
      <trkpt lat="44.31495" lon="3.74634">
        <ele>1271.48</ele>
        <time>2013-06-04T11:52:02Z</time>
      </trkpt>
      <trkpt lat="44.31497" lon="3.74631">
        <ele>1271.48</ele>
        <time>2013-06-04T11:52:32Z</time>
      </trkpt>
      <trkpt lat="44.31499" lon="3.74631">
        <ele>1271.48</ele>
        <time>2013-06-04T11:52:48Z</time>
      </trkpt>
      <trkpt lat="44.31496" lon="3.74624">
        <ele>1271.48</ele>
        <time>2013-06-04T11:53:05Z</time>
      </trkpt>
      <trkpt lat="44.31493" lon="3.74618">
        <ele>1270.04</ele>
        <time>2013-06-04T11:53:11Z</time>
      </trkpt>
      <trkpt lat="44.3149" lon="3.7461">
        <ele>1270.04</ele>
        <time>2013-06-04T11:53:17Z</time>
      </trkpt>
      <trkpt lat="44.31487" lon="3.74605">
        <ele>1270.04</ele>
        <time>2013-06-04T11:53:22Z</time>
      </trkpt>
      <trkpt lat="44.31477" lon="3.74594">
        <ele>1270.52</ele>
        <time>2013-06-04T11:53:36Z</time>
      </trkpt>
      <trkpt lat="44.31472" lon="3.74589">
        <ele>1271.96</ele>
        <time>2013-06-04T11:53:42Z</time>
      </trkpt>
      <trkpt lat="44.31459" lon="3.74576">
        <ele>1272.44</ele>
        <time>2013-06-04T11:53:57Z</time>
      </trkpt>
      <trkpt lat="44.31448" lon="3.74563">
        <ele>1272.92</ele>
        <time>2013-06-04T11:54:10Z</time>
      </trkpt>
      <trkpt lat="44.31446" lon="3.7456">
        <ele>1272.92</ele>
        <time>2013-06-04T11:54:12Z</time>
      </trkpt>
      <trkpt lat="44.31431" lon="3.74545">
        <ele>1272.92</ele>
        <time>2013-06-04T11:54:27Z</time>
      </trkpt>
      <trkpt lat="44.31427" lon="3.74539">
        <ele>1271.48</ele>
        <time>2013-06-04T11:54:32Z</time>
      </trkpt>
      <trkpt lat="44.31414" lon="3.74508">
        <ele>1270.04</ele>
        <time>2013-06-04T11:54:47Z</time>
      </trkpt>
      <trkpt lat="44.31396" lon="3.74484">
        <ele>1268.6</ele>
        <time>2013-06-04T11:55:03Z</time>
      </trkpt>
      <trkpt lat="44.31395" lon="3.74482">
        <ele>1268.6</ele>
        <time>2013-06-04T11:55:04Z</time>
      </trkpt>
      <trkpt lat="44.31389" lon="3.74469">
        <ele>1267.64</ele>
        <time>2013-06-04T11:55:11Z</time>
      </trkpt>
      <trkpt lat="44.31377" lon="3.74441">
        <ele>1266.67</ele>
        <time>2013-06-04T11:55:28Z</time>
      </trkpt>
      <trkpt lat="44.31365" lon="3.74423">
        <ele>1266.67</ele>
        <time>2013-06-04T11:55:42Z</time>
      </trkpt>
      <trkpt lat="44.3135" lon="3.74391">
        <ele>1268.6</ele>
        <time>2013-06-04T11:55:59Z</time>
      </trkpt>
      <trkpt lat="44.31341" lon="3.74368">
        <ele>1269.08</ele>
        <time>2013-06-04T11:56:11Z</time>
      </trkpt>
      <trkpt lat="44.31326" lon="3.74345">
        <ele>1269.56</ele>
        <time>2013-06-04T11:56:27Z</time>
      </trkpt>
      <trkpt lat="44.31325" lon="3.74344">
        <ele>1269.56</ele>
        <time>2013-06-04T11:56:28Z</time>
      </trkpt>
      <trkpt lat="44.3132" lon="3.74332">
        <ele>1269.56</ele>
        <time>2013-06-04T11:56:35Z</time>
      </trkpt>
      <trkpt lat="44.31312" lon="3.74329">
        <ele>1268.12</ele>
        <time>2013-06-04T11:56:42Z</time>
      </trkpt>
      <trkpt lat="44.31296" lon="3.74316">
        <ele>1266.67</ele>
        <time>2013-06-04T11:56:55Z</time>
      </trkpt>
      <trkpt lat="44.3128" lon="3.74302">
        <ele>1264.27</ele>
        <time>2013-06-04T11:57:10Z</time>
      </trkpt>
      <trkpt lat="44.31265" lon="3.74285">
        <ele>1262.35</ele>
        <time>2013-06-04T11:57:22Z</time>
      </trkpt>
      <trkpt lat="44.31259" lon="3.74281">
        <ele>1261.39</ele>
        <time>2013-06-04T11:57:27Z</time>
      </trkpt>
      <trkpt lat="44.31239" lon="3.74262">
        <ele>1259.46</ele>
        <time>2013-06-04T11:57:43Z</time>
      </trkpt>
      <trkpt lat="44.31226" lon="3.74256">
        <ele>1258.5</ele>
        <time>2013-06-04T11:57:52Z</time>
      </trkpt>
      <trkpt lat="44.31221" lon="3.74253">
        <ele>1258.02</ele>
        <time>2013-06-04T11:57:56Z</time>
      </trkpt>
      <trkpt lat="44.31217" lon="3.7425">
        <ele>1258.02</ele>
        <time>2013-06-04T11:57:59Z</time>
      </trkpt>
      <trkpt lat="44.31211" lon="3.74247">
        <ele>1258.02</ele>
        <time>2013-06-04T11:58:03Z</time>
      </trkpt>
      <trkpt lat="44.31194" lon="3.74224">
        <ele>1258.02</ele>
        <time>2013-06-04T11:58:17Z</time>
      </trkpt>
      <trkpt lat="44.31187" lon="3.74219">
        <ele>1257.54</ele>
        <time>2013-06-04T11:58:23Z</time>
      </trkpt>
      <trkpt lat="44.31179" lon="3.74212">
        <ele>1257.54</ele>
        <time>2013-06-04T11:58:31Z</time>
      </trkpt>
      <trkpt lat="44.31172" lon="3.74195">
        <ele>1257.54</ele>
        <time>2013-06-04T11:58:41Z</time>
      </trkpt>
      <trkpt lat="44.31168" lon="3.74192">
        <ele>1257.54</ele>
        <time>2013-06-04T11:58:44Z</time>
      </trkpt>
      <trkpt lat="44.31161" lon="3.74183">
        <ele>1257.54</ele>
        <time>2013-06-04T11:58:52Z</time>
      </trkpt>
      <trkpt lat="44.31148" lon="3.74166">
        <ele>1258.02</ele>
        <time>2013-06-04T11:59:07Z</time>
      </trkpt>
      <trkpt lat="44.31138" lon="3.74161">
        <ele>1259.46</ele>
        <time>2013-06-04T11:59:13Z</time>
      </trkpt>
      <trkpt lat="44.31137" lon="3.7416">
        <ele>1259.46</ele>
        <time>2013-06-04T11:59:14Z</time>
      </trkpt>
      <trkpt lat="44.31116" lon="3.74143">
        <ele>1259.46</ele>
        <time>2013-06-04T11:59:27Z</time>
      </trkpt>
      <trkpt lat="44.31102" lon="3.74121">
        <ele>1258.02</ele>
        <time>2013-06-04T11:59:39Z</time>
      </trkpt>
      <trkpt lat="44.31082" lon="3.74098">
        <ele>1257.06</ele>
        <time>2013-06-04T11:59:54Z</time>
      </trkpt>
      <trkpt lat="44.31069" lon="3.7408">
        <ele>1255.62</ele>
        <time>2013-06-04T12:00:09Z</time>
      </trkpt>
      <trkpt lat="44.31053" lon="3.74067">
        <ele>1254.66</ele>
        <time>2013-06-04T12:00:21Z</time>
      </trkpt>
      <trkpt lat="44.31033" lon="3.74054">
        <ele>1255.14</ele>
        <time>2013-06-04T12:00:34Z</time>
      </trkpt>
      <trkpt lat="44.31017" lon="3.74036">
        <ele>1254.66</ele>
        <time>2013-06-04T12:00:47Z</time>
      </trkpt>
      <trkpt lat="44.31" lon="3.74011">
        <ele>1254.66</ele>
        <time>2013-06-04T12:01:03Z</time>
      </trkpt>
      <trkpt lat="44.30997" lon="3.74006">
        <ele>1254.66</ele>
        <time>2013-06-04T12:01:07Z</time>
      </trkpt>
      <trkpt lat="44.30987" lon="3.74001">
        <ele>1256.1</ele>
        <time>2013-06-04T12:01:20Z</time>
      </trkpt>
      <trkpt lat="44.30967" lon="3.73999">
        <ele>1256.58</ele>
        <time>2013-06-04T12:01:34Z</time>
      </trkpt>
      <trkpt lat="44.30947" lon="3.73992">
        <ele>1256.58</ele>
        <time>2013-06-04T12:01:51Z</time>
      </trkpt>
      <trkpt lat="44.30939" lon="3.73987">
        <ele>1256.58</ele>
        <time>2013-06-04T12:01:56Z</time>
      </trkpt>
      <trkpt lat="44.30919" lon="3.73979">
        <ele>1255.14</ele>
        <time>2013-06-04T12:02:10Z</time>
      </trkpt>
      <trkpt lat="44.309" lon="3.73968">
        <ele>1253.22</ele>
        <time>2013-06-04T12:02:24Z</time>
      </trkpt>
      <trkpt lat="44.3088" lon="3.73958">
        <ele>1251.77</ele>
        <time>2013-06-04T12:02:38Z</time>
      </trkpt>
      <trkpt lat="44.30864" lon="3.73952">
        <ele>1251.29</ele>
        <time>2013-06-04T12:02:51Z</time>
      </trkpt>
      <trkpt lat="44.30863" lon="3.73952">
        <ele>1250.81</ele>
        <time>2013-06-04T12:02:52Z</time>
      </trkpt>
      <trkpt lat="44.30835" lon="3.73953">
        <ele>1250.33</ele>
        <time>2013-06-04T12:03:07Z</time>
      </trkpt>
      <trkpt lat="44.3082" lon="3.73951">
        <ele>1249.85</ele>
        <time>2013-06-04T12:03:20Z</time>
      </trkpt>
      <trkpt lat="44.30797" lon="3.73946">
        <ele>1249.85</ele>
        <time>2013-06-04T12:03:33Z</time>
      </trkpt>
      <trkpt lat="44.30783" lon="3.73937">
        <ele>1249.37</ele>
        <time>2013-06-04T12:03:46Z</time>
      </trkpt>
      <trkpt lat="44.30764" lon="3.73928">
        <ele>1248.89</ele>
        <time>2013-06-04T12:03:59Z</time>
      </trkpt>
      <trkpt lat="44.3074" lon="3.73923">
        <ele>1248.89</ele>
        <time>2013-06-04T12:04:13Z</time>
      </trkpt>
      <trkpt lat="44.30723" lon="3.73914">
        <ele>1248.89</ele>
        <time>2013-06-04T12:04:25Z</time>
      </trkpt>
      <trkpt lat="44.30708" lon="3.73913">
        <ele>1248.89</ele>
        <time>2013-06-04T12:04:41Z</time>
      </trkpt>
      <trkpt lat="44.30701" lon="3.7391">
        <ele>1250.33</ele>
        <time>2013-06-04T12:04:47Z</time>
      </trkpt>
      <trkpt lat="44.30685" lon="3.73902">
        <ele>1250.33</ele>
        <time>2013-06-04T12:04:59Z</time>
      </trkpt>
      <trkpt lat="44.30662" lon="3.73892">
        <ele>1250.81</ele>
        <time>2013-06-04T12:05:12Z</time>
      </trkpt>
      <trkpt lat="44.30651" lon="3.7389">
        <ele>1249.37</ele>
        <time>2013-06-04T12:05:17Z</time>
      </trkpt>
      <trkpt lat="44.30625" lon="3.73881">
        <ele>1249.37</ele>
        <time>2013-06-04T12:05:34Z</time>
      </trkpt>
      <trkpt lat="44.30602" lon="3.73877">
        <ele>1249.37</ele>
        <time>2013-06-04T12:05:51Z</time>
      </trkpt>
      <trkpt lat="44.30594" lon="3.73876">
        <ele>1250.81</ele>
        <time>2013-06-04T12:05:59Z</time>
      </trkpt>
      <trkpt lat="44.30577" lon="3.73873">
        <ele>1251.77</ele>
        <time>2013-06-04T12:06:13Z</time>
      </trkpt>
      <trkpt lat="44.30544" lon="3.73867">
        <ele>1251.77</ele>
        <time>2013-06-04T12:06:27Z</time>
      </trkpt>
      <trkpt lat="44.30522" lon="3.73854">
        <ele>1252.25</ele>
        <time>2013-06-04T12:06:43Z</time>
      </trkpt>
      <trkpt lat="44.30506" lon="3.73846">
        <ele>1250.33</ele>
        <time>2013-06-04T12:06:58Z</time>
      </trkpt>
      <trkpt lat="44.30498" lon="3.7384">
        <ele>1251.77</ele>
        <time>2013-06-04T12:07:01Z</time>
      </trkpt>
      <trkpt lat="44.30488" lon="3.73835">
        <ele>1250.81</ele>
        <time>2013-06-04T12:07:14Z</time>
      </trkpt>
      <trkpt lat="44.30489" lon="3.73832">
        <ele>1250.33</ele>
        <time>2013-06-04T12:07:36Z</time>
      </trkpt>
      <trkpt lat="44.30489" lon="3.73835">
        <ele>1250.33</ele>
        <time>2013-06-04T12:08:00Z</time>
      </trkpt>
      <trkpt lat="44.30485" lon="3.73837">
        <ele>1249.85</ele>
        <time>2013-06-04T12:08:39Z</time>
      </trkpt>
      <trkpt lat="44.30484" lon="3.73836">
        <ele>1251.29</ele>
        <time>2013-06-04T12:09:03Z</time>
      </trkpt>
      <trkpt lat="44.30465" lon="3.73819">
        <ele>1248.41</ele>
        <time>2013-06-04T12:09:20Z</time>
      </trkpt>
      <trkpt lat="44.3045" lon="3.73809">
        <ele>1246.49</ele>
        <time>2013-06-04T12:09:32Z</time>
      </trkpt>
      <trkpt lat="44.30434" lon="3.73801">
        <ele>1243.12</ele>
        <time>2013-06-04T12:09:44Z</time>
      </trkpt>
      <trkpt lat="44.30411" lon="3.73789">
        <ele>1239.76</ele>
        <time>2013-06-04T12:09:59Z</time>
      </trkpt>
      <trkpt lat="44.30396" lon="3.73782">
        <ele>1237.83</ele>
        <time>2013-06-04T12:10:11Z</time>
      </trkpt>
      <trkpt lat="44.3038" lon="3.73775">
        <ele>1234.95</ele>
        <time>2013-06-04T12:10:23Z</time>
      </trkpt>
      <trkpt lat="44.30358" lon="3.7377">
        <ele>1233.03</ele>
        <time>2013-06-04T12:10:38Z</time>
      </trkpt>
      <trkpt lat="44.30336" lon="3.73768">
        <ele>1231.59</ele>
        <time>2013-06-04T12:10:54Z</time>
      </trkpt>
      <trkpt lat="44.30311" lon="3.73765">
        <ele>1228.7</ele>
        <time>2013-06-04T12:11:10Z</time>
      </trkpt>
      <trkpt lat="44.30291" lon="3.73769">
        <ele>1226.3</ele>
        <time>2013-06-04T12:11:24Z</time>
      </trkpt>
      <trkpt lat="44.30268" lon="3.73766">
        <ele>1225.34</ele>
        <time>2013-06-04T12:11:38Z</time>
      </trkpt>
      <trkpt lat="44.30256" lon="3.73767">
        <ele>1223.9</ele>
        <time>2013-06-04T12:11:46Z</time>
      </trkpt>
      <trkpt lat="44.30234" lon="3.73765">
        <ele>1221.97</ele>
        <time>2013-06-04T12:12:01Z</time>
      </trkpt>
      <trkpt lat="44.30211" lon="3.73765">
        <ele>1220.53</ele>
        <time>2013-06-04T12:12:15Z</time>
      </trkpt>
      <trkpt lat="44.30191" lon="3.7377">
        <ele>1219.57</ele>
        <time>2013-06-04T12:12:29Z</time>
      </trkpt>
      <trkpt lat="44.30171" lon="3.73775">
        <ele>1218.13</ele>
        <time>2013-06-04T12:12:43Z</time>
      </trkpt>
      <trkpt lat="44.3017" lon="3.73775">
        <ele>1218.13</ele>
        <time>2013-06-04T12:12:44Z</time>
      </trkpt>
      <trkpt lat="44.30148" lon="3.7378">
        <ele>1217.17</ele>
        <time>2013-06-04T12:12:59Z</time>
      </trkpt>
      <trkpt lat="44.3013" lon="3.73783">
        <ele>1216.21</ele>
        <time>2013-06-04T12:13:11Z</time>
      </trkpt>
      <trkpt lat="44.30108" lon="3.7379">
        <ele>1215.24</ele>
        <time>2013-06-04T12:13:26Z</time>
      </trkpt>
      <trkpt lat="44.30092" lon="3.73797">
        <ele>1214.76</ele>
        <time>2013-06-04T12:13:37Z</time>
      </trkpt>
      <trkpt lat="44.3008" lon="3.73803">
        <ele>1213.8</ele>
        <time>2013-06-04T12:13:45Z</time>
      </trkpt>
      <trkpt lat="44.30071" lon="3.73811">
        <ele>1212.36</ele>
        <time>2013-06-04T12:13:52Z</time>
      </trkpt>
      <trkpt lat="44.30052" lon="3.73823">
        <ele>1209.96</ele>
        <time>2013-06-04T12:14:05Z</time>
      </trkpt>
      <trkpt lat="44.30044" lon="3.73829">
        <ele>1209</ele>
        <time>2013-06-04T12:14:11Z</time>
      </trkpt>
      <trkpt lat="44.30034" lon="3.73834">
        <ele>1208.03</ele>
        <time>2013-06-04T12:14:17Z</time>
      </trkpt>
      <trkpt lat="44.30017" lon="3.73846">
        <ele>1204.19</ele>
        <time>2013-06-04T12:14:30Z</time>
      </trkpt>
      <trkpt lat="44.30002" lon="3.73858">
        <ele>1201.3</ele>
        <time>2013-06-04T12:14:42Z</time>
      </trkpt>
      <trkpt lat="44.29999" lon="3.73863">
        <ele>1199.86</ele>
        <time>2013-06-04T12:14:44Z</time>
      </trkpt>
      <trkpt lat="44.29985" lon="3.73875">
        <ele>1198.9</ele>
        <time>2013-06-04T12:14:53Z</time>
      </trkpt>
      <trkpt lat="44.29966" lon="3.73882">
        <ele>1196.98</ele>
        <time>2013-06-04T12:15:06Z</time>
      </trkpt>
      <trkpt lat="44.29963" lon="3.73883">
        <ele>1196.98</ele>
        <time>2013-06-04T12:15:08Z</time>
      </trkpt>
      <trkpt lat="44.29955" lon="3.73886">
        <ele>1195.54</ele>
        <time>2013-06-04T12:15:13Z</time>
      </trkpt>
      <trkpt lat="44.29936" lon="3.73894">
        <ele>1192.65</ele>
        <time>2013-06-04T12:15:26Z</time>
      </trkpt>
      <trkpt lat="44.29927" lon="3.73899">
        <ele>1191.69</ele>
        <time>2013-06-04T12:15:34Z</time>
      </trkpt>
      <trkpt lat="44.2991" lon="3.73909">
        <ele>1189.29</ele>
        <time>2013-06-04T12:15:46Z</time>
      </trkpt>
      <trkpt lat="44.29887" lon="3.73914">
        <ele>1187.85</ele>
        <time>2013-06-04T12:16:00Z</time>
      </trkpt>
      <trkpt lat="44.29868" lon="3.73918">
        <ele>1184.48</ele>
        <time>2013-06-04T12:16:14Z</time>
      </trkpt>
      <trkpt lat="44.29853" lon="3.73919">
        <ele>1184.48</ele>
        <time>2013-06-04T12:16:24Z</time>
      </trkpt>
      <trkpt lat="44.29831" lon="3.73924">
        <ele>1183.04</ele>
        <time>2013-06-04T12:16:41Z</time>
      </trkpt>
      <trkpt lat="44.29813" lon="3.73921">
        <ele>1181.12</ele>
        <time>2013-06-04T12:16:56Z</time>
      </trkpt>
      <trkpt lat="44.29811" lon="3.73922">
        <ele>1181.12</ele>
        <time>2013-06-04T12:16:58Z</time>
      </trkpt>
      <trkpt lat="44.29791" lon="3.73928">
        <ele>1178.71</ele>
        <time>2013-06-04T12:17:14Z</time>
      </trkpt>
      <trkpt lat="44.29773" lon="3.73937">
        <ele>1176.79</ele>
        <time>2013-06-04T12:17:27Z</time>
      </trkpt>
      <trkpt lat="44.29766" lon="3.73936">
        <ele>1174.87</ele>
        <time>2013-06-04T12:17:33Z</time>
      </trkpt>
      <trkpt lat="44.29746" lon="3.73936">
        <ele>1171.5</ele>
        <time>2013-06-04T12:17:47Z</time>
      </trkpt>
      <trkpt lat="44.29732" lon="3.73935">
        <ele>1169.58</ele>
        <time>2013-06-04T12:17:56Z</time>
      </trkpt>
      <trkpt lat="44.29717" lon="3.73935">
        <ele>1167.66</ele>
        <time>2013-06-04T12:18:09Z</time>
      </trkpt>
      <trkpt lat="44.29699" lon="3.73941">
        <ele>1164.77</ele>
        <time>2013-06-04T12:18:21Z</time>
      </trkpt>
      <trkpt lat="44.29688" lon="3.7394">
        <ele>1164.29</ele>
        <time>2013-06-04T12:18:31Z</time>
      </trkpt>
      <trkpt lat="44.29677" lon="3.73943">
        <ele>1162.85</ele>
        <time>2013-06-04T12:18:37Z</time>
      </trkpt>
      <trkpt lat="44.29656" lon="3.73953">
        <ele>1162.37</ele>
        <time>2013-06-04T12:18:41Z</time>
      </trkpt>
      <trkpt lat="44.29624" lon="3.73962">
        <ele>1160.93</ele>
        <time>2013-06-04T12:18:55Z</time>
      </trkpt>
      <trkpt lat="44.29612" lon="3.73964">
        <ele>1159.49</ele>
        <time>2013-06-04T12:19:05Z</time>
      </trkpt>
      <trkpt lat="44.29589" lon="3.73968">
        <ele>1157.56</ele>
        <time>2013-06-04T12:19:21Z</time>
      </trkpt>
      <trkpt lat="44.29584" lon="3.73968">
        <ele>1157.08</ele>
        <time>2013-06-04T12:19:24Z</time>
      </trkpt>
      <trkpt lat="44.29564" lon="3.7397">
        <ele>1154.68</ele>
        <time>2013-06-04T12:19:39Z</time>
      </trkpt>
      <trkpt lat="44.29543" lon="3.73977">
        <ele>1153.24</ele>
        <time>2013-06-04T12:19:52Z</time>
      </trkpt>
      <trkpt lat="44.29542" lon="3.73977">
        <ele>1153.24</ele>
        <time>2013-06-04T12:19:53Z</time>
      </trkpt>
      <trkpt lat="44.29535" lon="3.73978">
        <ele>1152.76</ele>
        <time>2013-06-04T12:19:58Z</time>
      </trkpt>
      <trkpt lat="44.29527" lon="3.73985">
        <ele>1151.32</ele>
        <time>2013-06-04T12:20:05Z</time>
      </trkpt>
      <trkpt lat="44.29516" lon="3.73987">
        <ele>1150.35</ele>
        <time>2013-06-04T12:20:13Z</time>
      </trkpt>
      <trkpt lat="44.2951" lon="3.73986">
        <ele>1149.39</ele>
        <time>2013-06-04T12:20:17Z</time>
      </trkpt>
      <trkpt lat="44.2949" lon="3.73989">
        <ele>1147.47</ele>
        <time>2013-06-04T12:20:30Z</time>
      </trkpt>
      <trkpt lat="44.29466" lon="3.73989">
        <ele>1146.51</ele>
        <time>2013-06-04T12:20:44Z</time>
      </trkpt>
      <trkpt lat="44.29448" lon="3.73991">
        <ele>1145.07</ele>
        <time>2013-06-04T12:20:55Z</time>
      </trkpt>
      <trkpt lat="44.29434" lon="3.73995">
        <ele>1144.59</ele>
        <time>2013-06-04T12:21:02Z</time>
      </trkpt>
      <trkpt lat="44.2942" lon="3.73998">
        <ele>1144.11</ele>
        <time>2013-06-04T12:21:10Z</time>
      </trkpt>
      <trkpt lat="44.29404" lon="3.74003">
        <ele>1142.66</ele>
        <time>2013-06-04T12:21:23Z</time>
      </trkpt>
      <trkpt lat="44.29397" lon="3.74005">
        <ele>1141.22</ele>
        <time>2013-06-04T12:21:29Z</time>
      </trkpt>
      <trkpt lat="44.29378" lon="3.74006">
        <ele>1139.78</ele>
        <time>2013-06-04T12:21:41Z</time>
      </trkpt>
      <trkpt lat="44.29369" lon="3.74004">
        <ele>1137.86</ele>
        <time>2013-06-04T12:21:49Z</time>
      </trkpt>
      <trkpt lat="44.29363" lon="3.74005">
        <ele>1136.9</ele>
        <time>2013-06-04T12:21:53Z</time>
      </trkpt>
      <trkpt lat="44.29337" lon="3.74002">
        <ele>1134.97</ele>
        <time>2013-06-04T12:22:07Z</time>
      </trkpt>
      <trkpt lat="44.29321" lon="3.74001">
        <ele>1134.01</ele>
        <time>2013-06-04T12:22:16Z</time>
      </trkpt>
      <trkpt lat="44.29301" lon="3.73999">
        <ele>1131.61</ele>
        <time>2013-06-04T12:22:30Z</time>
      </trkpt>
      <trkpt lat="44.29292" lon="3.73996">
        <ele>1130.65</ele>
        <time>2013-06-04T12:22:35Z</time>
      </trkpt>
      <trkpt lat="44.2927" lon="3.73989">
        <ele>1127.76</ele>
        <time>2013-06-04T12:22:49Z</time>
      </trkpt>
      <trkpt lat="44.2925" lon="3.73977">
        <ele>1124.88</ele>
        <time>2013-06-04T12:23:01Z</time>
      </trkpt>
      <trkpt lat="44.29247" lon="3.73975">
        <ele>1124.4</ele>
        <time>2013-06-04T12:23:03Z</time>
      </trkpt>
      <trkpt lat="44.29231" lon="3.73964">
        <ele>1122</ele>
        <time>2013-06-04T12:23:14Z</time>
      </trkpt>
      <trkpt lat="44.29226" lon="3.73961">
        <ele>1121.52</ele>
        <time>2013-06-04T12:23:18Z</time>
      </trkpt>
      <trkpt lat="44.29201" lon="3.73944">
        <ele>1119.11</ele>
        <time>2013-06-04T12:23:32Z</time>
      </trkpt>
      <trkpt lat="44.29184" lon="3.73922">
        <ele>1118.63</ele>
        <time>2013-06-04T12:23:46Z</time>
      </trkpt>
      <trkpt lat="44.29171" lon="3.73903">
        <ele>1116.71</ele>
        <time>2013-06-04T12:23:59Z</time>
      </trkpt>
      <trkpt lat="44.29152" lon="3.739">
        <ele>1116.23</ele>
        <time>2013-06-04T12:24:13Z</time>
      </trkpt>
      <trkpt lat="44.29142" lon="3.73902">
        <ele>1115.27</ele>
        <time>2013-06-04T12:24:20Z</time>
      </trkpt>
      <trkpt lat="44.29126" lon="3.73901">
        <ele>1113.82</ele>
        <time>2013-06-04T12:24:31Z</time>
      </trkpt>
      <trkpt lat="44.29122" lon="3.73901">
        <ele>1113.82</ele>
        <time>2013-06-04T12:24:33Z</time>
      </trkpt>
      <trkpt lat="44.29109" lon="3.73906">
        <ele>1112.38</ele>
        <time>2013-06-04T12:24:43Z</time>
      </trkpt>
      <trkpt lat="44.29102" lon="3.73912">
        <ele>1111.9</ele>
        <time>2013-06-04T12:24:49Z</time>
      </trkpt>
      <trkpt lat="44.29083" lon="3.73924">
        <ele>1110.46</ele>
        <time>2013-06-04T12:25:02Z</time>
      </trkpt>
      <trkpt lat="44.29071" lon="3.73933">
        <ele>1110.46</ele>
        <time>2013-06-04T12:25:12Z</time>
      </trkpt>
      <trkpt lat="44.29047" lon="3.73949">
        <ele>1108.06</ele>
        <time>2013-06-04T12:25:29Z</time>
      </trkpt>
      <trkpt lat="44.29026" lon="3.73957">
        <ele>1106.61</ele>
        <time>2013-06-04T12:25:43Z</time>
      </trkpt>
      <trkpt lat="44.29007" lon="3.73956">
        <ele>1104.69</ele>
        <time>2013-06-04T12:25:58Z</time>
      </trkpt>
      <trkpt lat="44.28991" lon="3.73955">
        <ele>1102.77</ele>
        <time>2013-06-04T12:26:10Z</time>
      </trkpt>
      <trkpt lat="44.2898" lon="3.73957">
        <ele>1102.29</ele>
        <time>2013-06-04T12:26:17Z</time>
      </trkpt>
      <trkpt lat="44.28975" lon="3.73957">
        <ele>1101.81</ele>
        <time>2013-06-04T12:26:22Z</time>
      </trkpt>
      <trkpt lat="44.28967" lon="3.73956">
        <ele>1101.33</ele>
        <time>2013-06-04T12:26:37Z</time>
      </trkpt>
      <trkpt lat="44.28972" lon="3.73958">
        <ele>1100.85</ele>
        <time>2013-06-04T12:27:05Z</time>
      </trkpt>
      <trkpt lat="44.28972" lon="3.73965">
        <ele>1100.85</ele>
        <time>2013-06-04T12:27:27Z</time>
      </trkpt>
      <trkpt lat="44.28978" lon="3.73961">
        <ele>1100.85</ele>
        <time>2013-06-04T12:27:59Z</time>
      </trkpt>
      <trkpt lat="44.28975" lon="3.73963">
        <ele>1100.85</ele>
        <time>2013-06-04T12:28:28Z</time>
      </trkpt>
      <trkpt lat="44.28977" lon="3.73956">
        <ele>1100.85</ele>
        <time>2013-06-04T12:28:56Z</time>
      </trkpt>
      <trkpt lat="44.28976" lon="3.73955">
        <ele>1100.85</ele>
        <time>2013-06-04T12:29:29Z</time>
      </trkpt>
      <trkpt lat="44.28975" lon="3.73958">
        <ele>1100.85</ele>
        <time>2013-06-04T12:30:03Z</time>
      </trkpt>
      <trkpt lat="44.28972" lon="3.73959">
        <ele>1100.37</ele>
        <time>2013-06-04T12:30:34Z</time>
      </trkpt>
      <trkpt lat="44.2897" lon="3.73958">
        <ele>1100.37</ele>
        <time>2013-06-04T12:30:50Z</time>
      </trkpt>
      <trkpt lat="44.28951" lon="3.73965">
        <ele>1099.89</ele>
        <time>2013-06-04T12:31:02Z</time>
      </trkpt>
      <trkpt lat="44.28943" lon="3.73968">
        <ele>1099.4</ele>
        <time>2013-06-04T12:31:07Z</time>
      </trkpt>
      <trkpt lat="44.28921" lon="3.7398">
        <ele>1097.96</ele>
        <time>2013-06-04T12:31:22Z</time>
      </trkpt>
      <trkpt lat="44.28914" lon="3.73982">
        <ele>1097.48</ele>
        <time>2013-06-04T12:31:28Z</time>
      </trkpt>
      <trkpt lat="44.28894" lon="3.73992">
        <ele>1096.04</ele>
        <time>2013-06-04T12:31:43Z</time>
      </trkpt>
      <trkpt lat="44.28893" lon="3.73992">
        <ele>1096.04</ele>
        <time>2013-06-04T12:31:44Z</time>
      </trkpt>
      <trkpt lat="44.28884" lon="3.73999">
        <ele>1095.08</ele>
        <time>2013-06-04T12:31:52Z</time>
      </trkpt>
      <trkpt lat="44.2887" lon="3.74017">
        <ele>1094.12</ele>
        <time>2013-06-04T12:32:04Z</time>
      </trkpt>
      <trkpt lat="44.28865" lon="3.74023">
        <ele>1093.16</ele>
        <time>2013-06-04T12:32:08Z</time>
      </trkpt>
      <trkpt lat="44.28855" lon="3.7404">
        <ele>1092.2</ele>
        <time>2013-06-04T12:32:17Z</time>
      </trkpt>
      <trkpt lat="44.28845" lon="3.7405">
        <ele>1091.23</ele>
        <time>2013-06-04T12:32:27Z</time>
      </trkpt>
      <trkpt lat="44.2884" lon="3.74055">
        <ele>1090.75</ele>
        <time>2013-06-04T12:32:31Z</time>
      </trkpt>
      <trkpt lat="44.28836" lon="3.7406">
        <ele>1090.75</ele>
        <time>2013-06-04T12:32:35Z</time>
      </trkpt>
      <trkpt lat="44.28816" lon="3.74071">
        <ele>1089.31</ele>
        <time>2013-06-04T12:32:50Z</time>
      </trkpt>
      <trkpt lat="44.28813" lon="3.74073">
        <ele>1088.83</ele>
        <time>2013-06-04T12:32:52Z</time>
      </trkpt>
      <trkpt lat="44.28795" lon="3.74084">
        <ele>1087.39</ele>
        <time>2013-06-04T12:33:04Z</time>
      </trkpt>
      <trkpt lat="44.28788" lon="3.74089">
        <ele>1086.43</ele>
        <time>2013-06-04T12:33:09Z</time>
      </trkpt>
      <trkpt lat="44.28777" lon="3.74095">
        <ele>1085.47</ele>
        <time>2013-06-04T12:33:18Z</time>
      </trkpt>
      <trkpt lat="44.28771" lon="3.74098">
        <ele>1084.99</ele>
        <time>2013-06-04T12:33:22Z</time>
      </trkpt>
      <trkpt lat="44.2875" lon="3.74113">
        <ele>1083.54</ele>
        <time>2013-06-04T12:33:38Z</time>
      </trkpt>
      <trkpt lat="44.28733" lon="3.7413">
        <ele>1082.1</ele>
        <time>2013-06-04T12:33:53Z</time>
      </trkpt>
      <trkpt lat="44.28717" lon="3.74144">
        <ele>1080.66</ele>
        <time>2013-06-04T12:34:06Z</time>
      </trkpt>
      <trkpt lat="44.28709" lon="3.74152">
        <ele>1079.7</ele>
        <time>2013-06-04T12:34:12Z</time>
      </trkpt>
      <trkpt lat="44.28696" lon="3.74169">
        <ele>1078.74</ele>
        <time>2013-06-04T12:34:22Z</time>
      </trkpt>
      <trkpt lat="44.28692" lon="3.74179">
        <ele>1078.26</ele>
        <time>2013-06-04T12:34:28Z</time>
      </trkpt>
      <trkpt lat="44.28683" lon="3.74203">
        <ele>1076.81</ele>
        <time>2013-06-04T12:34:42Z</time>
      </trkpt>
      <trkpt lat="44.28674" lon="3.74222">
        <ele>1075.85</ele>
        <time>2013-06-04T12:34:52Z</time>
      </trkpt>
      <trkpt lat="44.2866" lon="3.7424">
        <ele>1073.93</ele>
        <time>2013-06-04T12:35:06Z</time>
      </trkpt>
      <trkpt lat="44.28644" lon="3.74253">
        <ele>1072.49</ele>
        <time>2013-06-04T12:35:20Z</time>
      </trkpt>
      <trkpt lat="44.28627" lon="3.74259">
        <ele>1071.05</ele>
        <time>2013-06-04T12:35:34Z</time>
      </trkpt>
      <trkpt lat="44.28615" lon="3.74258">
        <ele>1070.57</ele>
        <time>2013-06-04T12:35:46Z</time>
      </trkpt>
      <trkpt lat="44.28595" lon="3.74255">
        <ele>1070.08</ele>
        <time>2013-06-04T12:36:00Z</time>
      </trkpt>
      <trkpt lat="44.2858" lon="3.74257">
        <ele>1070.08</ele>
        <time>2013-06-04T12:36:10Z</time>
      </trkpt>
      <trkpt lat="44.28558" lon="3.7427">
        <ele>1069.6</ele>
        <time>2013-06-04T12:36:27Z</time>
      </trkpt>
      <trkpt lat="44.28555" lon="3.74271">
        <ele>1069.6</ele>
        <time>2013-06-04T12:36:30Z</time>
      </trkpt>
      <trkpt lat="44.2854" lon="3.74281">
        <ele>1068.64</ele>
        <time>2013-06-04T12:36:43Z</time>
      </trkpt>
      <trkpt lat="44.28519" lon="3.74299">
        <ele>1068.64</ele>
        <time>2013-06-04T12:36:57Z</time>
      </trkpt>
      <trkpt lat="44.28499" lon="3.74311">
        <ele>1068.16</ele>
        <time>2013-06-04T12:37:08Z</time>
      </trkpt>
      <trkpt lat="44.28481" lon="3.74324">
        <ele>1068.16</ele>
        <time>2013-06-04T12:37:23Z</time>
      </trkpt>
      <trkpt lat="44.28461" lon="3.74335">
        <ele>1067.2</ele>
        <time>2013-06-04T12:37:38Z</time>
      </trkpt>
      <trkpt lat="44.28439" lon="3.74345">
        <ele>1066.24</ele>
        <time>2013-06-04T12:37:52Z</time>
      </trkpt>
      <trkpt lat="44.28418" lon="3.74353">
        <ele>1065.28</ele>
        <time>2013-06-04T12:38:06Z</time>
      </trkpt>
      <trkpt lat="44.28392" lon="3.74362">
        <ele>1062.87</ele>
        <time>2013-06-04T12:38:24Z</time>
      </trkpt>
      <trkpt lat="44.28368" lon="3.74367">
        <ele>1060.47</ele>
        <time>2013-06-04T12:38:40Z</time>
      </trkpt>
      <trkpt lat="44.28351" lon="3.74373">
        <ele>1058.55</ele>
        <time>2013-06-04T12:38:52Z</time>
      </trkpt>
      <trkpt lat="44.28334" lon="3.7439">
        <ele>1056.15</ele>
        <time>2013-06-04T12:39:08Z</time>
      </trkpt>
      <trkpt lat="44.28316" lon="3.74411">
        <ele>1054.22</ele>
        <time>2013-06-04T12:39:23Z</time>
      </trkpt>
      <trkpt lat="44.283" lon="3.74433">
        <ele>1052.78</ele>
        <time>2013-06-04T12:39:39Z</time>
      </trkpt>
      <trkpt lat="44.28279" lon="3.74452">
        <ele>1049.9</ele>
        <time>2013-06-04T12:39:56Z</time>
      </trkpt>
      <trkpt lat="44.28277" lon="3.74453">
        <ele>1049.9</ele>
        <time>2013-06-04T12:39:57Z</time>
      </trkpt>
      <trkpt lat="44.28257" lon="3.74446">
        <ele>1048.45</ele>
        <time>2013-06-04T12:40:11Z</time>
      </trkpt>
      <trkpt lat="44.28239" lon="3.74436">
        <ele>1046.05</ele>
        <time>2013-06-04T12:40:24Z</time>
      </trkpt>
      <trkpt lat="44.28235" lon="3.7443">
        <ele>1045.09</ele>
        <time>2013-06-04T12:40:29Z</time>
      </trkpt>
      <trkpt lat="44.28238" lon="3.74423">
        <ele>1044.13</ele>
        <time>2013-06-04T12:40:32Z</time>
      </trkpt>
      <trkpt lat="44.28258" lon="3.74404">
        <ele>1040.76</ele>
        <time>2013-06-04T12:40:48Z</time>
      </trkpt>
      <trkpt lat="44.28274" lon="3.74389">
        <ele>1038.36</ele>
        <time>2013-06-04T12:41:02Z</time>
      </trkpt>
      <trkpt lat="44.28293" lon="3.74367">
        <ele>1035.48</ele>
        <time>2013-06-04T12:41:19Z</time>
      </trkpt>
      <trkpt lat="44.28302" lon="3.74352">
        <ele>1034.04</ele>
        <time>2013-06-04T12:41:30Z</time>
      </trkpt>
      <trkpt lat="44.28312" lon="3.74328">
        <ele>1030.67</ele>
        <time>2013-06-04T12:41:45Z</time>
      </trkpt>
      <trkpt lat="44.28321" lon="3.74309">
        <ele>1027.79</ele>
        <time>2013-06-04T12:41:57Z</time>
      </trkpt>
      <trkpt lat="44.28339" lon="3.74278">
        <ele>1024.9</ele>
        <time>2013-06-04T12:42:14Z</time>
      </trkpt>
      <trkpt lat="44.28346" lon="3.74265">
        <ele>1023.46</ele>
        <time>2013-06-04T12:42:22Z</time>
      </trkpt>
      <trkpt lat="44.28347" lon="3.74257">
        <ele>1022.5</ele>
        <time>2013-06-04T12:42:27Z</time>
      </trkpt>
      <trkpt lat="44.28355" lon="3.74239">
        <ele>1019.62</ele>
        <time>2013-06-04T12:42:38Z</time>
      </trkpt>
      <trkpt lat="44.28369" lon="3.74218">
        <ele>1016.25</ele>
        <time>2013-06-04T12:42:52Z</time>
      </trkpt>
      <trkpt lat="44.28379" lon="3.74198">
        <ele>1014.33</ele>
        <time>2013-06-04T12:43:06Z</time>
      </trkpt>
      <trkpt lat="44.2838" lon="3.74197">
        <ele>1013.85</ele>
        <time>2013-06-04T12:43:07Z</time>
      </trkpt>
      <trkpt lat="44.28385" lon="3.74191">
        <ele>1012.89</ele>
        <time>2013-06-04T12:43:13Z</time>
      </trkpt>
      <trkpt lat="44.28394" lon="3.74178">
        <ele>1010.48</ele>
        <time>2013-06-04T12:43:23Z</time>
      </trkpt>
      <trkpt lat="44.28401" lon="3.74164">
        <ele>1008.08</ele>
        <time>2013-06-04T12:43:34Z</time>
      </trkpt>
      <trkpt lat="44.28411" lon="3.74148">
        <ele>1005.68</ele>
        <time>2013-06-04T12:43:45Z</time>
      </trkpt>
      <trkpt lat="44.28416" lon="3.74132">
        <ele>1002.31</ele>
        <time>2013-06-04T12:43:58Z</time>
      </trkpt>
      <trkpt lat="44.2842" lon="3.74102">
        <ele>999.43</ele>
        <time>2013-06-04T12:44:14Z</time>
      </trkpt>
      <trkpt lat="44.28421" lon="3.74099">
        <ele>999.43</ele>
        <time>2013-06-04T12:44:16Z</time>
      </trkpt>
      <trkpt lat="44.28426" lon="3.74081">
        <ele>997.51</ele>
        <time>2013-06-04T12:44:28Z</time>
      </trkpt>
      <trkpt lat="44.28426" lon="3.74078">
        <ele>997.51</ele>
        <time>2013-06-04T12:44:30Z</time>
      </trkpt>
      <trkpt lat="44.28432" lon="3.74053">
        <ele>996.54</ele>
        <time>2013-06-04T12:44:41Z</time>
      </trkpt>
      <trkpt lat="44.28437" lon="3.74028">
        <ele>996.06</ele>
        <time>2013-06-04T12:44:52Z</time>
      </trkpt>
      <trkpt lat="44.28439" lon="3.74011">
        <ele>994.62</ele>
        <time>2013-06-04T12:45:03Z</time>
      </trkpt>
      <trkpt lat="44.2844" lon="3.73986">
        <ele>993.18</ele>
        <time>2013-06-04T12:45:17Z</time>
      </trkpt>
      <trkpt lat="44.28438" lon="3.7397">
        <ele>991.26</ele>
        <time>2013-06-04T12:45:29Z</time>
      </trkpt>
      <trkpt lat="44.28438" lon="3.73972">
        <ele>991.26</ele>
        <time>2013-06-04T12:45:31Z</time>
      </trkpt>
      <trkpt lat="44.28431" lon="3.73988">
        <ele>987.89</ele>
        <time>2013-06-04T12:45:47Z</time>
      </trkpt>
      <trkpt lat="44.28426" lon="3.74002">
        <ele>987.41</ele>
        <time>2013-06-04T12:45:57Z</time>
      </trkpt>
      <trkpt lat="44.2842" lon="3.74009">
        <ele>986.93</ele>
        <time>2013-06-04T12:46:01Z</time>
      </trkpt>
      <trkpt lat="44.28417" lon="3.74019">
        <ele>988.37</ele>
        <time>2013-06-04T12:46:09Z</time>
      </trkpt>
      <trkpt lat="44.28403" lon="3.7402">
        <ele>985.97</ele>
        <time>2013-06-04T12:46:25Z</time>
      </trkpt>
      <trkpt lat="44.28406" lon="3.74009">
        <ele>986.45</ele>
        <time>2013-06-04T12:46:51Z</time>
      </trkpt>
      <trkpt lat="44.2841" lon="3.74">
        <ele>986.45</ele>
        <time>2013-06-04T12:47:28Z</time>
      </trkpt>
      <trkpt lat="44.28405" lon="3.74008">
        <ele>986.45</ele>
        <time>2013-06-04T12:47:50Z</time>
      </trkpt>
      <trkpt lat="44.28406" lon="3.74016">
        <ele>986.45</ele>
        <time>2013-06-04T12:48:21Z</time>
      </trkpt>
      <trkpt lat="44.28406" lon="3.74009">
        <ele>986.45</ele>
        <time>2013-06-04T12:48:56Z</time>
      </trkpt>
      <trkpt lat="44.28404" lon="3.74018">
        <ele>985.97</ele>
        <time>2013-06-04T12:49:19Z</time>
      </trkpt>
      <trkpt lat="44.28406" lon="3.74021">
        <ele>985.97</ele>
        <time>2013-06-04T12:49:47Z</time>
      </trkpt>
      <trkpt lat="44.28403" lon="3.74027">
        <ele>985.01</ele>
        <time>2013-06-04T12:50:05Z</time>
      </trkpt>
      <trkpt lat="44.28394" lon="3.74047">
        <ele>983.57</ele>
        <time>2013-06-04T12:50:20Z</time>
      </trkpt>
      <trkpt lat="44.28389" lon="3.74059">
        <ele>983.09</ele>
        <time>2013-06-04T12:50:41Z</time>
      </trkpt>
      <trkpt lat="44.28379" lon="3.74077">
        <ele>982.6</ele>
        <time>2013-06-04T12:50:56Z</time>
      </trkpt>
      <trkpt lat="44.28366" lon="3.74078">
        <ele>980.2</ele>
        <time>2013-06-04T12:51:10Z</time>
      </trkpt>
      <trkpt lat="44.28354" lon="3.74085">
        <ele>979.24</ele>
        <time>2013-06-04T12:51:22Z</time>
      </trkpt>
      <trkpt lat="44.28349" lon="3.74096">
        <ele>978.76</ele>
        <time>2013-06-04T12:51:34Z</time>
      </trkpt>
      <trkpt lat="44.28333" lon="3.741">
        <ele>978.28</ele>
        <time>2013-06-04T12:51:48Z</time>
      </trkpt>
      <trkpt lat="44.28333" lon="3.74098">
        <ele>979.72</ele>
        <time>2013-06-04T12:51:50Z</time>
      </trkpt>
      <trkpt lat="44.28324" lon="3.74084">
        <ele>980.68</ele>
        <time>2013-06-04T12:52:03Z</time>
      </trkpt>
      <trkpt lat="44.28324" lon="3.74063">
        <ele>980.68</ele>
        <time>2013-06-04T12:52:18Z</time>
      </trkpt>
      <trkpt lat="44.28323" lon="3.74062">
        <ele>979.24</ele>
        <time>2013-06-04T12:52:20Z</time>
      </trkpt>
      <trkpt lat="44.28317" lon="3.74054">
        <ele>978.28</ele>
        <time>2013-06-04T12:52:30Z</time>
      </trkpt>
      <trkpt lat="44.2831" lon="3.74036">
        <ele>977.8</ele>
        <time>2013-06-04T12:52:44Z</time>
      </trkpt>
      <trkpt lat="44.28299" lon="3.74024">
        <ele>977.32</ele>
        <time>2013-06-04T12:52:58Z</time>
      </trkpt>
      <trkpt lat="44.28287" lon="3.74005">
        <ele>976.84</ele>
        <time>2013-06-04T12:53:12Z</time>
      </trkpt>
      <trkpt lat="44.2826" lon="3.73992">
        <ele>976.84</ele>
        <time>2013-06-04T12:53:25Z</time>
      </trkpt>
      <trkpt lat="44.28248" lon="3.73973">
        <ele>976.84</ele>
        <time>2013-06-04T12:53:41Z</time>
      </trkpt>
      <trkpt lat="44.28244" lon="3.7397">
        <ele>978.28</ele>
        <time>2013-06-04T12:53:45Z</time>
      </trkpt>
      <trkpt lat="44.28233" lon="3.73948">
        <ele>979.24</ele>
        <time>2013-06-04T12:53:59Z</time>
      </trkpt>
      <trkpt lat="44.2822" lon="3.73923">
        <ele>981.64</ele>
        <time>2013-06-04T12:54:17Z</time>
      </trkpt>
      <trkpt lat="44.28207" lon="3.73901">
        <ele>984.05</ele>
        <time>2013-06-04T12:54:33Z</time>
      </trkpt>
      <trkpt lat="44.28192" lon="3.73885">
        <ele>987.41</ele>
        <time>2013-06-04T12:54:47Z</time>
      </trkpt>
      <trkpt lat="44.28185" lon="3.73867">
        <ele>989.33</ele>
        <time>2013-06-04T12:55:00Z</time>
      </trkpt>
      <trkpt lat="44.28165" lon="3.73854">
        <ele>991.74</ele>
        <time>2013-06-04T12:55:15Z</time>
      </trkpt>
      <trkpt lat="44.28155" lon="3.73842">
        <ele>991.74</ele>
        <time>2013-06-04T12:55:30Z</time>
      </trkpt>
      <trkpt lat="44.2814" lon="3.73825">
        <ele>992.7</ele>
        <time>2013-06-04T12:55:43Z</time>
      </trkpt>
      <trkpt lat="44.28132" lon="3.73793">
        <ele>995.1</ele>
        <time>2013-06-04T12:55:53Z</time>
      </trkpt>
      <trkpt lat="44.28128" lon="3.73773">
        <ele>996.54</ele>
        <time>2013-06-04T12:56:06Z</time>
      </trkpt>
      <trkpt lat="44.28112" lon="3.73768">
        <ele>993.66</ele>
        <time>2013-06-04T12:56:16Z</time>
      </trkpt>
      <trkpt lat="44.2811" lon="3.73764">
        <ele>993.18</ele>
        <time>2013-06-04T12:56:20Z</time>
      </trkpt>
      <trkpt lat="44.28102" lon="3.7376">
        <ele>991.74</ele>
        <time>2013-06-04T12:56:25Z</time>
      </trkpt>
      <trkpt lat="44.281" lon="3.73759">
        <ele>991.26</ele>
        <time>2013-06-04T12:56:27Z</time>
      </trkpt>
      <trkpt lat="44.28084" lon="3.73752">
        <ele>990.3</ele>
        <time>2013-06-04T12:56:35Z</time>
      </trkpt>
      <trkpt lat="44.28076" lon="3.73735">
        <ele>989.81</ele>
        <time>2013-06-04T12:56:48Z</time>
      </trkpt>
      <trkpt lat="44.28071" lon="3.7373">
        <ele>990.78</ele>
        <time>2013-06-04T12:56:50Z</time>
      </trkpt>
      <trkpt lat="44.28063" lon="3.73721">
        <ele>992.22</ele>
        <time>2013-06-04T12:56:56Z</time>
      </trkpt>
      <trkpt lat="44.28052" lon="3.73718">
        <ele>992.22</ele>
        <time>2013-06-04T12:57:02Z</time>
      </trkpt>
      <trkpt lat="44.28048" lon="3.73717">
        <ele>992.22</ele>
        <time>2013-06-04T12:57:04Z</time>
      </trkpt>
      <trkpt lat="44.28043" lon="3.73713">
        <ele>992.22</ele>
        <time>2013-06-04T12:57:09Z</time>
      </trkpt>
      <trkpt lat="44.28028" lon="3.73695">
        <ele>992.22</ele>
        <time>2013-06-04T12:57:23Z</time>
      </trkpt>
      <trkpt lat="44.28013" lon="3.73695">
        <ele>992.22</ele>
        <time>2013-06-04T12:57:29Z</time>
      </trkpt>
      <trkpt lat="44.2801" lon="3.73681">
        <ele>992.7</ele>
        <time>2013-06-04T12:57:43Z</time>
      </trkpt>
      <trkpt lat="44.28006" lon="3.73681">
        <ele>992.22</ele>
        <time>2013-06-04T12:58:12Z</time>
      </trkpt>
      <trkpt lat="44.28002" lon="3.7368">
        <ele>990.78</ele>
        <time>2013-06-04T12:58:30Z</time>
      </trkpt>
      <trkpt lat="44.28002" lon="3.7368">
        <ele>990.3</ele>
        <time>2013-06-04T12:59:00Z</time>
      </trkpt>
      <trkpt lat="44.28001" lon="3.73679">
        <ele>989.81</ele>
        <time>2013-06-04T12:59:17Z</time>
      </trkpt>
      <trkpt lat="44.28005" lon="3.73682">
        <ele>991.74</ele>
        <time>2013-06-04T12:59:23Z</time>
      </trkpt>
      <trkpt lat="44.28009" lon="3.73682">
        <ele>993.18</ele>
        <time>2013-06-04T12:59:34Z</time>
      </trkpt>
      <trkpt lat="44.28007" lon="3.73681">
        <ele>993.18</ele>
        <time>2013-06-04T13:00:07Z</time>
      </trkpt>
      <trkpt lat="44.28008" lon="3.73683">
        <ele>993.18</ele>
        <time>2013-06-04T13:00:14Z</time>
      </trkpt>
      <trkpt lat="44.28007" lon="3.73685">
        <ele>992.22</ele>
        <time>2013-06-04T13:00:16Z</time>
      </trkpt>
      <trkpt lat="44.28004" lon="3.73688">
        <ele>991.26</ele>
        <time>2013-06-04T13:00:20Z</time>
      </trkpt>
      <trkpt lat="44.27993" lon="3.73683">
        <ele>987.89</ele>
        <time>2013-06-04T13:00:32Z</time>
      </trkpt>
      <trkpt lat="44.27981" lon="3.73686">
        <ele>984.53</ele>
        <time>2013-06-04T13:00:43Z</time>
      </trkpt>
      <trkpt lat="44.27975" lon="3.73691">
        <ele>982.6</ele>
        <time>2013-06-04T13:00:49Z</time>
      </trkpt>
      <trkpt lat="44.27971" lon="3.73693">
        <ele>982.6</ele>
        <time>2013-06-04T13:00:53Z</time>
      </trkpt>
      <trkpt lat="44.27954" lon="3.73704">
        <ele>978.76</ele>
        <time>2013-06-04T13:01:08Z</time>
      </trkpt>
      <trkpt lat="44.27952" lon="3.73706">
        <ele>978.76</ele>
        <time>2013-06-04T13:01:10Z</time>
      </trkpt>
      <trkpt lat="44.27941" lon="3.73715">
        <ele>976.36</ele>
        <time>2013-06-04T13:01:20Z</time>
      </trkpt>
      <trkpt lat="44.27936" lon="3.73719">
        <ele>974.91</ele>
        <time>2013-06-04T13:01:25Z</time>
      </trkpt>
      <trkpt lat="44.27931" lon="3.73723">
        <ele>973.95</ele>
        <time>2013-06-04T13:01:29Z</time>
      </trkpt>
      <trkpt lat="44.2793" lon="3.73725">
        <ele>973.95</ele>
        <time>2013-06-04T13:01:31Z</time>
      </trkpt>
      <trkpt lat="44.27912" lon="3.73733">
        <ele>971.55</ele>
        <time>2013-06-04T13:01:46Z</time>
      </trkpt>
      <trkpt lat="44.27887" lon="3.7374">
        <ele>969.15</ele>
        <time>2013-06-04T13:02:04Z</time>
      </trkpt>
      <trkpt lat="44.27871" lon="3.73747">
        <ele>968.67</ele>
        <time>2013-06-04T13:02:16Z</time>
      </trkpt>
      <trkpt lat="44.27869" lon="3.73747">
        <ele>967.7</ele>
        <time>2013-06-04T13:02:18Z</time>
      </trkpt>
      <trkpt lat="44.27857" lon="3.73749">
        <ele>965.78</ele>
        <time>2013-06-04T13:02:31Z</time>
      </trkpt>
      <trkpt lat="44.27854" lon="3.73744">
        <ele>964.34</ele>
        <time>2013-06-04T13:02:34Z</time>
      </trkpt>
      <trkpt lat="44.27843" lon="3.73735">
        <ele>962.42</ele>
        <time>2013-06-04T13:02:43Z</time>
      </trkpt>
      <trkpt lat="44.27821" lon="3.73726">
        <ele>960.01</ele>
        <time>2013-06-04T13:02:58Z</time>
      </trkpt>
      <trkpt lat="44.27804" lon="3.73718">
        <ele>959.05</ele>
        <time>2013-06-04T13:03:12Z</time>
      </trkpt>
      <trkpt lat="44.27786" lon="3.73714">
        <ele>955.21</ele>
        <time>2013-06-04T13:03:26Z</time>
      </trkpt>
      <trkpt lat="44.27785" lon="3.73715">
        <ele>954.25</ele>
        <time>2013-06-04T13:03:27Z</time>
      </trkpt>
      <trkpt lat="44.27768" lon="3.73707">
        <ele>951.36</ele>
        <time>2013-06-04T13:03:41Z</time>
      </trkpt>
      <trkpt lat="44.27755" lon="3.73703">
        <ele>948</ele>
        <time>2013-06-04T13:03:52Z</time>
      </trkpt>
      <trkpt lat="44.27741" lon="3.73706">
        <ele>945.11</ele>
        <time>2013-06-04T13:04:03Z</time>
      </trkpt>
      <trkpt lat="44.27735" lon="3.73705">
        <ele>944.15</ele>
        <time>2013-06-04T13:04:08Z</time>
      </trkpt>
      <trkpt lat="44.2773" lon="3.73706">
        <ele>942.71</ele>
        <time>2013-06-04T13:04:12Z</time>
      </trkpt>
      <trkpt lat="44.27719" lon="3.73704">
        <ele>941.27</ele>
        <time>2013-06-04T13:04:20Z</time>
      </trkpt>
      <trkpt lat="44.277" lon="3.73695">
        <ele>938.38</ele>
        <time>2013-06-04T13:04:33Z</time>
      </trkpt>
      <trkpt lat="44.27684" lon="3.73691">
        <ele>935.5</ele>
        <time>2013-06-04T13:04:47Z</time>
      </trkpt>
      <trkpt lat="44.27664" lon="3.73684">
        <ele>931.17</ele>
        <time>2013-06-04T13:05:01Z</time>
      </trkpt>
      <trkpt lat="44.27647" lon="3.73676">
        <ele>929.25</ele>
        <time>2013-06-04T13:05:14Z</time>
      </trkpt>
      <trkpt lat="44.27644" lon="3.73675">
        <ele>929.25</ele>
        <time>2013-06-04T13:05:16Z</time>
      </trkpt>
      <trkpt lat="44.27639" lon="3.73675">
        <ele>927.81</ele>
        <time>2013-06-04T13:05:20Z</time>
      </trkpt>
      <trkpt lat="44.27623" lon="3.73665">
        <ele>924.93</ele>
        <time>2013-06-04T13:05:33Z</time>
      </trkpt>
      <trkpt lat="44.27606" lon="3.7365">
        <ele>921.56</ele>
        <time>2013-06-04T13:05:48Z</time>
      </trkpt>
      <trkpt lat="44.27601" lon="3.73645">
        <ele>920.12</ele>
        <time>2013-06-04T13:05:54Z</time>
      </trkpt>
      <trkpt lat="44.27586" lon="3.73629">
        <ele>916.75</ele>
        <time>2013-06-04T13:06:08Z</time>
      </trkpt>
      <trkpt lat="44.27583" lon="3.73623">
        <ele>916.27</ele>
        <time>2013-06-04T13:06:12Z</time>
      </trkpt>
      <trkpt lat="44.27578" lon="3.73614">
        <ele>915.31</ele>
        <time>2013-06-04T13:06:18Z</time>
      </trkpt>
      <trkpt lat="44.27555" lon="3.73584">
        <ele>911.95</ele>
        <time>2013-06-04T13:06:40Z</time>
      </trkpt>
      <trkpt lat="44.27534" lon="3.73554">
        <ele>909.06</ele>
        <time>2013-06-04T13:07:01Z</time>
      </trkpt>
      <trkpt lat="44.27519" lon="3.7352">
        <ele>906.18</ele>
        <time>2013-06-04T13:07:20Z</time>
      </trkpt>
      <trkpt lat="44.27507" lon="3.7349">
        <ele>904.26</ele>
        <time>2013-06-04T13:07:38Z</time>
      </trkpt>
      <trkpt lat="44.27497" lon="3.73463">
        <ele>900.89</ele>
        <time>2013-06-04T13:07:53Z</time>
      </trkpt>
      <trkpt lat="44.27478" lon="3.73437">
        <ele>898.97</ele>
        <time>2013-06-04T13:08:11Z</time>
      </trkpt>
      <trkpt lat="44.27453" lon="3.73419">
        <ele>896.09</ele>
        <time>2013-06-04T13:08:32Z</time>
      </trkpt>
      <trkpt lat="44.2743" lon="3.73407">
        <ele>894.16</ele>
        <time>2013-06-04T13:08:49Z</time>
      </trkpt>
      <trkpt lat="44.27414" lon="3.73403">
        <ele>893.68</ele>
        <time>2013-06-04T13:09:01Z</time>
      </trkpt>
      <trkpt lat="44.27393" lon="3.73397">
        <ele>891.28</ele>
        <time>2013-06-04T13:09:17Z</time>
      </trkpt>
      <trkpt lat="44.27367" lon="3.73415">
        <ele>889.84</ele>
        <time>2013-06-04T13:09:38Z</time>
      </trkpt>
      <trkpt lat="44.27349" lon="3.73448">
        <ele>888.4</ele>
        <time>2013-06-04T13:10:00Z</time>
      </trkpt>
      <trkpt lat="44.27337" lon="3.73484">
        <ele>886.95</ele>
        <time>2013-06-04T13:10:20Z</time>
      </trkpt>
      <trkpt lat="44.27327" lon="3.73517">
        <ele>885.99</ele>
        <time>2013-06-04T13:10:38Z</time>
      </trkpt>
      <trkpt lat="44.27314" lon="3.73549">
        <ele>887.43</ele>
        <time>2013-06-04T13:10:56Z</time>
      </trkpt>
      <trkpt lat="44.2731" lon="3.73558">
        <ele>887.91</ele>
        <time>2013-06-04T13:11:01Z</time>
      </trkpt>
      <trkpt lat="44.27298" lon="3.73583">
        <ele>887.43</ele>
        <time>2013-06-04T13:11:17Z</time>
      </trkpt>
      <trkpt lat="44.2729" lon="3.73619">
        <ele>885.03</ele>
        <time>2013-06-04T13:11:35Z</time>
      </trkpt>
      <trkpt lat="44.27291" lon="3.73658">
        <ele>883.11</ele>
        <time>2013-06-04T13:11:54Z</time>
      </trkpt>
      <trkpt lat="44.27295" lon="3.73689">
        <ele>882.15</ele>
        <time>2013-06-04T13:12:09Z</time>
      </trkpt>
      <trkpt lat="44.27298" lon="3.73707">
        <ele>883.59</ele>
        <time>2013-06-04T13:12:18Z</time>
      </trkpt>
      <trkpt lat="44.273" lon="3.73742">
        <ele>884.07</ele>
        <time>2013-06-04T13:12:35Z</time>
      </trkpt>
      <trkpt lat="44.27299" lon="3.73748">
        <ele>884.07</ele>
        <time>2013-06-04T13:12:38Z</time>
      </trkpt>
      <trkpt lat="44.27294" lon="3.73759">
        <ele>882.63</ele>
        <time>2013-06-04T13:12:44Z</time>
      </trkpt>
      <trkpt lat="44.27283" lon="3.73783">
        <ele>880.22</ele>
        <time>2013-06-04T13:12:59Z</time>
      </trkpt>
      <trkpt lat="44.27281" lon="3.73787">
        <ele>880.22</ele>
        <time>2013-06-04T13:13:01Z</time>
      </trkpt>
      <trkpt lat="44.27276" lon="3.73792">
        <ele>880.22</ele>
        <time>2013-06-04T13:13:07Z</time>
      </trkpt>
      <trkpt lat="44.27255" lon="3.73813">
        <ele>879.74</ele>
        <time>2013-06-04T13:13:23Z</time>
      </trkpt>
      <trkpt lat="44.27235" lon="3.73837">
        <ele>878.78</ele>
        <time>2013-06-04T13:13:40Z</time>
      </trkpt>
      <trkpt lat="44.27224" lon="3.73852">
        <ele>876.86</ele>
        <time>2013-06-04T13:13:50Z</time>
      </trkpt>
      <trkpt lat="44.27229" lon="3.73877">
        <ele>874.46</ele>
        <time>2013-06-04T13:14:04Z</time>
      </trkpt>
      <trkpt lat="44.27232" lon="3.73888">
        <ele>873.01</ele>
        <time>2013-06-04T13:14:10Z</time>
      </trkpt>
      <trkpt lat="44.27238" lon="3.73905">
        <ele>870.13</ele>
        <time>2013-06-04T13:14:22Z</time>
      </trkpt>
      <trkpt lat="44.27238" lon="3.73908">
        <ele>870.13</ele>
        <time>2013-06-04T13:14:24Z</time>
      </trkpt>
      <trkpt lat="44.2724" lon="3.73932">
        <ele>866.77</ele>
        <time>2013-06-04T13:14:40Z</time>
      </trkpt>
      <trkpt lat="44.27238" lon="3.73951">
        <ele>864.36</ele>
        <time>2013-06-04T13:14:53Z</time>
      </trkpt>
      <trkpt lat="44.27235" lon="3.73978">
        <ele>861.96</ele>
        <time>2013-06-04T13:15:05Z</time>
      </trkpt>
      <trkpt lat="44.27234" lon="3.73983">
        <ele>861.96</ele>
        <time>2013-06-04T13:15:07Z</time>
      </trkpt>
      <trkpt lat="44.27242" lon="3.74016">
        <ele>860.52</ele>
        <time>2013-06-04T13:15:22Z</time>
      </trkpt>
      <trkpt lat="44.27246" lon="3.74037">
        <ele>860.52</ele>
        <time>2013-06-04T13:15:33Z</time>
      </trkpt>
      <trkpt lat="44.27244" lon="3.7404">
        <ele>861.96</ele>
        <time>2013-06-04T13:15:36Z</time>
      </trkpt>
      <trkpt lat="44.2724" lon="3.74045">
        <ele>861.96</ele>
        <time>2013-06-04T13:15:41Z</time>
      </trkpt>
      <trkpt lat="44.27226" lon="3.74057">
        <ele>862.44</ele>
        <time>2013-06-04T13:15:54Z</time>
      </trkpt>
      <trkpt lat="44.2721" lon="3.74067">
        <ele>862.44</ele>
        <time>2013-06-04T13:16:05Z</time>
      </trkpt>
      <trkpt lat="44.27189" lon="3.74084">
        <ele>862.44</ele>
        <time>2013-06-04T13:16:20Z</time>
      </trkpt>
      <trkpt lat="44.27167" lon="3.74113">
        <ele>861.96</ele>
        <time>2013-06-04T13:16:36Z</time>
      </trkpt>
      <trkpt lat="44.27149" lon="3.7415">
        <ele>863.4</ele>
        <time>2013-06-04T13:16:57Z</time>
      </trkpt>
      <trkpt lat="44.27127" lon="3.74169">
        <ele>864.36</ele>
        <time>2013-06-04T13:17:14Z</time>
      </trkpt>
      <trkpt lat="44.27118" lon="3.74173">
        <ele>863.4</ele>
        <time>2013-06-04T13:17:21Z</time>
      </trkpt>
      <trkpt lat="44.27095" lon="3.74179">
        <ele>860.52</ele>
        <time>2013-06-04T13:17:37Z</time>
      </trkpt>
      <trkpt lat="44.27074" lon="3.74186">
        <ele>859.08</ele>
        <time>2013-06-04T13:17:53Z</time>
      </trkpt>
      <trkpt lat="44.27065" lon="3.74195">
        <ele>857.15</ele>
        <time>2013-06-04T13:18:01Z</time>
      </trkpt>
      <trkpt lat="44.27055" lon="3.74222">
        <ele>854.27</ele>
        <time>2013-06-04T13:18:17Z</time>
      </trkpt>
      <trkpt lat="44.27054" lon="3.74227">
        <ele>853.79</ele>
        <time>2013-06-04T13:18:20Z</time>
      </trkpt>
      <trkpt lat="44.27039" lon="3.74244">
        <ele>849.94</ele>
        <time>2013-06-04T13:18:35Z</time>
      </trkpt>
      <trkpt lat="44.27038" lon="3.74255">
        <ele>848.5</ele>
        <time>2013-06-04T13:18:41Z</time>
      </trkpt>
      <trkpt lat="44.27038" lon="3.74286">
        <ele>845.62</ele>
        <time>2013-06-04T13:18:54Z</time>
      </trkpt>
      <trkpt lat="44.27039" lon="3.74296">
        <ele>843.69</ele>
        <time>2013-06-04T13:19:05Z</time>
      </trkpt>
      <trkpt lat="44.27041" lon="3.74315">
        <ele>841.77</ele>
        <time>2013-06-04T13:19:18Z</time>
      </trkpt>
      <trkpt lat="44.27047" lon="3.74332">
        <ele>841.29</ele>
        <time>2013-06-04T13:19:30Z</time>
      </trkpt>
      <trkpt lat="44.27051" lon="3.74349">
        <ele>840.33</ele>
        <time>2013-06-04T13:19:45Z</time>
      </trkpt>
      <trkpt lat="44.27056" lon="3.74378">
        <ele>839.85</ele>
        <time>2013-06-04T13:20:01Z</time>
      </trkpt>
      <trkpt lat="44.27056" lon="3.74385">
        <ele>839.37</ele>
        <time>2013-06-04T13:20:05Z</time>
      </trkpt>
      <trkpt lat="44.27056" lon="3.74392">
        <ele>838.89</ele>
        <time>2013-06-04T13:20:09Z</time>
      </trkpt>
      <trkpt lat="44.27057" lon="3.74423">
        <ele>836.96</ele>
        <time>2013-06-04T13:20:26Z</time>
      </trkpt>
      <trkpt lat="44.27062" lon="3.74451">
        <ele>834.56</ele>
        <time>2013-06-04T13:20:41Z</time>
      </trkpt>
      <trkpt lat="44.27068" lon="3.74467">
        <ele>832.64</ele>
        <time>2013-06-04T13:20:54Z</time>
      </trkpt>
      <trkpt lat="44.27073" lon="3.74479">
        <ele>831.68</ele>
        <time>2013-06-04T13:21:01Z</time>
      </trkpt>
      <trkpt lat="44.27067" lon="3.74505">
        <ele>828.31</ele>
        <time>2013-06-04T13:21:15Z</time>
      </trkpt>
      <trkpt lat="44.27061" lon="3.74511">
        <ele>827.35</ele>
        <time>2013-06-04T13:21:27Z</time>
      </trkpt>
      <trkpt lat="44.27061" lon="3.74512">
        <ele>827.35</ele>
        <time>2013-06-04T13:21:32Z</time>
      </trkpt>
      <trkpt lat="44.27051" lon="3.74509">
        <ele>826.87</ele>
        <time>2013-06-04T13:21:41Z</time>
      </trkpt>
      <trkpt lat="44.27037" lon="3.74492">
        <ele>826.87</ele>
        <time>2013-06-04T13:21:56Z</time>
      </trkpt>
      <trkpt lat="44.27031" lon="3.74464">
        <ele>826.87</ele>
        <time>2013-06-04T13:22:09Z</time>
      </trkpt>
      <trkpt lat="44.2703" lon="3.74457">
        <ele>826.87</ele>
        <time>2013-06-04T13:22:14Z</time>
      </trkpt>
      <trkpt lat="44.27017" lon="3.74433">
        <ele>826.39</ele>
        <time>2013-06-04T13:22:33Z</time>
      </trkpt>
      <trkpt lat="44.2701" lon="3.744">
        <ele>826.39</ele>
        <time>2013-06-04T13:22:50Z</time>
      </trkpt>
      <trkpt lat="44.27004" lon="3.74382">
        <ele>826.39</ele>
        <time>2013-06-04T13:23:04Z</time>
      </trkpt>
      <trkpt lat="44.2699" lon="3.74358">
        <ele>824.95</ele>
        <time>2013-06-04T13:23:22Z</time>
      </trkpt>
      <trkpt lat="44.26978" lon="3.74342">
        <ele>822.55</ele>
        <time>2013-06-04T13:23:36Z</time>
      </trkpt>
      <trkpt lat="44.26961" lon="3.74316">
        <ele>821.58</ele>
        <time>2013-06-04T13:23:51Z</time>
      </trkpt>
      <trkpt lat="44.26948" lon="3.74285">
        <ele>819.66</ele>
        <time>2013-06-04T13:24:09Z</time>
      </trkpt>
      <trkpt lat="44.26942" lon="3.74264">
        <ele>818.22</ele>
        <time>2013-06-04T13:24:21Z</time>
      </trkpt>
      <trkpt lat="44.26932" lon="3.74248">
        <ele>816.78</ele>
        <time>2013-06-04T13:24:32Z</time>
      </trkpt>
      <trkpt lat="44.2693" lon="3.7424">
        <ele>816.3</ele>
        <time>2013-06-04T13:24:37Z</time>
      </trkpt>
      <trkpt lat="44.26911" lon="3.7421">
        <ele>813.89</ele>
        <time>2013-06-04T13:24:57Z</time>
      </trkpt>
      <trkpt lat="44.26899" lon="3.7417">
        <ele>811.97</ele>
        <time>2013-06-04T13:25:18Z</time>
      </trkpt>
      <trkpt lat="44.26911" lon="3.74143">
        <ele>810.53</ele>
        <time>2013-06-04T13:25:36Z</time>
      </trkpt>
      <trkpt lat="44.26922" lon="3.74133">
        <ele>809.57</ele>
        <time>2013-06-04T13:25:47Z</time>
      </trkpt>
      <trkpt lat="44.26912" lon="3.74131">
        <ele>807.16</ele>
        <time>2013-06-04T13:25:59Z</time>
      </trkpt>
      <trkpt lat="44.26899" lon="3.74135">
        <ele>805.72</ele>
        <time>2013-06-04T13:26:12Z</time>
      </trkpt>
      <trkpt lat="44.26894" lon="3.74137">
        <ele>805.24</ele>
        <time>2013-06-04T13:26:20Z</time>
      </trkpt>
      <trkpt lat="44.26866" lon="3.74124">
        <ele>802.36</ele>
        <time>2013-06-04T13:26:43Z</time>
      </trkpt>
      <trkpt lat="44.26851" lon="3.7411">
        <ele>799.47</ele>
        <time>2013-06-04T13:26:57Z</time>
      </trkpt>
      <trkpt lat="44.2684" lon="3.74088">
        <ele>796.11</ele>
        <time>2013-06-04T13:27:14Z</time>
      </trkpt>
      <trkpt lat="44.26834" lon="3.74074">
        <ele>793.71</ele>
        <time>2013-06-04T13:27:24Z</time>
      </trkpt>
      <trkpt lat="44.26835" lon="3.7407">
        <ele>793.71</ele>
        <time>2013-06-04T13:27:27Z</time>
      </trkpt>
      <trkpt lat="44.26842" lon="3.74072">
        <ele>793.22</ele>
        <time>2013-06-04T13:27:32Z</time>
      </trkpt>
      <trkpt lat="44.26863" lon="3.74082">
        <ele>792.74</ele>
        <time>2013-06-04T13:27:49Z</time>
      </trkpt>
      <trkpt lat="44.26868" lon="3.74084">
        <ele>792.74</ele>
        <time>2013-06-04T13:27:53Z</time>
      </trkpt>
      <trkpt lat="44.26889" lon="3.74083">
        <ele>791.78</ele>
        <time>2013-06-04T13:28:08Z</time>
      </trkpt>
      <trkpt lat="44.26892" lon="3.74076">
        <ele>791.78</ele>
        <time>2013-06-04T13:28:12Z</time>
      </trkpt>
      <trkpt lat="44.26874" lon="3.74074">
        <ele>789.38</ele>
        <time>2013-06-04T13:28:26Z</time>
      </trkpt>
      <trkpt lat="44.2686" lon="3.74067">
        <ele>788.42</ele>
        <time>2013-06-04T13:28:39Z</time>
      </trkpt>
      <trkpt lat="44.26836" lon="3.7405">
        <ele>787.46</ele>
        <time>2013-06-04T13:28:55Z</time>
      </trkpt>
      <trkpt lat="44.2682" lon="3.74027">
        <ele>785.53</ele>
        <time>2013-06-04T13:29:13Z</time>
      </trkpt>
      <trkpt lat="44.26815" lon="3.74018">
        <ele>784.57</ele>
        <time>2013-06-04T13:29:21Z</time>
      </trkpt>
      <trkpt lat="44.2681" lon="3.73995">
        <ele>782.17</ele>
        <time>2013-06-04T13:29:36Z</time>
      </trkpt>
      <trkpt lat="44.26805" lon="3.73987">
        <ele>781.69</ele>
        <time>2013-06-04T13:29:42Z</time>
      </trkpt>
      <trkpt lat="44.26804" lon="3.73964">
        <ele>780.25</ele>
        <time>2013-06-04T13:29:57Z</time>
      </trkpt>
      <trkpt lat="44.26795" lon="3.73946">
        <ele>778.32</ele>
        <time>2013-06-04T13:30:10Z</time>
      </trkpt>
      <trkpt lat="44.26763" lon="3.73919">
        <ele>776.4</ele>
        <time>2013-06-04T13:30:25Z</time>
      </trkpt>
      <trkpt lat="44.26743" lon="3.73905">
        <ele>774.96</ele>
        <time>2013-06-04T13:30:42Z</time>
      </trkpt>
      <trkpt lat="44.26727" lon="3.7389">
        <ele>772.56</ele>
        <time>2013-06-04T13:30:56Z</time>
      </trkpt>
      <trkpt lat="44.26704" lon="3.73869">
        <ele>770.63</ele>
        <time>2013-06-04T13:31:11Z</time>
      </trkpt>
      <trkpt lat="44.26688" lon="3.73867">
        <ele>769.67</ele>
        <time>2013-06-04T13:31:22Z</time>
      </trkpt>
      <trkpt lat="44.26679" lon="3.73871">
        <ele>768.71</ele>
        <time>2013-06-04T13:31:29Z</time>
      </trkpt>
      <trkpt lat="44.26658" lon="3.7389">
        <ele>765.83</ele>
        <time>2013-06-04T13:31:48Z</time>
      </trkpt>
      <trkpt lat="44.26634" lon="3.73908">
        <ele>763.9</ele>
        <time>2013-06-04T13:32:06Z</time>
      </trkpt>
      <trkpt lat="44.26629" lon="3.73911">
        <ele>763.42</ele>
        <time>2013-06-04T13:32:10Z</time>
      </trkpt>
      <trkpt lat="44.26625" lon="3.73936">
        <ele>760.54</ele>
        <time>2013-06-04T13:32:27Z</time>
      </trkpt>
      <trkpt lat="44.26627" lon="3.73964">
        <ele>758.14</ele>
        <time>2013-06-04T13:32:43Z</time>
      </trkpt>
      <trkpt lat="44.26627" lon="3.73965">
        <ele>758.14</ele>
        <time>2013-06-04T13:32:44Z</time>
      </trkpt>
      <trkpt lat="44.26631" lon="3.73999">
        <ele>755.25</ele>
        <time>2013-06-04T13:33:01Z</time>
      </trkpt>
      <trkpt lat="44.26635" lon="3.74015">
        <ele>754.77</ele>
        <time>2013-06-04T13:33:09Z</time>
      </trkpt>
      <trkpt lat="44.26636" lon="3.74035">
        <ele>753.33</ele>
        <time>2013-06-04T13:33:19Z</time>
      </trkpt>
      <trkpt lat="44.26641" lon="3.7406">
        <ele>751.41</ele>
        <time>2013-06-04T13:33:32Z</time>
      </trkpt>
      <trkpt lat="44.26648" lon="3.74088">
        <ele>749</ele>
        <time>2013-06-04T13:33:48Z</time>
      </trkpt>
      <trkpt lat="44.26649" lon="3.74091">
        <ele>748.52</ele>
        <time>2013-06-04T13:33:50Z</time>
      </trkpt>
      <trkpt lat="44.26661" lon="3.74129">
        <ele>746.12</ele>
        <time>2013-06-04T13:34:10Z</time>
      </trkpt>
      <trkpt lat="44.26662" lon="3.74137">
        <ele>745.64</ele>
        <time>2013-06-04T13:34:14Z</time>
      </trkpt>
      <trkpt lat="44.26657" lon="3.74137">
        <ele>745.16</ele>
        <time>2013-06-04T13:34:19Z</time>
      </trkpt>
      <trkpt lat="44.26646" lon="3.74111">
        <ele>743.72</ele>
        <time>2013-06-04T13:34:36Z</time>
      </trkpt>
      <trkpt lat="44.26634" lon="3.74083">
        <ele>741.79</ele>
        <time>2013-06-04T13:34:53Z</time>
      </trkpt>
      <trkpt lat="44.2662" lon="3.74054">
        <ele>741.31</ele>
        <time>2013-06-04T13:35:09Z</time>
      </trkpt>
      <trkpt lat="44.26613" lon="3.74025">
        <ele>740.83</ele>
        <time>2013-06-04T13:35:25Z</time>
      </trkpt>
      <trkpt lat="44.26605" lon="3.73999">
        <ele>739.39</ele>
        <time>2013-06-04T13:35:38Z</time>
      </trkpt>
      <trkpt lat="44.26604" lon="3.73992">
        <ele>739.39</ele>
        <time>2013-06-04T13:35:42Z</time>
      </trkpt>
      <trkpt lat="44.26601" lon="3.73968">
        <ele>738.91</ele>
        <time>2013-06-04T13:35:57Z</time>
      </trkpt>
      <trkpt lat="44.266" lon="3.73961">
        <ele>738.91</ele>
        <time>2013-06-04T13:36:02Z</time>
      </trkpt>
      <trkpt lat="44.2659" lon="3.73937">
        <ele>738.43</ele>
        <time>2013-06-04T13:36:15Z</time>
      </trkpt>
      <trkpt lat="44.26584" lon="3.73901">
        <ele>736.51</ele>
        <time>2013-06-04T13:36:31Z</time>
      </trkpt>
      <trkpt lat="44.26579" lon="3.73882">
        <ele>736.51</ele>
        <time>2013-06-04T13:36:41Z</time>
      </trkpt>
      <trkpt lat="44.26574" lon="3.73855">
        <ele>735.55</ele>
        <time>2013-06-04T13:36:55Z</time>
      </trkpt>
      <trkpt lat="44.26577" lon="3.73847">
        <ele>735.07</ele>
        <time>2013-06-04T13:36:59Z</time>
      </trkpt>
      <trkpt lat="44.26586" lon="3.73836">
        <ele>733.14</ele>
        <time>2013-06-04T13:37:12Z</time>
      </trkpt>
      <trkpt lat="44.26607" lon="3.73829">
        <ele>731.22</ele>
        <time>2013-06-04T13:37:26Z</time>
      </trkpt>
      <trkpt lat="44.26613" lon="3.73824">
        <ele>730.26</ele>
        <time>2013-06-04T13:37:31Z</time>
      </trkpt>
      <trkpt lat="44.26623" lon="3.73823">
        <ele>729.3</ele>
        <time>2013-06-04T13:37:38Z</time>
      </trkpt>
      <trkpt lat="44.26628" lon="3.7382">
        <ele>728.82</ele>
        <time>2013-06-04T13:37:42Z</time>
      </trkpt>
      <trkpt lat="44.26633" lon="3.7381">
        <ele>727.86</ele>
        <time>2013-06-04T13:37:50Z</time>
      </trkpt>
      <trkpt lat="44.26618" lon="3.73811">
        <ele>725.93</ele>
        <time>2013-06-04T13:38:02Z</time>
      </trkpt>
      <trkpt lat="44.26614" lon="3.73809">
        <ele>725.45</ele>
        <time>2013-06-04T13:38:06Z</time>
      </trkpt>
      <trkpt lat="44.2662" lon="3.73806">
        <ele>724.97</ele>
        <time>2013-06-04T13:38:13Z</time>
      </trkpt>
      <trkpt lat="44.26627" lon="3.73799">
        <ele>724.97</ele>
        <time>2013-06-04T13:38:19Z</time>
      </trkpt>
      <trkpt lat="44.26646" lon="3.7379">
        <ele>724.97</ele>
        <time>2013-06-04T13:38:33Z</time>
      </trkpt>
      <trkpt lat="44.26667" lon="3.7378">
        <ele>724.49</ele>
        <time>2013-06-04T13:38:49Z</time>
      </trkpt>
      <trkpt lat="44.26668" lon="3.73778">
        <ele>724.49</ele>
        <time>2013-06-04T13:38:50Z</time>
      </trkpt>
      <trkpt lat="44.26675" lon="3.73776">
        <ele>724.49</ele>
        <time>2013-06-04T13:38:55Z</time>
      </trkpt>
      <trkpt lat="44.26702" lon="3.73757">
        <ele>724.49</ele>
        <time>2013-06-04T13:39:15Z</time>
      </trkpt>
      <trkpt lat="44.26723" lon="3.73741">
        <ele>724.49</ele>
        <time>2013-06-04T13:39:30Z</time>
      </trkpt>
      <trkpt lat="44.26747" lon="3.73737">
        <ele>724.01</ele>
        <time>2013-06-04T13:39:48Z</time>
      </trkpt>
      <trkpt lat="44.26751" lon="3.7374">
        <ele>723.53</ele>
        <time>2013-06-04T13:39:52Z</time>
      </trkpt>
      <trkpt lat="44.26779" lon="3.7375">
        <ele>723.05</ele>
        <time>2013-06-04T13:40:11Z</time>
      </trkpt>
      <trkpt lat="44.268" lon="3.73767">
        <ele>723.05</ele>
        <time>2013-06-04T13:40:28Z</time>
      </trkpt>
      <trkpt lat="44.2683" lon="3.73787">
        <ele>722.09</ele>
        <time>2013-06-04T13:40:49Z</time>
      </trkpt>
      <trkpt lat="44.26844" lon="3.73796">
        <ele>721.61</ele>
        <time>2013-06-04T13:41:02Z</time>
      </trkpt>
      <trkpt lat="44.26871" lon="3.73799">
        <ele>721.13</ele>
        <time>2013-06-04T13:41:19Z</time>
      </trkpt>
      <trkpt lat="44.26888" lon="3.73803">
        <ele>720.65</ele>
        <time>2013-06-04T13:41:32Z</time>
      </trkpt>
      <trkpt lat="44.26895" lon="3.73804">
        <ele>720.65</ele>
        <time>2013-06-04T13:41:37Z</time>
      </trkpt>
      <trkpt lat="44.26907" lon="3.73802">
        <ele>720.16</ele>
        <time>2013-06-04T13:41:45Z</time>
      </trkpt>
      <trkpt lat="44.26921" lon="3.73796">
        <ele>720.16</ele>
        <time>2013-06-04T13:41:55Z</time>
      </trkpt>
      <trkpt lat="44.26938" lon="3.73786">
        <ele>719.68</ele>
        <time>2013-06-04T13:42:08Z</time>
      </trkpt>
      <trkpt lat="44.26954" lon="3.7377">
        <ele>719.2</ele>
        <time>2013-06-04T13:42:23Z</time>
      </trkpt>
      <trkpt lat="44.2696" lon="3.73767">
        <ele>719.2</ele>
        <time>2013-06-04T13:42:27Z</time>
      </trkpt>
      <trkpt lat="44.2697" lon="3.7375">
        <ele>718.72</ele>
        <time>2013-06-04T13:42:41Z</time>
      </trkpt>
      <trkpt lat="44.26974" lon="3.73737">
        <ele>717.76</ele>
        <time>2013-06-04T13:42:51Z</time>
      </trkpt>
      <trkpt lat="44.26982" lon="3.73689">
        <ele>717.76</ele>
        <time>2013-06-04T13:43:06Z</time>
      </trkpt>
      <trkpt lat="44.26982" lon="3.7367">
        <ele>717.28</ele>
        <time>2013-06-04T13:43:18Z</time>
      </trkpt>
      <trkpt lat="44.2698" lon="3.73647">
        <ele>716.8</ele>
        <time>2013-06-04T13:43:29Z</time>
      </trkpt>
      <trkpt lat="44.26973" lon="3.73617">
        <ele>716.32</ele>
        <time>2013-06-04T13:43:42Z</time>
      </trkpt>
      <trkpt lat="44.26968" lon="3.73584">
        <ele>716.32</ele>
        <time>2013-06-04T13:43:58Z</time>
      </trkpt>
      <trkpt lat="44.26965" lon="3.7355">
        <ele>715.84</ele>
        <time>2013-06-04T13:44:14Z</time>
      </trkpt>
      <trkpt lat="44.2697" lon="3.7353">
        <ele>715.36</ele>
        <time>2013-06-04T13:44:25Z</time>
      </trkpt>
      <trkpt lat="44.26972" lon="3.73518">
        <ele>715.36</ele>
        <time>2013-06-04T13:44:32Z</time>
      </trkpt>
      <trkpt lat="44.26986" lon="3.73499">
        <ele>714.88</ele>
        <time>2013-06-04T13:44:45Z</time>
      </trkpt>
      <trkpt lat="44.26995" lon="3.73487">
        <ele>714.4</ele>
        <time>2013-06-04T13:44:56Z</time>
      </trkpt>
      <trkpt lat="44.2701" lon="3.73452">
        <ele>713.44</ele>
        <time>2013-06-04T13:45:10Z</time>
      </trkpt>
      <trkpt lat="44.27025" lon="3.73433">
        <ele>713.44</ele>
        <time>2013-06-04T13:45:25Z</time>
      </trkpt>
      <trkpt lat="44.27029" lon="3.73426">
        <ele>712.95</ele>
        <time>2013-06-04T13:45:32Z</time>
      </trkpt>
      <trkpt lat="44.27042" lon="3.73408">
        <ele>712.95</ele>
        <time>2013-06-04T13:45:47Z</time>
      </trkpt>
      <trkpt lat="44.27042" lon="3.73383">
        <ele>712.95</ele>
        <time>2013-06-04T13:45:58Z</time>
      </trkpt>
      <trkpt lat="44.27038" lon="3.73367">
        <ele>712.47</ele>
        <time>2013-06-04T13:46:05Z</time>
      </trkpt>
      <trkpt lat="44.27035" lon="3.73339">
        <ele>711.51</ele>
        <time>2013-06-04T13:46:18Z</time>
      </trkpt>
      <trkpt lat="44.27034" lon="3.73325">
        <ele>711.51</ele>
        <time>2013-06-04T13:46:24Z</time>
      </trkpt>
      <trkpt lat="44.27032" lon="3.73297">
        <ele>711.03</ele>
        <time>2013-06-04T13:46:37Z</time>
      </trkpt>
      <trkpt lat="44.27034" lon="3.73266">
        <ele>710.55</ele>
        <time>2013-06-04T13:46:53Z</time>
      </trkpt>
      <trkpt lat="44.27035" lon="3.73253">
        <ele>710.55</ele>
        <time>2013-06-04T13:46:58Z</time>
      </trkpt>
      <trkpt lat="44.27043" lon="3.73217">
        <ele>710.07</ele>
        <time>2013-06-04T13:47:15Z</time>
      </trkpt>
      <trkpt lat="44.27046" lon="3.73208">
        <ele>710.07</ele>
        <time>2013-06-04T13:47:20Z</time>
      </trkpt>
      <trkpt lat="44.27051" lon="3.73203">
        <ele>710.07</ele>
        <time>2013-06-04T13:47:25Z</time>
      </trkpt>
      <trkpt lat="44.27062" lon="3.73187">
        <ele>710.07</ele>
        <time>2013-06-04T13:47:36Z</time>
      </trkpt>
      <trkpt lat="44.27078" lon="3.7317">
        <ele>710.07</ele>
        <time>2013-06-04T13:47:48Z</time>
      </trkpt>
      <trkpt lat="44.27088" lon="3.7315">
        <ele>710.07</ele>
        <time>2013-06-04T13:48:03Z</time>
      </trkpt>
      <trkpt lat="44.27095" lon="3.73142">
        <ele>710.07</ele>
        <time>2013-06-04T13:48:21Z</time>
      </trkpt>
      <trkpt lat="44.27103" lon="3.73122">
        <ele>709.59</ele>
        <time>2013-06-04T13:48:36Z</time>
      </trkpt>
      <trkpt lat="44.27105" lon="3.73116">
        <ele>709.11</ele>
        <time>2013-06-04T13:48:41Z</time>
      </trkpt>
      <trkpt lat="44.2712" lon="3.73088">
        <ele>708.15</ele>
        <time>2013-06-04T13:48:59Z</time>
      </trkpt>
      <trkpt lat="44.27136" lon="3.73072">
        <ele>708.15</ele>
        <time>2013-06-04T13:49:15Z</time>
      </trkpt>
      <trkpt lat="44.2715" lon="3.73058">
        <ele>709.11</ele>
        <time>2013-06-04T13:49:27Z</time>
      </trkpt>
      <trkpt lat="44.27163" lon="3.73046">
        <ele>709.59</ele>
        <time>2013-06-04T13:49:40Z</time>
      </trkpt>
      <trkpt lat="44.27168" lon="3.73038">
        <ele>710.07</ele>
        <time>2013-06-04T13:49:58Z</time>
      </trkpt>
      <trkpt lat="44.27168" lon="3.73035">
        <ele>710.07</ele>
        <time>2013-06-04T13:50:16Z</time>
      </trkpt>
      <trkpt lat="44.27171" lon="3.73033">
        <ele>710.55</ele>
        <time>2013-06-04T13:50:49Z</time>
      </trkpt>
      <trkpt lat="44.27185" lon="3.73047">
        <ele>710.55</ele>
        <time>2013-06-04T13:51:27Z</time>
      </trkpt>
      <trkpt lat="44.27181" lon="3.73043">
        <ele>710.55</ele>
        <time>2013-06-04T13:51:59Z</time>
      </trkpt>
      <trkpt lat="44.27179" lon="3.73039">
        <ele>710.55</ele>
        <time>2013-06-04T13:52:37Z</time>
      </trkpt>
      <trkpt lat="44.27173" lon="3.73039">
        <ele>710.07</ele>
        <time>2013-06-04T13:53:17Z</time>
      </trkpt>
      <trkpt lat="44.27168" lon="3.73036">
        <ele>710.07</ele>
        <time>2013-06-04T13:53:58Z</time>
      </trkpt>
      <trkpt lat="44.27163" lon="3.73034">
        <ele>710.55</ele>
        <time>2013-06-04T13:54:37Z</time>
      </trkpt>
      <trkpt lat="44.27174" lon="3.7304">
        <ele>710.55</ele>
        <time>2013-06-04T13:55:12Z</time>
      </trkpt>
      <trkpt lat="44.27197" lon="3.73052">
        <ele>710.55</ele>
        <time>2013-06-04T13:55:51Z</time>
      </trkpt>
      <trkpt lat="44.27195" lon="3.73049">
        <ele>710.55</ele>
        <time>2013-06-04T13:56:24Z</time>
      </trkpt>
      <trkpt lat="44.2718" lon="3.73048">
        <ele>710.55</ele>
        <time>2013-06-04T13:56:56Z</time>
      </trkpt>
      <trkpt lat="44.27187" lon="3.7305">
        <ele>710.55</ele>
        <time>2013-06-04T13:57:22Z</time>
      </trkpt>
      <trkpt lat="44.27189" lon="3.7305">
        <ele>710.55</ele>
        <time>2013-06-04T13:57:55Z</time>
      </trkpt>
      <trkpt lat="44.27182" lon="3.7304">
        <ele>710.55</ele>
        <time>2013-06-04T13:58:26Z</time>
      </trkpt>
      <trkpt lat="44.27184" lon="3.73044">
        <ele>710.55</ele>
        <time>2013-06-04T13:59:03Z</time>
      </trkpt>
      <trkpt lat="44.27184" lon="3.73048">
        <ele>710.07</ele>
        <time>2013-06-04T13:59:41Z</time>
      </trkpt>
      <trkpt lat="44.27185" lon="3.73052">
        <ele>710.07</ele>
        <time>2013-06-04T14:00:23Z</time>
      </trkpt>
      <trkpt lat="44.27185" lon="3.73053">
        <ele>708.63</ele>
        <time>2013-06-04T14:00:34Z</time>
      </trkpt>
      <trkpt lat="44.27185" lon="3.73053">
        <ele>710.07</ele>
        <time>2013-06-04T14:00:35Z</time>
      </trkpt>
      <trkpt lat="44.2718" lon="3.73047">
        <ele>710.07</ele>
        <time>2013-06-04T14:00:49Z</time>
      </trkpt>
      <trkpt lat="44.27176" lon="3.73035">
        <ele>710.07</ele>
        <time>2013-06-04T14:01:08Z</time>
      </trkpt>
      <trkpt lat="44.27168" lon="3.73033">
        <ele>709.59</ele>
        <time>2013-06-04T14:01:45Z</time>
      </trkpt>
      <trkpt lat="44.27158" lon="3.73025">
        <ele>709.59</ele>
        <time>2013-06-04T14:02:26Z</time>
      </trkpt>
      <trkpt lat="44.27163" lon="3.73031">
        <ele>709.59</ele>
        <time>2013-06-04T14:03:08Z</time>
      </trkpt>
      <trkpt lat="44.27173" lon="3.73036">
        <ele>709.59</ele>
        <time>2013-06-04T14:03:29Z</time>
      </trkpt>
      <trkpt lat="44.27172" lon="3.73036">
        <ele>709.11</ele>
        <time>2013-06-04T14:03:54Z</time>
      </trkpt>
      <trkpt lat="44.27168" lon="3.73036">
        <ele>709.11</ele>
        <time>2013-06-04T14:04:23Z</time>
      </trkpt>
      <trkpt lat="44.27163" lon="3.7303">
        <ele>709.11</ele>
        <time>2013-06-04T14:04:46Z</time>
      </trkpt>
      <trkpt lat="44.27163" lon="3.73032">
        <ele>709.11</ele>
        <time>2013-06-04T14:05:14Z</time>
      </trkpt>
      <trkpt lat="44.27163" lon="3.73034">
        <ele>709.11</ele>
        <time>2013-06-04T14:05:43Z</time>
      </trkpt>
      <trkpt lat="44.27169" lon="3.73039">
        <ele>709.11</ele>
        <time>2013-06-04T14:06:17Z</time>
      </trkpt>
      <trkpt lat="44.27175" lon="3.73038">
        <ele>709.11</ele>
        <time>2013-06-04T14:06:46Z</time>
      </trkpt>
      <trkpt lat="44.2717" lon="3.73033">
        <ele>709.59</ele>
        <time>2013-06-04T14:07:09Z</time>
      </trkpt>
      <trkpt lat="44.27162" lon="3.73038">
        <ele>709.59</ele>
        <time>2013-06-04T14:07:39Z</time>
      </trkpt>
      <trkpt lat="44.2717" lon="3.73037">
        <ele>709.59</ele>
        <time>2013-06-04T14:08:13Z</time>
      </trkpt>
      <trkpt lat="44.27167" lon="3.73034">
        <ele>709.59</ele>
        <time>2013-06-04T14:08:56Z</time>
      </trkpt>
      <trkpt lat="44.27169" lon="3.73034">
        <ele>709.59</ele>
        <time>2013-06-04T14:09:31Z</time>
      </trkpt>
      <trkpt lat="44.27168" lon="3.73031">
        <ele>710.07</ele>
        <time>2013-06-04T14:10:05Z</time>
      </trkpt>
      <trkpt lat="44.27167" lon="3.73036">
        <ele>710.07</ele>
        <time>2013-06-04T14:10:47Z</time>
      </trkpt>
      <trkpt lat="44.27169" lon="3.73035">
        <ele>710.07</ele>
        <time>2013-06-04T14:11:20Z</time>
      </trkpt>
      <trkpt lat="44.2717" lon="3.73036">
        <ele>710.07</ele>
        <time>2013-06-04T14:11:59Z</time>
      </trkpt>
      <trkpt lat="44.27171" lon="3.73037">
        <ele>709.59</ele>
        <time>2013-06-04T14:12:42Z</time>
      </trkpt>
      <trkpt lat="44.27172" lon="3.73036">
        <ele>709.59</ele>
        <time>2013-06-04T14:13:16Z</time>
      </trkpt>
      <trkpt lat="44.27171" lon="3.7304">
        <ele>709.59</ele>
        <time>2013-06-04T14:13:52Z</time>
      </trkpt>
      <trkpt lat="44.27172" lon="3.73038">
        <ele>709.59</ele>
        <time>2013-06-04T14:14:21Z</time>
      </trkpt>
      <trkpt lat="44.27174" lon="3.73039">
        <ele>709.59</ele>
        <time>2013-06-04T14:14:49Z</time>
      </trkpt>
    </trkseg>
  </trk>
</gpx>